GEFSNGP_500_meanwind_000.txt.gz
Wind_Speed
23 22 21 20 21 21 20 21 19 19 20 24 25 21 21 23 26 28 31 34 38 43 47 52 56 59 62 65 69 71 73 76 79 81 85 90 94 97 99 99 98 98 97 94
22 22 22 21 22 22 21 22 20 20 20 23 20 22 24 26 29 33 35 38 43 47 52 57 61 64 67 70 73 76 78 80 84 88 93 96 98 98 98 95 92 90 87 83
28 25 23 23 23 21 21 21 20 18 18 19 21 24 27 30 33 36 40 45 50 54 58 62 65 68 71 74 76 78 81 86 90 94 96 96 95 91 87 83 79 75 73 72
18 18 21 21 23 22 21 20 17 17 20 24 27 29 32 36 40 44 48 52 56 59 61 64 67 70 72 75 77 81 86 91 94 96 94 89 84 79 75 71 68 67 66 66
18 19 19 20 21 19 19 20 20 22 25 29 32 35 38 42 46 50 53 56 58 60 63 66 69 72 74 78 81 87 91 95 95 91 85 79 73 70 67 66 65 66 68 70
19 19 19 19 18 19 21 23 24 27 30 33 37 40 43 48 52 54 56 58 61 64 67 70 72 75 79 83 88 91 93 90 84 79 75 72 69 67 66 67 69 72 74 79
17 17 18 18 19 22 23 24 28 32 36 39 42 46 50 53 56 58 60 62 65 69 71 73 76 80 85 88 91 90 85 79 75 72 71 70 68 69 70 72 75 79 81 86
18 18 19 20 23 26 28 30 33 37 41 44 48 52 55 57 59 60 62 65 68 70 72 76 81 85 88 90 89 84 78 74 71 70 70 70 71 73 76 79 82 86 90 94
22 23 24 27 29 31 34 36 39 43 46 49 52 55 57 59 60 63 66 70 72 73 76 81 85 88 89 87 82 76 71 70 69 69 70 72 75 77 81 86 92 96 98 99
27 29 33 34 35 37 39 41 44 47 49 51 53 55 58 60 63 66 69 72 74 77 81 85 88 89 87 82 74 70 69 69 70 70 72 75 79 84 90 94 98 99 97 93
31 34 37 39 41 42 44 46 48 50 52 53 54 56 59 63 65 69 71 73 76 80 85 87 87 83 79 73 70 69 69 69 71 74 78 82 86 90 93 94 93 89 84 78
34 36 38 41 45 48 50 51 53 54 56 56 57 59 62 65 68 70 73 75 79 83 85 84 81 75 71 68 68 69 71 74 78 82 86 89 90 89 86 79 72 70 66 60
39 41 43 45 48 50 52 55 56 58 58 59 60 62 65 67 69 71 74 78 81 83 82 80 74 69 67 66 68 71 75 80 84 88 89 87 85 80 71 62 58 57 54 50
45 47 49 50 52 54 56 58 59 59 58 59 61 64 67 69 72 75 78 81 82 81 78 74 68 65 64 65 68 74 80 85 87 85 80 75 70 65 61 55 48 45 46 45
48 50 53 55 58 59 59 59 57 56 57 60 63 66 69 72 75 78 81 83 80 76 71 66 62 61 63 66 71 78 84 85 82 74 69 65 63 61 56 50 48 46 45 41
52 56 58 59 60 59 55 52 52 55 59 62 65 68 71 74 77 80 81 78 72 68 64 61 59 60 64 69 75 80 84 80 74 70 67 65 62 57 52 50 50 50 45 39
57 59 58 56 53 50 50 52 55 58 61 63 66 69 73 76 78 78 76 72 67 64 60 58 58 61 66 72 78 82 81 75 71 69 64 59 54 52 51 52 51 46 40 36
55 52 49 47 48 50 53 55 57 59 62 63 67 72 76 77 76 74 72 66 62 59 58 59 60 63 68 74 79 82 79 70 64 60 56 53 54 54 53 51 48 44 40 37
45 45 46 48 50 51 53 56 58 60 63 66 71 75 77 77 76 71 65 60 58 57 57 59 61 65 70 76 81 81 75 65 61 59 57 57 56 54 51 48 45 42 38 34
45 46 47 49 50 52 55 57 60 63 66 71 75 78 78 75 70 63 58 56 57 57 58 60 63 67 72 78 81 79 72 64 60 58 58 58 54 50 47 44 41 38 36 33
47 49 50 52 54 56 58 60 63 67 71 74 76 75 72 66 61 57 55 54 57 58 59 61 65 69 75 79 80 75 67 60 57 56 56 54 50 47 44 41 38 37 35 30
50 51 53 56 58 60 61 64 68 71 73 73 72 69 63 58 55 54 55 56 57 59 60 62 67 72 77 80 78 70 63 57 55 55 55 52 49 46 43 40 37 33 30 26
52 54 56 58 60 61 65 68 70 72 71 69 65 61 56 54 53 54 55 57 59 59 61 64 69 74 79 80 74 66 59 55 54 54 54 52 49 45 41 39 34 29 25 24
55 56 58 60 62 64 68 70 71 70 68 63 58 54 53 53 54 56 57 58 59 61 64 67 72 77 81 77 68 61 55 52 52 53 52 49 46 43 42 38 32 25 21 19
56 57 59 60 63 67 69 69 67 63 58 54 53 52 53 54 54 56 57 59 60 63 66 70 75 80 79 71 63 56 52 52 52 52 48 45 44 41 37 32 25 19 17 15
54 56 59 63 66 68 66 63 58 55 52 51 52 53 53 55 57 58 59 61 63 65 69 73 78 79 72 64 57 52 51 52 52 48 45 41 37 33 30 24 16 14 14 12
56 61 64 66 65 62 58 54 52 51 51 51 51 52 54 56 57 59 61 63 65 69 73 78 78 73 64 58 53 51 51 51 48 44 39 34 31 28 22 18 13 11 10 11

GEFSNGP_500_meanwind_006.txt.gz
Wind_Speed
33 32 30 29 27 27 27 25 24 22 24 25 23 22 23 25 26 28 30 32 33 34 35 38 41 45 49 53 56 59 62 64 67 69 71 74 77 80 84 89 93 97 99 99
31 30 30 30 30 29 27 26 25 24 25 26 24 24 25 27 28 30 32 33 34 36 40 43 47 50 53 56 59 61 63 66 68 71 74 77 81 85 90 94 97 98 96 93
29 29 30 30 28 27 26 25 26 26 25 25 25 26 28 29 30 32 33 35 37 40 44 47 50 52 55 58 60 62 65 68 71 74 78 81 86 90 94 97 96 93 88 85
28 28 29 27 27 27 26 26 26 25 25 24 24 27 29 30 32 34 36 38 41 44 47 49 52 55 58 60 62 65 68 71 74 77 81 86 90 94 96 94 90 85 82 81
26 27 27 26 27 26 27 26 27 26 25 25 27 29 30 32 34 36 39 42 45 47 50 53 55 58 60 63 65 68 71 74 77 81 85 89 93 94 92 87 82 79 79 85
29 29 30 28 28 28 29 28 26 25 25 27 29 31 32 34 37 39 42 45 48 51 54 56 59 61 64 66 68 70 73 76 80 84 88 91 92 90 85 80 77 78 82 88
29 31 32 29 28 27 28 26 24 26 28 29 31 32 34 37 40 42 45 49 52 55 57 60 62 64 66 67 68 71 75 79 84 87 90 91 88 83 79 76 77 80 86 89
23 25 26 24 24 25 26 25 26 27 29 31 33 35 38 41 44 47 50 53 56 59 61 63 64 64 65 67 70 74 79 83 86 89 89 87 83 78 75 75 78 83 88 88
20 21 21 23 24 25 25 26 27 29 31 34 37 39 43 46 49 52 56 59 61 63 64 63 63 64 66 69 73 77 82 85 87 87 85 81 78 75 74 76 80 86 90 87
20 20 21 23 24 26 27 28 30 33 35 38 41 44 47 51 54 57 60 62 64 63 62 61 62 65 67 71 76 80 84 86 87 84 80 76 74 74 75 78 81 87 90 85
21 23 25 26 28 29 31 33 35 38 40 43 46 50 53 56 58 61 63 64 62 59 59 60 63 67 70 75 79 83 86 87 84 80 77 73 72 73 75 77 83 89 88 82
25 26 28 29 30 31 33 35 38 41 44 48 52 55 57 59 62 63 63 59 57 58 59 62 65 70 74 79 83 85 86 84 80 77 73 72 72 71 73 76 81 87 83 75
27 29 31 32 33 34 36 39 43 47 50 53 56 58 60 62 63 60 57 55 56 58 60 64 69 73 77 81 84 85 83 80 77 74 72 71 71 72 72 72 79 82 75 68
29 30 32 33 35 38 41 45 49 52 54 56 58 60 62 61 58 55 55 55 57 59 63 67 72 76 80 82 83 81 79 77 74 71 70 70 70 72 74 75 79 78 68 62
32 33 35 37 39 43 46 50 53 55 57 59 61 62 60 56 55 54 55 56 59 63 67 70 74 78 82 82 81 78 75 72 70 68 68 69 70 72 74 77 81 76 63 56
35 37 39 42 45 48 51 54 56 59 60 61 60 57 55 54 54 54 56 59 62 66 70 73 77 80 82 81 78 74 71 69 68 67 67 68 70 73 75 78 80 70 58 54
39 41 43 45 48 50 53 56 58 58 58 56 54 53 53 53 55 57 59 62 66 70 73 76 78 80 79 78 75 71 68 66 66 65 66 68 71 74 76 79 75 63 54 50
39 41 44 46 49 51 52 52 52 51 51 51 51 52 53 54 57 60 63 66 70 73 76 78 79 78 76 74 70 67 65 64 63 64 66 69 72 75 78 77 69 57 49 45
39 41 43 44 45 46 46 47 47 49 49 50 51 52 55 57 60 63 66 69 72 75 77 77 76 74 71 68 65 63 63 62 63 65 68 71 74 77 77 72 60 51 46 43
38 39 40 41 42 43 44 45 47 48 49 51 53 56 58 61 63 65 68 72 76 78 78 76 73 70 66 63 61 61 62 63 64 67 70 73 77 77 73 63 52 46 43 41
37 38 39 40 42 43 45 46 48 50 51 53 56 58 61 63 66 69 72 75 77 77 75 71 68 65 61 60 60 62 63 65 67 70 73 77 77 72 63 52 46 42 40 37
37 38 40 41 43 45 46 48 50 51 53 56 58 60 63 66 70 74 77 77 76 73 69 66 63 60 59 60 62 64 66 68 71 74 77 76 71 61 51 45 41 38 36 30
38 40 41 43 44 46 48 49 51 53 56 59 62 65 68 72 75 77 76 74 71 67 64 61 60 59 60 63 66 68 70 73 76 77 74 67 58 49 43 40 37 34 29 22
40 41 43 44 46 48 50 52 54 58 61 64 67 71 74 76 77 76 72 68 64 61 59 58 59 61 64 67 70 72 75 76 75 71 62 52 46 42 40 37 33 28 22 15
42 44 46 48 49 51 53 56 59 62 65 68 72 75 76 76 73 68 64 61 58 57 57 58 62 66 69 71 74 76 76 73 66 56 48 43 41 39 36 32 28 22 15 8
47 48 49 51 52 54 57 60 63 66 69 72 75 75 74 70 64 60 57 56 55 57 59 63 67 70 72 75 76 73 68 60 52 46 43 41 38 35 31 27 22 15 8 5
51 51 52 53 55 58 61 64 67 70 72 74 73 70 65 60 56 54 54 55 57 61 64 67 71 73 74 73 68 62 55 49 45 42 40 38 35 30 25 20 14 7 5 8

GEFSNGP_500_meanwind_012.txt.gz
Wind_Speed
37 37 37 37 36 35 34 31 30 27 26 26 28 28 28 28 28 28 27 26 27 28 30 31 32 34 36 39 42 45 49 53 56 60 64 67 69 71 72 73 74 75 78 81
35 35 36 36 37 38 37 35 32 30 28 28 30 29 28 28 27 27 27 27 28 29 30 32 34 37 39 42 45 49 53 57 61 65 67 69 71 71 71 73 75 77 80 83
34 36 36 37 36 37 37 35 33 31 26 28 28 28 27 27 27 28 28 29 29 30 32 34 36 39 42 45 49 53 58 62 65 68 69 70 70 70 71 73 76 79 83 86
31 34 36 32 32 33 33 31 30 28 25 26 27 27 27 28 28 29 30 30 31 32 34 36 39 42 45 49 54 58 62 66 68 69 69 69 69 71 73 75 78 82 86 89
24 26 27 27 26 27 27 26 26 25 25 26 26 27 27 28 29 30 30 31 33 35 36 39 41 45 49 54 58 63 66 69 69 69 68 68 70 72 75 78 81 85 89 92
22 22 20 21 23 23 25 23 23 24 24 25 26 27 28 30 31 32 33 34 35 36 38 41 45 49 54 58 63 66 69 69 68 68 68 69 71 74 77 81 85 89 92 93
21 21 20 21 22 22 21 20 21 23 24 26 28 30 31 32 33 34 35 35 36 38 41 45 49 54 59 62 66 69 69 68 67 68 69 71 73 77 81 85 89 92 93 93
23 23 21 22 24 24 24 24 25 26 28 29 31 32 33 33 33 34 35 36 38 41 45 50 54 59 62 66 68 68 67 66 67 69 71 73 76 80 84 89 92 92 91 88
21 19 19 20 22 23 25 26 28 29 29 30 30 31 31 32 32 33 35 38 42 46 50 54 58 62 65 67 66 65 64 65 67 69 72 76 80 84 88 92 93 91 87 83
16 16 16 17 19 20 22 24 25 27 28 28 29 29 30 31 32 35 39 42 46 51 55 58 62 64 65 64 63 62 63 65 68 71 75 79 84 88 91 92 91 86 82 77
13 13 14 16 18 20 21 23 25 26 27 28 29 30 32 34 37 40 43 47 51 54 58 60 61 61 60 59 59 61 63 67 71 75 80 84 88 90 91 89 86 81 77 72
14 15 16 17 20 22 23 25 26 28 30 31 32 34 36 38 41 44 47 50 54 56 57 58 57 56 56 56 59 62 66 71 75 80 84 88 91 90 88 84 78 73 71 70
18 20 21 22 23 25 26 28 29 31 32 33 35 36 38 41 44 47 50 52 53 54 53 53 52 52 54 58 62 66 71 75 80 85 89 91 91 88 83 76 71 68 68 69
24 25 26 27 28 29 29 30 31 32 33 34 35 37 40 43 46 48 49 49 49 49 49 49 50 53 57 61 66 71 76 81 86 89 91 90 87 82 76 70 67 66 68 70
30 30 31 31 31 32 32 31 31 32 33 35 38 41 43 45 46 46 46 46 46 46 48 49 53 57 61 67 72 76 81 86 89 91 89 85 79 73 69 67 67 68 70 72
33 33 33 33 33 33 32 32 33 34 36 39 41 43 43 43 43 43 43 44 45 47 49 53 57 62 67 72 77 81 86 89 90 88 83 76 71 69 68 69 70 72 74 73
32 32 32 32 32 32 33 34 36 37 39 40 41 41 41 41 41 42 43 45 47 50 53 58 62 67 73 78 82 86 89 90 87 80 74 70 68 68 70 72 74 74 72 66
31 31 31 32 33 34 35 36 37 38 40 40 40 40 40 40 42 43 45 48 51 54 58 63 68 73 78 82 86 89 89 86 79 72 69 67 68 70 73 75 74 70 61 51
31 32 32 32 33 34 35 37 38 39 39 39 39 39 40 41 43 46 48 51 55 59 63 68 72 77 81 85 87 88 85 77 71 67 67 68 70 73 74 72 66 57 48 40
32 32 33 34 35 36 37 37 38 37 37 37 37 39 40 43 45 48 52 55 59 63 68 72 76 80 83 86 86 82 76 69 66 66 68 70 73 72 68 61 53 45 38 32
33 34 35 36 36 36 36 36 35 35 35 36 38 40 42 45 48 52 56 60 63 67 71 75 79 82 84 84 80 73 67 65 65 68 70 72 70 64 57 50 42 36 31 27
35 35 35 35 35 34 33 33 34 34 36 37 39 42 45 49 53 57 60 64 67 71 74 78 81 83 82 78 71 66 64 65 67 70 71 68 61 54 48 41 35 31 27 22
33 33 32 32 32 32 32 33 34 36 38 40 43 47 50 54 58 61 64 67 70 73 76 79 81 80 76 70 65 63 64 66 69 70 65 59 54 48 41 35 31 27 22 15
31 31 32 32 32 32 34 35 37 40 43 45 49 52 56 59 62 65 68 70 72 75 78 79 78 74 68 64 63 64 66 68 68 64 58 53 48 42 36 31 27 22 15 7
32 33 33 34 35 36 37 39 42 45 47 51 54 57 61 63 65 67 69 71 74 77 77 76 72 67 63 62 63 65 68 67 62 57 52 46 41 36 32 28 22 14 6 3
35 36 37 38 39 40 42 45 47 50 53 56 59 61 63 65 66 68 70 73 75 76 74 70 65 62 62 63 65 67 65 60 55 50 46 41 37 33 28 22 14 5 4 12
38 39 40 42 44 46 48 50 53 55 58 60 62 63 64 65 67 69 72 74 74 72 68 64 61 61 63 65 66 63 58 53 48 45 41 38 34 28 21 14 5 6 14 21

GEFSNGP_500_meanwind_018.txt.gz
Wind_Speed
25 27 26 26 26 27 27 26 25 23 22 21 22 21 22 23 24 25 26 27 29 31 32 32 33 34 35 36 38 39 40 42 43 45 47 51 55 60 64 68 71 71 71 70
22 24 25 25 24 24 25 24 23 23 21 22 23 23 23 24 25 26 27 29 30 31 32 33 34 35 36 38 39 41 42 43 45 47 51 55 60 64 68 71 70 69 68 69
22 21 22 22 22 22 22 22 23 23 21 24 25 25 26 26 27 28 28 29 30 31 32 33 34 36 38 39 40 41 43 45 47 51 55 60 64 68 70 69 67 66 68 71
21 21 21 20 22 23 24 24 25 26 27 29 28 27 28 29 28 28 28 29 30 31 32 34 35 37 38 40 41 43 44 47 51 55 60 64 67 68 67 65 65 67 72 77
22 21 20 20 20 23 24 24 26 27 29 31 29 30 30 29 29 29 29 30 31 32 33 34 36 38 39 41 42 44 46 50 54 59 63 66 67 65 64 64 67 72 77 83
22 21 21 21 21 21 22 22 25 26 28 28 28 30 28 28 29 29 29 30 30 31 33 35 37 38 39 41 43 46 49 54 58 62 64 65 63 62 63 67 72 77 82 88
20 20 19 18 19 20 19 19 22 24 24 25 26 26 25 27 28 28 28 29 31 33 34 36 37 38 39 41 45 49 53 57 61 63 62 61 61 63 67 72 77 81 87 92
17 16 15 16 17 17 17 19 21 22 22 23 24 25 25 25 26 27 28 30 32 33 35 35 36 38 41 44 48 52 56 59 60 59 58 59 62 67 72 77 81 86 91 96
17 15 16 16 16 17 17 18 20 20 21 22 22 23 25 26 27 28 30 30 32 32 33 35 37 40 43 47 51 55 57 57 56 56 58 61 66 71 76 82 87 91 96 99
19 18 17 17 18 18 18 18 18 19 20 21 22 23 25 26 27 28 29 30 31 32 34 37 40 43 46 50 53 54 53 53 54 56 60 65 71 76 81 86 91 95 98 98
18 18 18 18 18 17 16 16 16 17 17 18 19 21 22 24 26 27 29 30 32 34 37 39 42 46 49 51 51 50 51 52 55 59 63 69 74 80 85 90 95 98 97 93
16 17 17 16 15 13 13 12 13 14 15 17 19 21 23 25 27 29 31 33 34 36 39 42 45 47 48 47 47 48 50 54 58 63 68 73 78 83 88 93 96 96 91 85
15 14 14 13 12 12 12 13 14 16 18 20 22 24 26 28 29 31 32 34 36 38 41 44 46 45 45 45 46 49 53 57 62 67 73 78 83 87 90 93 94 89 82 77
15 14 14 13 13 13 14 16 18 20 22 24 26 28 29 30 31 32 34 36 38 41 43 43 42 42 43 44 47 52 56 61 67 72 78 82 87 91 94 94 89 80 74 73
15 16 16 16 17 18 20 22 23 25 27 29 30 31 31 32 32 34 36 38 40 41 40 40 40 41 43 46 51 56 61 66 72 77 82 86 89 92 93 89 82 75 71 69
20 20 20 21 23 24 26 28 29 30 31 31 31 32 32 33 34 36 38 39 38 38 38 38 39 42 46 50 55 61 66 71 76 81 84 88 90 91 88 81 74 71 69 65
26 26 27 28 29 30 30 31 31 31 31 31 31 32 33 34 35 36 37 36 36 36 37 39 42 46 50 55 61 66 71 76 80 83 86 89 90 87 80 73 70 68 65 59
29 30 30 31 31 31 31 30 30 30 31 31 31 32 33 34 35 35 35 35 35 37 39 42 46 51 55 61 66 71 75 79 82 85 87 88 86 79 72 70 68 64 58 51
29 29 29 29 29 29 30 30 30 30 30 31 32 32 34 35 35 34 34 35 37 39 43 47 51 56 61 66 71 75 78 81 83 86 87 85 79 72 69 67 63 58 51 43
27 27 27 28 28 28 29 29 29 30 31 31 32 33 34 34 34 34 35 37 40 44 48 52 56 61 66 71 74 77 80 82 84 86 84 78 71 68 66 62 56 49 42 36
26 26 27 27 27 28 28 29 30 31 31 32 33 33 33 34 34 36 38 41 45 48 52 57 62 66 71 74 76 78 80 83 84 83 77 70 67 65 60 54 48 42 35 28
25 26 26 27 28 28 29 30 31 32 32 32 32 33 33 35 36 39 42 45 49 53 58 62 66 70 73 75 77 79 81 83 81 75 69 66 64 59 53 47 41 35 28 20
26 27 28 28 29 30 30 31 31 31 31 32 33 34 35 38 40 43 46 50 54 58 62 66 70 72 74 75 78 80 82 80 74 68 65 63 58 52 46 41 35 28 19 12
28 29 29 30 30 30 31 31 31 31 32 33 35 37 39 41 44 47 51 55 59 63 66 69 71 72 74 76 79 80 78 72 67 65 63 57 51 46 40 35 28 19 10 3
28 29 29 30 30 30 30 30 31 33 34 35 37 40 42 45 48 52 56 59 63 66 68 70 71 73 75 78 79 76 70 66 64 62 56 50 45 40 34 28 19 9 1 7
26 27 27 27 28 29 30 31 32 34 36 38 40 43 46 50 53 56 59 62 65 67 68 69 71 74 76 77 74 68 65 63 60 55 50 45 40 34 27 18 7 3 10 15
24 25 26 27 29 30 31 33 35 37 39 42 45 48 51 54 57 59 61 63 65 66 68 70 72 74 75 71 66 64 62 58 53 48 44 40 34 27 17 6 5 14 18 21

GEFSNGP_500_meanwind_024.txt.gz
Wind_Speed
5 9 13 18 22 27 27 22 20 22 25 26 25 25 25 24 23 21 20 19 19 19 19 20 21 22 24 26 28 30 32 34 36 38 41 43 46 48 50 52 55 58 61 64
7 9 13 14 18 21 21 20 21 24 26 26 25 25 24 22 21 20 19 19 19 19 19 20 21 22 25 27 29 31 33 35 37 40 43 45 47 49 52 54 57 61 63 64
9 9 10 10 13 16 17 20 23 24 22 21 21 21 21 20 19 18 18 18 18 18 19 20 21 24 26 28 30 32 34 37 39 42 44 46 48 51 53 56 59 62 63 63
11 11 10 10 13 16 17 19 20 19 19 19 19 20 20 19 18 17 17 17 17 18 19 21 23 25 26 28 31 33 36 39 41 43 46 48 50 53 55 58 60 60 61 63
11 11 11 12 14 15 16 18 18 18 17 18 18 18 17 17 17 17 17 17 18 19 21 22 24 25 27 30 32 35 38 40 42 45 47 49 52 54 57 58 58 60 62 66
10 11 10 10 11 12 13 15 16 16 16 16 16 16 15 17 17 17 18 19 20 21 22 23 25 27 29 32 34 37 39 41 43 45 48 51 53 55 56 56 58 61 65 70
8 8 8 9 9 10 12 14 15 16 16 16 16 17 18 18 18 18 18 19 20 21 22 24 26 28 31 33 36 38 40 42 44 47 50 52 53 54 55 56 59 64 69 76
9 9 9 9 10 11 12 13 14 15 15 16 16 17 17 17 17 17 18 19 20 21 23 25 27 30 32 34 36 38 41 43 46 48 50 51 52 53 55 58 62 68 73 80
12 12 11 11 12 12 12 12 13 14 14 14 14 15 15 15 16 16 17 18 20 22 24 27 29 31 33 35 37 39 41 44 46 48 49 50 52 54 57 62 67 72 78 84
12 12 12 12 13 13 12 12 12 13 13 13 13 13 13 14 15 16 17 19 21 23 25 27 29 31 33 35 37 40 42 44 46 47 49 50 53 56 61 66 72 78 83 88
13 13 13 13 13 13 12 12 12 12 12 12 12 13 13 13 14 16 18 19 22 24 26 28 30 32 34 36 38 41 43 44 45 47 48 51 55 60 66 72 78 83 88 92
15 15 15 14 14 13 13 12 12 12 12 12 12 12 12 13 15 17 19 21 23 25 27 29 30 32 35 38 40 41 43 44 45 47 50 54 59 65 71 77 83 88 91 94
15 15 14 14 14 14 13 12 12 11 11 11 11 11 13 14 16 18 20 22 24 26 28 30 32 34 37 39 40 41 42 43 46 49 53 58 63 69 74 80 85 89 92 94
15 15 14 14 13 13 13 12 11 10 10 10 11 13 15 17 19 21 23 24 26 28 30 32 34 36 38 39 40 41 42 45 48 53 57 62 68 73 78 82 86 89 91 89
14 14 13 13 12 12 11 11 10 10 11 13 15 17 19 20 22 23 25 26 27 29 31 33 35 37 38 39 39 41 44 48 52 57 62 67 72 77 82 85 88 89 87 81
14 13 13 12 12 12 12 12 12 14 15 17 18 20 21 22 23 25 26 27 28 30 32 34 36 37 37 38 40 43 47 52 56 61 67 72 76 80 84 86 88 86 80 72
13 13 13 13 13 14 15 16 17 18 20 21 21 22 23 23 24 25 26 28 30 32 34 35 36 36 38 40 43 47 51 56 61 66 71 75 79 82 85 87 85 79 71 64
15 14 15 16 17 18 19 20 21 22 22 23 23 23 24 24 25 26 27 29 31 33 34 35 36 37 39 43 46 51 55 60 65 69 74 78 81 84 86 84 78 70 62 55
18 19 19 20 20 21 21 22 23 23 23 23 23 23 24 24 26 27 29 31 32 33 34 35 36 39 42 46 50 54 59 63 68 73 77 80 83 85 83 77 69 62 54 45
21 21 21 21 22 22 22 22 23 23 23 23 23 24 24 25 27 29 30 31 31 32 33 35 38 41 45 49 54 58 62 67 71 75 79 81 83 82 76 68 61 53 44 35
22 22 22 22 22 23 23 23 23 23 23 23 23 24 25 27 28 29 29 30 31 32 34 37 41 44 49 53 57 62 66 70 74 78 80 82 80 75 67 60 52 43 34 25
23 23 23 23 23 23 23 23 23 23 23 24 24 25 26 27 28 28 29 30 31 34 37 40 44 48 53 57 61 65 69 73 76 79 81 80 74 66 59 52 43 34 25 15
23 23 23 23 23 23 23 23 23 23 24 24 25 25 26 26 27 28 29 30 33 36 40 44 48 52 56 60 64 68 72 75 78 80 78 73 66 59 51 43 34 24 14 6
21 22 22 22 22 22 22 23 23 23 24 24 24 24 24 25 26 28 30 33 36 40 44 48 52 56 60 64 67 71 74 77 78 77 72 65 58 51 43 33 23 13 3 4
21 21 22 22 22 22 22 22 22 22 22 21 22 22 24 26 28 30 34 37 41 44 48 52 55 59 63 66 70 73 76 77 75 70 63 57 50 42 33 22 11 2 7 12
21 21 21 21 20 20 20 19 19 19 20 21 22 24 26 28 31 34 38 41 45 48 52 55 59 62 65 69 72 74 75 73 68 61 56 49 41 32 21 10 3 10 15 17
20 19 19 19 18 18 18 19 19 20 21 23 25 27 30 33 36 39 42 45 49 52 55 58 61 64 67 70 73 73 71 66 59 54 47 39 31 21 8 5 13 17 19 19

GEFSNGP_500_meanwind_030.txt.gz
Wind_Speed
16 17 18 19 18 18 18 17 14 6 9 17 20 25 30 33 35 36 35 34 34 34 33 33 33 32 31 30 30 29 29 29 30 31 33 35 38 40 42 44 47 50 53 55
13 14 14 14 12 9 6 4 1 9 16 20 24 27 30 31 33 33 32 31 30 30 30 30 30 29 28 28 28 28 28 29 30 32 34 36 38 41 43 46 49 52 55 57
12 13 13 13 11 7 4 6 11 17 22 23 25 26 27 29 30 30 29 28 28 28 28 28 27 26 26 26 26 26 27 29 31 32 34 37 39 42 45 49 51 54 56 59
11 13 15 13 10 8 10 13 17 21 23 24 25 25 26 26 26 26 26 26 26 25 25 24 24 23 23 24 24 26 28 29 31 33 35 38 41 44 47 50 53 55 58 61
9 12 12 12 12 11 13 17 20 22 23 24 25 23 23 23 22 22 22 22 22 21 21 21 20 21 21 23 25 26 28 29 31 34 37 40 43 46 48 51 54 57 59 61
6 8 9 10 11 13 14 16 18 19 19 21 21 21 20 20 19 19 18 18 18 18 18 18 19 20 22 23 24 26 28 30 33 36 39 41 44 47 50 53 55 58 59 60
2 4 6 7 8 9 11 13 12 13 14 14 15 15 16 16 16 16 15 15 16 16 17 18 19 20 21 23 25 27 29 32 35 38 40 42 45 48 51 54 55 56 57 60
2 0 2 3 4 5 7 8 8 8 9 9 10 10 11 11 12 12 13 14 16 16 17 18 19 20 22 24 26 28 31 34 36 38 41 44 46 49 51 53 53 55 57 62
5 4 3 2 1 3 4 5 6 7 8 9 9 9 9 10 11 12 13 14 15 15 16 17 19 20 22 25 27 29 32 34 36 39 42 45 47 49 50 51 53 56 60 65
9 8 7 5 4 4 4 4 5 5 7 8 8 8 9 10 11 12 12 13 14 15 16 17 19 21 23 26 28 30 33 35 37 40 43 45 47 48 49 52 56 60 64 68
11 10 9 7 6 6 5 5 5 6 6 7 7 8 9 10 10 11 11 12 13 14 16 18 20 22 25 27 29 31 33 36 39 41 43 44 45 47 51 55 59 63 68 73
11 10 9 8 7 6 6 6 6 6 6 7 7 8 9 9 10 11 11 12 14 15 17 20 22 24 26 28 30 32 35 38 40 41 42 43 46 49 54 58 63 68 74 79
12 11 10 10 8 8 8 8 8 7 7 8 8 8 9 9 10 11 12 14 16 18 20 22 24 26 28 30 32 34 36 38 39 40 41 44 47 51 56 61 68 73 79 83
14 13 12 12 10 9 9 9 9 8 8 7 8 8 9 9 10 12 14 16 18 21 23 24 26 27 29 31 33 35 36 37 38 40 43 46 50 55 60 64 70 76 82 86
13 13 13 12 12 11 10 10 10 9 8 8 8 9 10 11 13 15 18 19 21 23 24 25 27 28 30 32 34 35 36 37 39 42 45 49 54 59 65 70 75 80 85 87
12 12 12 12 12 11 11 11 10 10 10 10 10 11 13 15 17 19 20 22 23 24 25 26 28 30 31 33 34 34 35 38 41 44 49 54 59 64 70 75 80 84 86 83
11 11 12 12 12 11 10 10 10 11 11 12 14 15 17 18 20 21 22 23 24 25 26 28 29 31 32 32 33 34 37 40 44 48 53 58 64 69 74 79 83 86 83 77
11 11 12 12 12 11 11 11 12 13 14 16 17 19 20 21 22 22 23 24 25 26 28 29 30 30 31 32 34 36 39 43 48 53 58 63 69 74 78 82 85 82 74 65
13 13 13 13 13 14 14 15 16 17 18 19 20 20 21 22 23 23 24 25 26 27 28 29 30 30 31 33 35 39 43 48 52 57 63 68 73 78 81 83 80 73 63 52
15 15 15 16 16 17 17 18 19 20 20 21 21 22 22 23 24 25 25 26 27 28 28 29 30 31 32 35 38 43 47 52 57 62 67 72 76 80 82 79 72 61 51 39
18 18 18 18 19 20 20 21 21 21 21 21 22 22 23 24 25 25 26 27 27 28 28 29 30 32 35 38 42 47 51 56 61 66 71 75 78 80 78 70 60 49 38 27
20 20 20 21 21 21 21 22 22 22 22 22 23 23 24 24 25 26 26 27 27 27 28 29 32 34 38 42 46 51 55 60 65 70 74 77 79 76 69 58 48 38 26 16
20 21 21 21 21 22 22 22 22 22 23 23 23 23 24 25 25 26 26 26 26 27 29 31 34 38 42 46 50 55 59 64 69 72 75 77 75 68 57 46 37 26 15 7
21 22 22 22 22 22 22 23 23 23 23 23 23 23 24 25 25 25 25 25 26 29 31 34 38 42 46 50 54 58 62 67 71 74 76 74 67 56 45 36 26 14 6 4
21 21 21 21 22 22 22 22 22 22 23 23 23 24 24 24 24 24 24 26 28 31 34 37 41 46 50 53 57 61 65 69 72 74 73 66 55 45 35 25 14 4 5 7
22 22 22 22 22 22 22 22 22 23 23 23 23 23 23 23 23 24 26 28 31 34 38 41 45 49 53 56 60 64 67 71 73 72 65 55 44 34 24 14 4 5 8 8
24 24 24 24 24 24 24 24 24 23 23 23 23 23 23 23 24 26 29 32 35 38 41 45 49 52 55 58 62 66 69 72 71 65 55 44 34 24 13 4 5 8 9 9

GEFSNGP_500_meanwind_036.txt.gz
Wind_Speed
11 14 16 17 19 21 23 24 24 20 20 18 17 16 15 16 19 22 29 35 41 42 42 41 40 41 42 42 41 40 39 38 37 37 37 37 37 37 37 38 39 41 43 46
8 10 11 13 16 17 17 17 17 16 14 12 9 6 4 7 12 17 24 31 35 37 37 37 37 38 39 39 38 37 36 36 35 35 35 36 36 36 37 38 40 42 45 48
4 6 8 11 13 13 14 14 12 11 9 7 5 4 6 8 11 17 23 28 31 32 33 34 34 34 35 35 34 34 33 33 33 33 34 34 34 35 37 39 41 44 47 50
1 3 8 10 12 11 11 10 9 8 8 7 9 9 10 12 15 18 21 24 26 27 28 29 29 30 30 30 30 30 30 30 31 31 31 32 33 35 37 40 43 46 49 51
2 5 7 8 9 8 9 9 8 8 9 10 11 11 13 15 16 18 20 21 22 23 23 24 25 25 25 26 26 26 27 27 27 28 29 31 33 36 38 41 44 47 50 52
2 4 6 7 7 6 7 8 9 8 8 10 11 12 15 15 16 17 17 18 19 19 20 20 21 21 22 22 23 23 23 24 25 27 29 31 34 37 40 43 45 48 50 53
0 2 4 6 5 5 6 7 7 8 9 9 10 11 12 13 13 14 14 14 14 15 16 16 17 18 18 19 19 20 21 22 24 27 29 32 35 38 41 43 46 48 51 53
2 0 2 3 4 4 5 5 5 5 6 7 8 8 10 10 11 11 11 12 12 12 12 13 13 14 14 15 17 18 20 23 25 28 31 34 36 39 41 44 46 49 51 53
4 2 1 1 1 2 2 2 2 3 4 3 4 5 6 7 7 8 8 9 9 9 9 9 10 11 13 14 16 19 21 24 26 29 31 34 36 39 42 44 47 48 50 52
5 4 3 2 2 1 1 1 1 1 1 1 2 3 4 4 5 5 5 5 6 6 7 8 9 11 13 15 17 19 22 24 27 29 32 35 37 40 42 44 46 48 50 54
7 6 5 4 4 3 3 2 2 2 2 1 1 2 2 3 3 4 4 4 5 6 7 8 10 11 13 16 18 21 23 25 28 30 33 36 38 41 42 44 46 49 53 57
8 7 6 6 5 5 4 4 4 3 3 2 2 2 2 2 3 3 4 5 5 6 7 9 10 13 15 17 20 22 24 27 29 32 34 37 39 40 42 45 48 52 57 63
9 8 8 7 7 7 6 6 5 4 4 4 3 3 3 3 3 3 4 5 6 7 9 11 13 15 17 19 21 23 26 28 30 33 35 36 38 41 44 48 53 58 63 68
11 10 10 9 9 8 7 6 5 5 5 5 4 4 4 4 4 5 5 7 8 10 11 13 15 17 19 21 23 25 27 29 31 33 35 37 39 42 46 51 56 62 68 73
12 11 10 10 9 9 8 7 7 6 6 6 5 5 5 5 5 6 7 9 11 12 13 15 17 19 21 22 24 26 28 30 31 33 35 38 41 46 50 55 61 66 71 74
12 12 11 11 11 11 10 9 8 8 8 7 6 6 5 5 6 8 10 11 13 14 16 17 19 20 22 24 26 27 29 30 32 34 37 41 45 50 55 61 66 70 73 74
12 12 12 11 11 11 11 10 9 9 9 8 7 7 8 8 10 11 12 14 15 17 18 19 20 22 24 25 27 28 29 31 33 37 41 45 50 55 60 65 69 71 72 72
12 12 12 12 12 12 12 11 10 10 10 10 10 10 10 11 12 13 15 16 17 18 19 20 22 23 24 25 27 28 30 32 36 40 45 49 54 59 64 68 69 70 69 66
12 12 12 12 12 12 13 12 12 12 11 11 12 12 13 14 15 16 17 18 19 20 21 22 23 23 24 26 27 29 32 36 40 44 49 53 58 63 67 68 68 68 64 55
13 13 13 13 14 14 14 14 14 14 14 14 14 14 15 16 17 18 19 19 20 20 21 22 23 24 25 26 28 31 35 39 43 48 52 57 62 66 67 67 67 63 53 41
15 15 16 16 16 16 15 16 16 16 16 16 16 17 17 18 19 19 20 20 20 20 21 22 23 24 26 28 31 35 39 43 47 52 56 61 65 67 67 65 61 53 41 29
16 17 17 18 18 18 18 18 18 18 18 18 18 18 19 19 19 20 20 20 20 21 22 23 24 25 28 31 34 38 42 46 51 55 60 64 66 66 64 60 52 40 29 18
17 18 18 19 19 19 20 19 19 19 19 19 19 20 20 20 20 20 20 20 21 21 22 23 25 27 30 33 38 41 45 50 54 58 63 65 66 64 59 51 40 28 18 10
19 19 19 20 20 20 20 21 21 21 20 20 20 20 20 20 20 20 20 21 21 22 23 24 26 29 33 37 41 45 49 53 57 62 65 65 64 58 50 40 28 17 9 4
21 21 20 20 21 21 21 21 21 21 21 20 20 20 20 20 20 21 21 21 21 22 24 26 29 32 36 40 44 48 52 56 60 64 64 63 58 50 40 28 17 9 4 2
24 24 23 23 23 22 22 21 21 21 21 21 21 21 21 21 21 21 21 21 22 23 25 28 31 35 39 42 46 51 54 59 63 64 63 59 51 40 28 17 8 3 2 2
27 26 25 25 24 23 23 22 22 22 22 22 22 21 22 21 21 21 21 22 23 25 27 30 34 37 41 45 49 53 57 61 63 62 59 52 41 28 18 9 3 1 1 1

GEFSNGP_500_meanwind_042.txt.gz
Wind_Speed
19 20 19 17 18 20 21 23 25 24 26 27 30 33 34 34 34 33 31 28 26 25 25 26 28 31 34 36 37 37 38 38 37 37 36 36 35 35 35 36 38 39 41 42
17 17 16 15 16 16 17 20 22 23 24 26 28 28 29 28 26 24 22 17 15 14 16 19 23 27 30 32 33 34 34 34 33 33 32 32 33 33 34 36 37 39 41 43
14 14 13 12 13 14 15 16 18 20 22 23 24 24 23 23 21 16 11 5 3 7 12 16 19 24 27 29 30 30 29 29 29 29 29 29 30 31 33 35 37 40 42 44
12 12 11 9 10 10 12 13 15 18 20 22 23 21 20 20 18 15 10 8 10 11 13 15 18 22 24 25 25 25 25 24 24 25 25 27 28 30 33 35 38 40 41 43
10 9 9 7 7 8 10 11 13 15 17 20 20 20 19 19 18 17 17 16 16 16 17 18 19 19 20 20 20 19 19 19 20 21 23 26 28 31 34 36 37 39 40 43
9 8 7 6 6 7 9 9 11 12 15 17 19 18 18 18 17 17 17 17 18 18 18 18 18 17 16 15 14 14 14 15 18 21 24 26 28 30 32 35 36 39 41 44
9 8 6 5 6 6 7 9 10 12 14 14 15 16 16 15 16 15 15 15 15 16 16 16 16 15 13 12 11 12 14 17 19 21 24 26 27 30 32 34 37 39 42 45
9 8 6 5 6 6 7 9 10 10 12 12 13 13 13 12 12 12 13 13 13 13 13 13 12 12 12 12 13 14 16 17 19 21 23 25 27 30 32 34 37 40 43 45
9 8 7 6 6 7 7 8 9 9 9 10 10 10 10 10 10 10 9 9 10 10 10 10 9 9 10 10 11 12 14 16 18 20 23 25 27 30 32 35 38 41 43 45
10 9 8 7 7 7 7 8 8 8 8 8 8 7 7 8 8 8 7 7 6 6 5 5 5 5 6 7 8 10 13 15 17 20 22 25 28 31 33 36 38 40 42 44
10 9 9 8 8 7 7 7 8 8 7 7 7 5 5 5 5 6 6 5 4 4 3 2 1 2 3 6 8 10 13 16 18 21 24 27 29 32 34 36 37 40 43 46
11 10 10 10 9 9 8 8 8 8 7 6 5 4 3 3 3 3 3 3 3 2 1 1 2 4 6 8 11 13 15 18 20 23 25 28 30 32 34 36 38 42 45 50
12 11 11 11 11 10 10 10 9 8 7 6 5 4 3 2 2 2 2 2 2 2 3 4 6 8 9 11 13 15 17 20 22 24 26 28 30 32 34 38 41 45 49 54
14 13 12 12 11 11 11 10 9 8 7 6 5 5 4 4 4 3 3 4 5 5 6 7 9 10 12 14 16 17 19 21 23 25 27 28 30 33 37 41 45 50 54 59
16 15 14 14 13 12 12 11 10 8 7 7 7 6 6 5 5 5 6 6 6 7 8 10 11 13 15 16 18 19 21 23 24 26 27 29 32 36 40 44 49 53 58 63
17 17 16 15 14 13 12 12 11 10 9 8 8 8 7 7 7 7 8 8 8 10 11 13 14 16 17 18 20 21 22 23 25 26 28 32 35 39 44 48 53 57 62 65
17 17 16 16 15 14 13 13 12 12 11 10 10 9 9 9 9 9 10 10 11 13 14 15 17 18 19 20 21 22 23 24 26 28 31 35 38 43 47 52 56 61 64 65
17 16 16 15 15 15 15 14 14 13 13 12 12 11 11 11 11 12 12 13 14 15 17 18 19 20 20 21 22 23 24 25 27 30 34 38 42 46 51 55 60 63 65 64
15 15 15 15 14 15 14 14 14 14 14 14 13 13 13 13 13 14 15 15 16 17 19 19 20 21 21 22 23 24 25 27 30 33 37 41 46 50 54 58 62 63 62 58
14 15 16 15 15 15 15 14 14 15 15 15 15 15 15 15 16 16 17 17 18 19 20 20 21 21 22 23 24 25 27 29 32 36 40 44 49 53 57 60 62 61 57 50
15 15 16 16 16 16 16 16 15 15 16 16 16 17 17 17 18 18 19 19 20 20 21 21 22 22 23 24 25 26 28 31 35 38 43 47 51 55 59 61 60 57 50 40
16 16 17 17 17 17 17 17 17 17 18 18 18 18 18 18 19 19 19 20 21 21 21 22 22 23 24 25 26 28 30 33 37 41 45 49 53 56 59 60 57 50 41 31
18 18 18 18 18 18 18 18 18 19 19 19 19 19 19 20 20 20 20 21 21 22 22 22 23 23 24 26 27 29 32 36 39 43 47 51 55 57 59 57 51 42 33 24
20 20 20 20 20 20 20 20 21 20 20 20 20 20 21 21 21 21 21 22 22 22 23 23 24 24 25 27 29 31 34 38 41 45 49 53 56 58 57 53 44 35 26 19
23 23 23 23 23 23 23 23 23 23 22 21 21 22 22 22 22 22 22 23 23 23 24 24 25 26 27 28 30 33 36 40 43 47 51 54 56 57 54 47 37 28 20 16
26 26 26 26 26 26 25 25 25 24 24 24 24 23 23 23 23 23 23 24 24 24 25 25 26 27 28 30 32 35 38 41 45 49 53 55 57 55 49 41 30 22 17 14
30 30 29 29 28 28 28 27 27 26 26 26 25 25 25 24 24 24 25 25 25 25 26 26 27 28 29 31 34 37 40 43 47 51 54 56 56 52 44 34 25 19 15 12

GEFSNGP_500_meanwind_048.txt.gz
Wind_Speed
17 16 15 15 15 16 15 15 13 12 13 14 16 18 21 24 27 31 33 34 32 32 31 28 26 25 25 27 28 30 33 35 36 38 41 41 40 39 37 36 35 34 34 34
16 15 14 14 14 14 13 12 11 10 10 12 14 17 19 22 25 28 29 28 26 24 22 18 16 15 15 17 20 23 26 28 29 31 34 34 33 32 32 31 31 31 31 31
15 14 13 12 12 11 10 10 10 9 9 10 13 16 17 20 22 24 24 23 22 19 15 11 8 8 8 11 14 18 20 23 24 26 27 28 28 27 27 27 27 27 28 29
14 12 11 10 10 9 8 8 8 8 8 10 12 14 16 18 19 20 21 20 18 16 12 9 4 1 5 8 12 15 17 19 21 22 23 22 22 22 22 23 24 25 27 30
13 11 10 9 8 8 8 8 7 7 8 11 12 13 15 16 17 18 18 17 16 14 12 10 8 8 9 11 14 15 17 18 19 19 19 19 18 19 19 21 22 25 30 34
12 11 10 9 8 7 7 7 6 7 8 10 11 11 12 13 14 15 15 15 14 12 11 11 11 12 12 14 15 15 16 16 16 16 16 16 17 18 20 23 26 29 31 34
12 11 10 9 8 7 7 6 6 7 7 8 9 10 10 11 12 12 12 12 11 11 11 11 11 12 12 13 14 14 14 14 13 13 13 14 16 18 20 23 26 28 30 34
13 12 11 9 9 8 7 7 6 6 7 8 9 9 9 9 10 10 10 9 9 9 10 10 10 11 11 11 11 10 9 9 10 10 11 13 16 18 20 23 26 29 32 35
14 13 12 11 10 9 8 7 7 7 7 8 8 8 8 8 9 9 9 8 7 7 7 7 8 7 7 7 6 5 4 5 6 7 10 12 15 17 21 24 27 30 32 35
14 13 13 12 10 9 9 8 7 7 8 8 8 8 7 7 7 7 7 7 6 5 5 5 5 5 4 3 2 0 2 4 6 8 11 13 16 19 22 25 28 30 33 35
15 14 13 12 12 10 9 9 8 8 8 8 8 8 7 6 6 6 6 6 5 5 4 4 4 4 4 3 4 4 6 7 9 11 13 16 18 21 24 26 28 30 33 37
16 15 14 13 13 11 10 9 9 8 8 8 8 8 7 7 7 6 6 5 5 5 5 5 5 5 5 5 6 8 9 11 13 14 16 18 20 22 24 27 29 32 35 39
17 17 15 14 13 12 11 10 10 10 9 9 8 8 7 7 7 6 6 5 6 6 6 6 7 7 7 8 10 11 13 14 15 17 18 20 22 24 26 28 31 34 38 42
18 17 16 16 15 14 12 11 11 11 10 10 9 9 9 8 7 7 6 6 7 7 7 8 8 9 10 11 13 14 15 16 17 19 20 22 24 26 28 31 34 37 41 45
19 18 17 17 16 15 14 13 13 12 11 11 10 10 9 9 8 8 8 8 8 9 9 10 11 12 13 14 15 16 17 18 19 21 22 24 26 28 30 33 37 40 44 48
19 19 18 18 18 17 15 15 14 14 13 12 12 11 11 10 10 10 10 10 11 11 11 12 13 14 16 17 18 18 19 20 22 23 24 26 28 30 33 36 39 43 46 50
19 20 20 20 19 18 17 16 16 15 14 14 13 12 12 12 12 12 12 12 12 13 14 14 15 17 18 19 19 20 21 22 24 25 26 28 30 33 36 39 42 46 49 52
19 19 20 20 20 19 18 17 17 16 16 16 15 15 14 14 13 13 13 14 14 15 16 16 18 19 20 20 21 22 23 24 25 27 28 30 32 35 38 41 45 48 50 53
17 18 18 19 19 19 18 17 17 17 17 17 16 16 16 15 15 15 15 15 16 16 17 18 20 20 21 22 23 24 25 26 27 28 30 32 35 37 40 43 47 49 52 53
16 16 17 18 18 18 18 17 17 17 17 17 17 17 16 16 16 16 17 17 18 18 19 20 21 22 22 23 24 25 26 27 29 30 32 34 36 39 42 45 48 51 52 52
15 15 16 17 17 18 18 18 18 17 17 17 17 17 17 17 18 18 19 19 20 20 21 21 22 23 23 24 26 27 28 29 30 32 34 36 38 41 44 47 49 51 52 50
16 16 16 16 17 18 18 19 19 18 19 18 18 18 18 19 19 20 20 20 21 21 22 22 23 24 25 26 27 28 29 30 32 34 35 37 40 43 45 48 49 50 51 47
17 18 18 18 18 19 19 20 20 20 21 21 20 20 21 20 20 21 21 22 22 22 23 23 24 25 26 27 28 29 30 32 33 35 36 39 41 44 46 48 50 50 48 43
19 20 20 20 21 21 22 22 22 23 22 22 21 21 22 21 21 22 22 23 23 23 24 25 26 26 27 28 29 30 31 33 34 36 38 40 42 44 47 49 50 49 45 40
22 23 23 23 23 23 23 23 23 23 23 23 23 23 23 23 23 24 24 25 25 25 26 26 27 27 28 29 30 31 32 33 35 37 38 40 42 45 48 49 49 46 41 37
26 26 26 26 27 27 26 26 26 25 25 25 26 26 26 26 26 26 26 26 26 26 27 27 28 28 29 30 31 31 33 34 35 37 38 40 43 47 48 49 46 42 38 34
31 30 31 31 31 30 30 30 30 30 29 29 29 29 28 28 27 27 27 27 27 27 27 28 29 29 30 30 31 32 33 34 36 37 38 41 44 47 47 46 43 39 35 31

GEFSNGP_500_meanwind_054.txt.gz
Wind_Speed
16 16 15 15 16 16 16 15 15 16 17 18 17 16 17 17 18 19 21 22 24 26 28 30 32 33 34 33 31 30 30 29 29 31 32 32 33 35 37 38 39 40 40 41
16 16 16 16 16 16 15 15 15 15 16 16 16 16 16 15 16 17 19 20 21 23 25 26 27 28 28 27 25 23 22 20 19 19 20 22 24 26 28 30 31 32 33 34
16 16 16 16 16 15 15 15 15 14 14 14 15 15 15 15 15 16 17 18 19 20 22 22 23 24 24 23 21 18 16 13 11 11 12 14 16 18 21 22 24 25 26 28
17 17 16 15 15 15 14 14 13 13 13 13 13 13 13 13 14 15 15 15 16 17 19 19 20 21 21 20 18 16 12 9 5 4 6 8 10 13 16 18 19 21 23 24
17 17 16 15 14 14 14 13 12 11 11 11 11 12 12 12 13 14 14 14 14 15 16 16 17 18 18 17 15 14 11 9 6 3 2 4 6 8 11 14 15 17 19 22
17 16 15 14 13 13 13 12 11 10 10 10 10 10 11 11 12 13 13 13 13 13 13 14 14 15 15 15 14 12 10 9 7 4 2 0 3 6 8 10 13 15 16 19
17 16 15 14 13 13 12 11 10 10 10 10 10 10 10 11 12 12 12 11 11 11 12 12 12 12 13 13 12 11 10 9 7 5 3 1 1 3 6 8 10 12 15 18
17 16 15 14 13 13 12 11 11 10 10 10 10 11 11 12 12 11 11 11 10 10 10 10 10 11 11 11 11 10 10 9 8 7 5 3 4 5 7 8 10 13 16 19
16 16 15 15 14 14 13 12 12 11 11 11 11 12 12 12 11 11 10 10 10 10 10 10 10 10 10 10 10 10 9 9 9 8 7 7 7 8 9 11 13 15 18 20
16 16 16 16 15 14 14 13 13 12 12 12 12 12 12 11 11 11 10 10 10 9 9 9 9 9 9 9 9 10 10 9 9 9 9 9 10 11 13 14 16 17 20 22
17 17 17 17 16 15 15 14 14 14 13 13 12 12 12 11 11 11 11 10 10 9 8 8 8 8 8 9 9 10 11 11 11 11 12 12 13 14 15 16 18 20 22 25
19 19 18 18 17 16 16 15 15 14 14 13 13 12 12 12 11 11 11 10 10 9 9 9 8 8 9 10 11 11 12 13 13 14 14 14 15 17 18 19 21 23 26 28
19 20 20 19 18 18 17 16 16 15 14 14 13 13 12 12 12 11 11 10 9 9 9 9 9 10 11 11 12 13 14 14 15 15 16 17 18 19 21 22 24 26 29 31
21 21 20 20 20 19 19 18 17 16 15 15 14 14 13 13 12 12 11 10 10 10 10 11 11 11 12 13 14 15 16 16 17 17 18 19 21 22 23 25 27 29 31 34
22 21 21 21 21 21 20 20 19 18 17 16 15 15 14 14 13 13 12 12 12 12 12 12 13 13 14 15 15 16 17 18 19 19 20 22 23 24 26 28 29 32 34 37
22 21 21 22 22 22 21 21 21 20 18 17 17 16 16 15 15 14 14 14 14 14 14 14 15 15 16 17 17 18 19 20 21 22 23 24 26 27 29 30 32 34 37 39
21 21 21 21 21 21 21 21 21 21 20 19 18 18 17 17 16 16 16 16 16 16 16 16 17 17 17 18 19 20 21 22 23 24 25 27 28 29 31 32 34 37 39 41
20 21 21 21 21 21 22 22 22 22 21 21 20 20 19 18 18 18 18 17 17 17 18 18 18 18 19 20 21 22 23 24 25 26 27 28 29 31 33 34 37 39 40 42
19 20 20 21 22 22 22 22 22 22 22 22 21 21 20 20 20 19 19 19 19 19 19 19 20 20 21 21 22 23 24 25 26 27 28 30 31 33 34 36 38 40 42 43
19 19 19 20 21 21 21 22 22 22 22 22 21 21 21 20 20 20 20 20 20 20 20 21 21 21 22 23 24 25 25 26 27 28 30 31 32 34 36 38 39 41 42 44
18 18 19 19 19 20 20 21 21 21 21 21 21 20 20 20 20 20 20 20 20 21 21 22 22 22 23 24 25 26 26 27 28 30 31 32 34 35 37 39 40 41 43 46
17 17 18 18 19 19 20 20 20 20 21 21 21 21 20 20 20 21 21 21 21 22 22 23 23 24 24 25 26 26 27 29 30 31 32 33 35 36 38 39 40 42 44 47
17 18 18 19 19 19 20 20 21 21 21 22 22 22 22 22 22 22 23 23 23 23 23 24 24 25 25 26 27 27 29 30 31 32 33 34 36 37 39 40 41 43 45 47
16 17 18 19 20 21 21 22 22 22 23 23 23 24 24 24 24 25 25 25 25 25 25 25 25 26 27 27 28 29 30 31 32 33 34 35 36 38 39 40 42 44 46 47
18 18 19 19 20 21 22 23 23 24 24 25 25 26 26 26 26 26 26 26 27 27 27 27 28 28 28 28 29 30 31 31 32 33 34 35 37 38 39 40 43 45 45 45
21 21 22 23 23 24 25 25 25 26 26 27 28 28 29 29 29 29 29 29 28 29 29 29 29 29 29 29 29 30 31 32 33 34 35 36 37 39 39 41 43 44 44 44
25 25 26 26 27 27 28 29 29 30 30 31 31 31 31 32 32 31 31 31 31 31 31 31 31 31 30 30 30 31 32 33 33 34 35 36 38 39 40 41 42 42 43 43

GEFSNGP_500_meanwind_060.txt.gz
Wind_Speed
16 16 16 16 17 17 17 18 18 18 19 19 18 18 19 20 21 21 22 22 22 22 22 23 23 23 23 24 24 25 26 26 27 28 29 29 29 28 27 28 27 27 28 28
16 16 16 16 16 16 17 17 17 18 18 17 17 17 17 18 18 19 19 19 19 19 19 20 20 20 20 20 20 21 22 22 23 24 25 25 23 22 20 20 19 19 19 20
16 16 16 15 16 16 16 17 17 17 17 17 16 17 16 16 16 17 17 17 17 17 17 17 17 17 17 17 18 18 18 19 20 21 21 21 19 17 16 14 13 13 14 15
17 17 16 15 16 16 16 16 16 17 17 16 16 16 15 15 15 15 15 15 16 16 16 16 15 15 16 15 16 16 17 17 18 18 18 18 17 15 14 12 11 10 10 10
17 17 16 16 16 16 16 16 16 16 16 16 15 15 14 14 14 14 15 15 15 15 15 15 14 14 15 15 15 15 15 16 16 16 16 16 15 14 12 11 11 10 9 9
16 17 17 17 17 16 16 16 16 16 15 15 14 14 14 13 13 13 14 14 14 14 14 14 14 14 14 14 14 13 14 14 14 15 15 14 14 14 13 11 11 10 9 9
17 17 17 17 17 17 16 16 15 16 16 15 14 14 13 13 13 13 13 13 13 13 13 13 13 13 13 13 13 12 13 13 13 14 14 13 13 13 12 12 11 10 10 11
18 19 18 18 17 17 16 15 15 16 15 15 15 14 13 13 13 13 13 13 13 13 12 12 13 13 13 13 13 12 13 13 13 13 13 13 13 13 13 12 12 12 12 13
18 18 18 18 18 17 17 17 16 16 16 15 15 14 14 13 13 13 13 13 13 13 13 13 13 12 12 12 12 12 12 12 13 13 13 13 13 13 13 14 14 14 15 16
18 18 18 18 18 18 18 18 17 17 17 16 15 15 14 14 14 13 13 13 13 13 13 13 12 12 11 11 11 11 12 12 13 13 14 14 14 14 15 15 15 16 17 19
19 19 19 19 19 18 19 19 18 18 17 17 16 16 15 15 14 13 13 13 13 13 13 13 12 12 12 11 11 12 12 13 14 14 14 15 15 16 16 17 18 19 20 22
20 20 20 20 20 20 19 19 19 19 19 18 18 17 16 16 15 14 14 14 13 13 13 13 12 12 13 12 12 13 13 14 15 15 16 16 17 18 19 20 21 22 23 25
20 21 22 21 21 21 20 20 20 20 19 19 19 18 17 16 16 15 14 14 14 14 13 13 13 13 13 14 14 14 15 16 16 17 17 18 19 20 21 22 23 24 26 27
21 21 22 22 22 22 22 21 21 21 20 20 19 19 18 17 17 16 16 15 15 14 14 15 15 15 15 15 16 16 17 17 18 18 19 20 21 22 23 24 25 27 28 29
21 21 22 22 22 22 22 22 22 21 21 21 20 20 19 19 18 18 17 17 16 16 16 16 16 17 17 17 18 18 18 19 19 20 21 22 23 24 25 26 27 28 30 31
21 22 22 22 23 23 23 23 23 23 22 22 22 21 21 21 20 20 19 19 18 18 18 18 18 18 19 19 19 19 20 20 21 21 22 23 24 25 27 28 29 30 32 33
21 22 22 22 22 22 23 23 23 23 23 22 22 22 22 22 22 21 21 20 20 20 20 20 20 20 20 20 20 21 21 21 22 23 24 25 26 27 28 29 30 32 33 35
20 21 22 22 22 22 22 22 22 23 23 23 23 23 23 22 22 22 22 22 22 22 22 22 22 21 21 21 22 22 22 23 24 24 25 26 27 28 29 31 32 33 35 36
19 19 20 21 21 21 21 21 21 22 22 22 23 23 23 23 23 23 23 23 24 23 23 23 23 23 23 23 23 23 24 24 25 25 26 27 28 29 30 32 33 34 36 37
17 18 19 20 21 21 22 22 22 21 22 22 23 23 23 23 24 24 24 24 24 24 24 24 24 24 24 24 24 25 25 25 26 27 27 28 29 30 31 33 34 35 36 38
16 16 17 19 20 21 21 21 21 21 22 22 22 23 23 23 23 23 24 24 24 24 24 24 25 25 25 25 26 26 26 26 27 27 28 29 30 31 32 33 35 36 37 39
13 14 15 17 18 19 20 20 21 21 22 22 22 22 23 23 23 23 24 24 24 23 24 25 25 25 26 26 26 26 27 27 27 28 29 30 31 32 33 34 35 37 38 40
13 13 14 14 15 16 17 18 19 20 20 21 22 22 23 23 23 24 23 24 24 24 25 25 26 26 26 26 27 27 28 28 29 30 30 31 32 33 34 35 36 38 39 40
12 13 13 14 14 15 16 17 18 19 19 20 21 22 23 23 24 24 25 25 25 26 26 26 27 27 27 27 28 29 29 30 30 31 32 32 33 34 35 36 37 38 39 40
14 14 14 15 15 16 17 18 19 20 21 22 22 23 23 24 25 26 26 27 28 28 28 28 27 28 29 29 30 30 31 31 32 32 33 34 34 35 36 37 38 38 39 40
18 18 18 18 18 18 18 19 20 21 22 23 24 25 25 26 27 28 29 29 29 29 29 29 29 30 30 31 31 32 32 32 33 33 34 34 35 35 36 37 37 38 39 40
21 21 21 21 21 21 22 22 23 23 24 25 26 27 27 28 29 30 30 31 32 32 33 33 33 33 33 33 33 34 34 34 34 34 35 35 35 35 36 36 37 38 39 40

GEFSNGP_500_meanwind_066.txt.gz
Wind_Speed
16 16 17 18 19 20 20 21 22 22 22 21 21 21 22 23 24 25 26 26 26 26 26 26 26 27 27 27 27 27 27 27 27 27 27 27 27 28 29 30 30 31 32 33
16 17 18 19 19 19 20 20 20 21 21 21 20 20 21 21 22 23 24 24 24 24 24 25 25 25 25 25 25 25 25 25 25 25 25 25 26 27 28 28 29 29 30 30
16 17 18 17 18 18 18 19 21 20 20 20 19 19 20 21 21 22 22 23 23 23 23 23 23 23 23 24 24 23 23 22 23 23 24 25 25 26 26 27 28 28 28 27
16 16 17 16 17 18 18 18 19 19 19 19 18 19 19 20 21 21 21 21 21 21 21 21 21 21 21 21 22 22 22 22 22 23 23 24 24 25 25 26 26 27 26 25
16 17 16 16 16 17 18 18 18 18 19 19 19 19 20 20 20 20 20 20 20 20 20 20 20 20 20 20 21 21 21 22 22 22 23 23 24 24 24 25 25 25 24 24
16 17 16 15 17 18 18 19 18 18 19 19 19 19 19 19 19 19 19 18 18 18 18 19 19 19 19 19 20 20 21 21 21 22 22 23 23 23 23 23 23 23 23 22
18 17 16 16 17 18 18 17 18 18 19 19 19 19 19 18 18 18 18 17 17 18 18 18 18 18 18 18 19 20 20 21 21 21 21 21 22 22 22 22 22 22 22 22
20 19 17 17 18 18 18 17 18 18 19 19 19 19 19 19 18 18 17 17 17 17 17 17 17 17 18 18 18 19 19 20 20 20 20 20 21 21 21 21 21 21 21 21
21 20 19 19 19 19 18 18 18 18 19 19 19 19 19 19 18 18 18 18 17 17 17 17 18 18 18 18 18 19 19 19 19 19 19 20 20 20 21 21 21 21 22 22
21 21 21 21 21 21 21 20 19 19 19 19 19 19 19 19 18 18 18 18 18 17 17 18 18 18 19 18 18 18 18 18 19 19 20 20 20 21 21 21 22 22 23 24
21 22 22 22 22 22 22 22 21 21 20 20 20 20 20 20 19 19 19 18 18 18 18 18 18 18 18 18 18 18 19 19 19 20 20 21 21 22 22 23 23 24 25 25
22 22 22 22 23 23 23 23 22 22 22 21 21 21 21 20 20 20 20 19 19 19 18 18 18 18 18 18 18 19 19 20 20 21 21 22 22 23 24 24 25 25 26 27
23 23 23 23 23 24 24 24 23 23 23 22 22 22 22 22 22 21 21 20 20 20 19 19 19 19 19 19 19 20 20 21 22 22 23 23 24 25 25 26 26 27 28 29
23 23 23 23 24 24 24 24 24 24 24 24 23 23 23 23 22 22 22 21 21 20 20 20 20 20 20 20 20 21 22 22 23 24 24 25 25 26 26 27 28 29 29 30
22 23 23 23 24 24 25 25 25 25 24 24 24 24 24 23 23 22 22 22 22 22 22 22 21 21 21 21 22 22 23 24 24 25 25 26 27 27 27 28 29 30 30 31
22 23 23 23 24 24 25 25 25 25 25 25 25 25 24 24 23 23 23 23 23 23 24 24 24 24 23 24 24 24 24 25 25 26 26 27 27 28 29 29 30 31 32 33
22 22 23 23 24 24 25 25 25 25 25 25 25 25 25 24 24 24 24 24 24 24 24 25 25 25 25 26 26 26 26 26 27 27 27 28 28 29 30 31 32 32 33 34
22 22 23 23 23 24 24 25 25 25 25 24 24 24 25 25 25 25 25 25 25 25 25 26 26 27 27 27 27 28 28 28 28 28 29 29 30 31 32 32 33 34 34 35
22 22 22 22 23 23 24 24 24 25 25 25 25 25 25 25 25 25 25 25 25 26 26 26 27 27 28 28 29 29 29 29 29 30 30 31 31 32 32 33 34 34 35 36
20 21 22 22 22 23 24 24 24 25 25 25 25 25 25 25 25 25 25 25 26 26 26 27 27 27 28 29 29 29 30 30 30 31 31 31 32 32 33 33 34 35 37 38
18 19 19 20 21 22 23 24 25 25 25 25 25 25 25 26 26 26 26 26 26 26 27 27 27 28 28 29 29 30 30 30 31 31 31 32 32 32 33 34 35 36 38 39
16 16 16 17 18 20 21 22 23 24 24 25 25 25 25 25 26 26 26 26 26 26 27 27 28 28 28 28 29 29 30 30 31 31 31 32 32 33 34 35 36 38 39 40
15 15 15 16 16 17 18 19 20 21 22 22 23 24 24 25 25 26 26 26 27 27 27 27 28 28 28 28 29 29 30 31 32 32 32 33 34 35 36 37 38 39 39 40
16 16 16 16 16 16 17 17 18 20 20 21 22 22 23 24 25 25 26 26 26 27 27 28 29 29 29 30 31 31 32 33 33 33 34 35 35 36 37 38 38 39 39 40
18 17 17 17 17 17 17 18 18 19 20 21 22 22 23 23 24 25 26 27 27 27 28 29 29 30 31 31 32 32 33 33 33 34 35 35 36 37 38 39 39 40 40 41
19 19 19 19 20 20 20 20 20 20 21 21 22 23 24 24 25 26 26 27 28 29 29 30 31 31 32 33 34 34 34 35 35 36 37 37 38 39 39 40 40 40 40 41
22 23 23 23 23 23 23 23 23 23 24 24 24 25 26 26 27 28 29 30 30 31 32 32 33 34 34 35 36 37 37 38 38 39 39 39 40 40 40 40 41 41 40 41

GEFSNGP_500_meanwind_072.txt.gz
Wind_Speed
17 18 19 21 22 23 24 23 24 23 23 22 23 23 24 24 25 27 28 30 31 32 32 33 33 33 33 34 34 34 34 34 34 34 33 33 32 32 32 31 31 32 32 32
17 18 20 21 21 22 22 23 23 24 23 22 23 23 23 23 24 25 26 26 27 28 28 29 29 30 30 30 30 30 31 31 31 31 31 30 30 30 30 30 30 30 31 31
17 18 19 19 20 21 21 21 22 22 20 24 23 22 22 22 22 23 23 24 24 25 26 27 27 27 27 27 28 28 28 28 28 28 29 28 28 28 28 28 29 29 29 30
18 19 19 18 20 21 21 21 21 20 20 21 21 22 22 21 21 22 22 22 23 23 24 24 25 25 26 26 26 26 26 26 27 27 27 27 26 27 27 27 28 29 29 29
18 19 18 18 18 20 20 20 20 20 20 21 21 21 20 21 21 21 21 21 22 22 23 23 24 24 24 24 24 25 25 25 25 25 25 25 25 26 26 27 27 27 28 28
18 18 17 17 18 19 19 19 19 19 20 20 20 20 20 20 20 21 21 21 22 22 23 23 23 23 23 23 23 23 24 23 23 23 24 24 24 25 25 26 26 26 27 27
20 19 17 17 17 18 18 18 18 18 19 19 20 21 21 21 21 21 21 21 22 22 22 22 22 22 22 22 22 22 22 22 22 22 22 23 23 24 24 25 25 25 26 26
22 21 18 18 18 18 18 18 18 19 19 20 20 21 21 21 21 21 21 21 21 21 21 21 21 21 21 21 21 21 21 21 21 21 22 22 22 23 23 24 24 25 25 26
22 21 20 20 20 19 19 19 19 19 19 19 19 20 20 21 21 21 21 21 21 21 21 21 21 21 21 21 21 20 20 20 20 20 21 21 22 22 23 23 24 25 25 26
22 22 22 22 21 21 21 21 21 21 20 20 20 20 20 20 20 20 21 21 21 21 21 21 21 21 21 21 21 20 20 21 21 21 21 21 22 22 23 24 24 25 26 27
23 22 23 24 23 23 23 22 22 22 22 22 21 21 20 20 20 21 21 21 21 21 21 21 21 21 21 21 21 21 21 21 21 21 21 22 22 23 24 25 25 26 27 28
23 23 23 23 24 24 24 24 23 23 23 23 23 23 22 22 22 21 22 22 22 21 21 21 21 21 21 21 21 21 21 21 21 21 22 22 23 24 25 26 26 27 28 29
24 23 23 23 23 23 24 24 24 24 24 24 24 24 23 23 23 23 23 23 23 22 22 22 22 22 22 22 22 22 22 22 22 22 22 23 24 25 26 26 27 28 29 30
24 23 23 23 24 24 24 24 24 25 25 25 25 25 25 24 24 24 24 24 24 23 23 23 23 23 23 23 23 23 23 23 23 23 24 25 25 26 27 27 28 29 30 31
24 23 23 23 24 24 24 25 25 25 25 26 26 26 25 25 25 25 25 24 24 24 24 24 24 24 24 24 24 24 24 25 25 25 26 26 27 28 28 29 30 30 31 32
23 23 23 23 23 23 24 24 24 25 25 25 25 25 26 25 26 26 25 25 25 25 25 25 25 25 25 25 26 26 26 27 27 27 27 28 29 29 30 30 31 32 32 33
21 21 22 22 22 23 24 24 24 24 24 25 25 26 26 26 26 26 26 26 26 26 26 26 26 26 26 26 27 27 27 27 27 28 28 29 29 30 31 31 32 33 33 34
20 20 21 22 22 23 24 24 25 25 24 25 25 26 26 27 26 26 26 26 27 27 27 27 27 26 27 27 27 27 28 28 29 29 29 30 30 31 32 32 33 33 34 35
20 20 20 21 21 22 23 24 24 25 25 25 25 25 26 26 26 26 26 26 27 27 27 27 27 27 27 27 27 28 28 29 29 29 30 30 31 32 32 33 33 34 35 36
19 20 20 20 20 21 22 23 24 25 25 25 25 26 26 26 27 27 27 27 27 28 28 28 28 28 28 28 28 28 29 29 30 30 31 32 32 33 33 33 34 35 35 36
19 19 19 19 20 20 21 22 23 23 24 25 25 25 26 26 26 27 27 27 28 28 28 28 28 28 29 29 29 29 30 30 31 31 32 32 32 33 34 34 35 35 36 37
18 18 18 18 19 19 19 19 20 21 22 23 24 25 25 26 26 26 26 26 27 27 27 28 28 28 29 29 30 30 31 31 32 32 32 32 33 34 34 35 35 36 37 38
17 17 17 16 17 17 17 17 18 20 21 21 22 23 23 24 25 25 25 25 26 26 26 27 28 28 29 29 30 30 31 31 31 32 32 33 34 34 35 35 36 37 38 39
18 17 17 17 17 16 17 17 17 18 19 20 20 21 21 22 22 23 24 25 25 25 26 27 27 28 29 30 30 30 31 31 31 32 33 33 33 34 35 36 37 38 39 39
18 18 18 18 18 18 18 18 18 18 18 19 19 20 20 21 22 23 23 24 25 26 26 27 28 29 30 30 31 31 32 32 33 34 34 35 36 36 37 38 38 39 40 40
19 19 20 20 20 20 20 20 20 20 20 20 20 21 21 21 22 23 24 25 25 26 27 28 29 30 30 31 32 33 34 34 35 36 37 38 39 39 39 40 40 40 41 42
22 22 22 23 23 22 22 22 22 23 22 22 22 23 23 23 24 25 25 26 27 28 29 30 31 32 33 33 34 35 36 36 37 38 38 39 40 40 40 41 41 42 42 43

GEFSNGP_500_meanwind_078.txt.gz
Wind_Speed
21 22 23 24 25 27 28 29 29 27 25 23 25 27 27 28 29 30 31 32 33 34 35 36 37 38 38 39 39 40 40 41 41 41 41 40 40 39 39 39 39 38 38 37
22 23 25 25 26 27 28 28 28 27 24 23 26 28 28 28 29 29 30 31 32 33 33 34 35 36 37 37 37 38 38 38 38 38 38 38 37 37 37 37 36 36 36 35
23 24 26 25 24 26 27 27 27 27 24 26 27 28 29 29 29 29 29 30 30 31 32 32 33 33 34 35 35 35 35 35 35 35 35 35 35 35 35 34 34 34 33 33
24 25 26 23 23 25 26 25 26 26 25 26 27 27 27 28 28 28 28 29 29 29 29 30 30 30 31 32 32 32 32 32 32 32 32 32 32 32 32 32 31 31 31 31
25 25 24 22 23 23 25 25 27 27 26 26 26 25 25 26 27 27 27 27 27 28 27 27 28 28 28 29 29 30 30 30 30 30 30 30 30 30 30 30 29 29 29 28
26 26 25 22 23 24 25 24 25 26 26 26 25 24 24 25 25 25 26 26 25 26 26 26 26 26 26 27 27 28 28 28 28 28 28 28 28 28 28 28 27 27 27 27
26 27 25 23 23 23 24 23 23 24 24 25 25 25 25 25 24 24 25 24 24 25 25 25 25 25 25 26 26 26 26 26 27 27 27 27 27 26 26 26 26 26 26 26
26 26 24 23 23 24 24 23 23 23 23 23 24 24 25 25 24 24 24 24 24 24 24 25 25 25 25 25 25 25 25 25 26 26 26 25 25 25 25 25 25 25 25 25
25 24 24 24 24 24 24 24 23 23 22 23 23 23 24 24 24 24 24 24 24 24 24 25 25 25 25 25 25 25 25 25 25 25 25 24 24 24 24 24 24 25 25 25
25 23 24 24 24 25 25 24 24 24 23 23 23 24 24 24 24 24 24 24 24 24 25 25 25 24 24 24 24 24 24 24 24 24 24 24 24 24 24 24 25 25 25 26
26 25 25 25 25 25 25 25 24 24 24 24 24 24 24 24 24 24 24 24 24 25 25 24 24 24 23 24 24 24 24 24 24 24 24 24 25 25 25 25 25 25 26 26
27 26 26 25 25 26 26 25 25 25 24 25 25 25 24 25 24 24 24 24 24 24 24 24 24 24 24 24 24 24 24 24 24 24 25 25 25 25 26 26 26 26 27 27
28 28 27 25 26 26 26 26 25 25 25 25 25 25 25 26 26 25 25 25 24 24 24 25 26 26 25 24 24 24 24 24 25 25 26 26 26 26 26 27 27 27 28 29
27 27 26 26 25 26 26 26 25 25 25 25 26 26 26 26 26 26 26 26 26 25 25 25 26 26 26 25 25 25 25 25 26 26 26 27 27 27 27 28 28 29 29 30
25 24 24 24 25 25 25 25 25 25 25 25 25 25 26 26 27 27 27 27 27 27 26 26 26 26 26 26 26 26 26 26 27 27 27 28 28 28 28 29 29 30 30 31
21 22 22 23 23 24 24 24 25 25 25 26 26 26 26 27 27 27 27 27 27 27 27 27 27 26 26 26 27 27 27 27 27 28 28 28 29 29 30 30 30 30 31 31
19 20 21 22 22 23 23 24 24 24 25 25 26 26 26 27 27 27 27 28 28 28 28 28 28 27 27 27 27 27 28 28 29 28 29 29 29 30 30 30 30 31 32 33
18 19 19 20 21 22 23 23 23 24 24 24 25 25 26 26 27 27 28 28 28 29 29 29 29 29 29 28 28 28 29 29 29 30 30 30 30 30 31 31 31 32 33 33
18 19 19 20 20 20 21 21 22 22 23 24 25 26 26 27 27 27 27 27 28 28 29 29 29 29 30 30 30 30 30 29 30 30 30 30 31 31 31 32 32 33 33 33
19 19 20 20 20 20 20 20 20 21 22 23 24 25 26 27 27 27 27 28 28 29 29 29 29 29 30 30 30 30 30 30 31 31 31 32 32 32 32 33 34 34 35 35
19 19 19 19 19 20 20 20 21 21 21 22 23 24 25 26 26 26 27 28 29 29 29 30 30 30 31 31 31 31 31 31 31 32 32 33 33 33 33 34 35 35 36 36
20 19 19 19 19 20 20 21 21 21 22 22 23 23 24 25 26 26 27 28 29 29 29 30 30 30 31 31 31 31 31 31 31 32 32 33 33 34 34 35 35 35 36 36
19 20 19 19 20 20 20 21 21 21 22 22 22 22 23 24 25 26 27 27 28 28 29 29 30 30 30 30 31 31 31 32 32 32 32 33 34 35 35 35 35 36 36 37
19 19 20 20 20 20 20 20 20 20 20 21 21 21 22 23 24 25 26 26 27 27 28 28 28 29 29 30 31 31 32 32 32 33 33 34 34 35 35 35 36 37 37 38
19 19 20 20 20 20 20 20 20 20 20 20 21 21 22 22 23 24 24 25 26 26 27 28 28 29 30 30 31 32 32 33 33 34 34 35 35 36 37 37 38 39 40 40
21 21 21 21 21 21 21 21 21 21 21 21 21 22 23 23 24 24 24 24 24 25 25 26 27 28 29 30 31 31 32 33 34 34 35 36 37 38 39 40 41 41 41 42
23 23 23 23 23 23 23 23 24 23 23 24 24 24 24 24 24 25 26 26 26 27 27 28 29 29 30 30 31 32 33 34 35 36 37 38 39 40 41 41 42 42 43 43

GEFSNGP_500_meanwind_084.txt.gz
Wind_Speed
21 22 23 24 25 26 27 27 28 26 26 24 26 28 30 31 32 32 33 33 33 33 34 35 36 37 38 39 40 41 41 42 42 42 42 43 43 44 44 44 44 44 43 42
23 24 25 26 26 27 27 28 28 27 25 25 27 27 28 30 31 31 32 32 33 33 33 34 34 35 36 37 37 38 39 39 40 40 40 41 41 41 41 40 41 41 41 40
23 24 26 26 25 26 28 27 29 29 26 27 27 28 28 29 30 30 31 31 32 33 33 33 33 34 34 34 35 36 36 37 37 38 38 38 38 38 38 38 38 38 37 37
23 24 26 24 24 26 27 27 28 28 28 28 28 28 28 28 29 29 29 30 32 33 33 33 33 33 33 33 33 34 34 35 35 35 36 36 37 37 36 36 35 35 35 35
23 24 24 22 23 24 26 27 27 27 27 28 28 27 27 28 28 28 29 30 30 31 32 32 32 32 32 32 32 32 32 32 32 33 33 33 33 34 34 34 33 33 33 32
24 25 25 22 23 24 24 25 25 26 26 26 26 26 27 27 27 27 28 28 28 29 30 30 30 30 30 30 30 30 30 31 31 31 31 31 31 31 31 31 31 31 31 31
25 26 25 24 24 23 23 23 23 24 25 25 25 26 26 27 27 27 27 26 27 27 28 28 28 29 29 29 29 29 29 29 29 30 30 30 30 30 29 29 29 29 29 30
25 25 24 23 23 24 24 24 24 24 24 24 24 24 25 26 26 26 26 26 26 26 26 27 27 27 28 28 28 28 28 28 28 28 29 29 29 29 29 29 29 29 29 29
24 24 24 24 23 24 24 24 24 24 24 24 23 23 24 24 25 25 25 25 26 26 26 26 27 27 27 27 28 28 28 28 28 28 28 28 28 28 28 28 28 28 28 28
24 23 24 24 23 24 24 24 24 24 24 24 24 24 24 23 23 24 24 25 26 26 26 27 27 27 27 27 27 28 28 28 28 28 28 27 27 27 27 27 27 27 27 27
23 24 25 25 24 24 25 25 25 24 24 23 24 24 24 24 24 24 24 24 25 26 26 27 27 27 27 28 28 28 27 27 27 27 26 26 27 27 27 27 27 27 27 27
22 23 24 25 25 24 24 24 24 24 23 23 23 24 24 24 24 24 24 24 24 24 25 26 26 26 26 27 27 27 27 27 27 27 27 27 27 28 28 27 27 27 27 28
22 23 24 24 24 24 24 24 24 24 24 24 23 23 23 23 24 24 24 24 24 24 24 25 26 26 26 27 27 27 27 27 27 27 27 27 28 28 28 28 28 28 28 29
21 21 22 23 23 24 23 24 25 25 24 24 24 23 23 23 23 23 23 24 24 24 24 24 25 26 26 26 26 26 27 27 27 27 27 27 27 28 28 28 28 28 29 29
19 19 20 21 21 22 22 22 23 24 24 24 24 24 24 23 23 24 24 24 25 25 25 25 25 26 26 26 26 26 27 27 27 28 27 27 28 28 28 29 29 29 30 30
17 17 18 19 20 20 21 21 21 22 23 23 24 24 24 24 24 24 24 25 26 26 26 26 26 27 27 27 27 27 27 28 28 28 29 29 29 29 29 30 30 31 31 32
17 17 17 17 18 19 20 20 21 22 23 23 24 24 24 24 25 25 25 25 26 27 27 27 27 27 28 28 29 29 29 29 29 29 29 30 30 30 30 30 31 31 32 32
18 18 18 18 18 19 19 20 20 21 22 22 22 23 23 24 24 25 25 26 26 27 28 28 29 29 29 30 30 30 30 30 30 30 30 31 30 31 31 31 32 32 32 33
19 18 18 17 17 18 19 20 21 21 21 22 22 23 23 23 24 25 25 26 27 27 28 28 29 29 29 30 31 31 31 31 31 32 32 32 32 32 32 33 33 33 34 34
20 19 18 17 17 17 18 19 20 20 21 22 22 22 22 22 23 23 24 25 26 27 27 28 28 29 30 31 31 32 32 33 33 33 33 34 34 34 34 35 35 35 35 35
20 19 19 18 17 17 18 19 19 19 20 20 21 22 22 22 22 23 24 25 25 26 27 27 28 29 29 30 31 32 33 33 33 34 34 35 35 35 36 36 36 36 37 37
21 20 20 19 18 18 18 19 19 19 19 20 21 22 22 23 23 24 24 25 25 26 26 27 28 28 29 30 30 31 32 33 33 34 34 35 35 36 36 37 37 37 37 38
21 20 20 19 19 19 19 20 20 20 20 20 20 21 22 23 24 24 24 25 25 26 26 27 28 28 29 29 30 31 32 32 33 34 34 35 35 35 36 37 37 38 38 38
20 20 20 20 20 20 20 20 21 20 20 20 20 21 21 22 22 23 24 24 25 26 26 26 27 28 28 29 30 30 31 32 33 33 34 35 35 36 36 37 37 38 38 39
20 19 20 20 20 20 20 21 21 22 22 22 22 22 22 22 23 23 23 23 24 25 25 26 26 27 28 28 29 29 30 30 31 32 33 34 35 36 36 37 38 39 39 40
19 19 19 19 19 20 20 21 21 22 23 23 23 23 23 24 24 24 24 24 25 25 25 26 26 27 28 28 29 29 30 30 31 32 33 34 35 36 37 37 38 39 40 40
20 19 19 19 19 20 21 21 22 22 23 24 24 25 25 25 25 25 25 26 26 27 27 27 28 28 29 29 30 30 31 32 32 33 34 35 36 37 38 38 39 40 41 41

GEFSNGP_500_meanwind_090.txt.gz
Wind_Speed
18 20 23 24 24 26 27 28 30 29 29 28 28 29 30 30 30 31 31 31 32 32 34 34 34 35 35 36 36 36 37 38 39 40 41 41 42 43 44 44 45 44 44 44
19 21 24 25 24 26 27 28 29 29 28 26 29 30 31 30 31 31 31 31 32 32 33 34 34 34 35 35 36 36 36 37 37 38 39 40 40 40 40 41 41 41 41 42
20 21 23 23 24 26 27 27 28 29 27 27 28 29 30 31 31 31 31 32 32 32 33 33 33 34 34 35 35 35 35 36 36 36 37 37 38 38 38 38 39 39 39 40
22 22 22 22 23 25 26 26 26 26 27 27 27 28 29 30 30 30 30 31 31 32 32 32 32 33 34 34 34 34 35 35 36 36 36 36 37 37 37 38 38 38 38 38
23 23 24 23 22 23 25 25 25 26 26 26 26 27 27 27 28 28 29 29 30 31 31 31 32 32 33 33 33 34 34 35 35 35 35 36 36 36 36 36 36 36 35 35
24 25 25 24 23 23 23 24 25 25 25 25 25 26 26 26 27 28 28 29 29 30 30 31 31 31 31 32 32 33 34 34 34 34 34 35 35 35 35 34 34 34 33 33
25 25 25 25 24 23 23 24 24 24 24 24 25 25 25 26 26 27 28 29 29 29 30 30 30 30 30 31 31 32 32 32 33 33 33 33 33 33 33 33 32 32 32 32
25 25 26 26 25 24 24 25 24 24 24 24 25 25 26 27 27 27 28 29 29 29 29 30 30 30 30 30 31 31 31 31 31 31 31 32 32 32 31 31 31 31 31 30
26 25 26 26 25 25 25 25 25 25 24 25 25 25 26 26 27 28 28 28 29 29 29 29 30 30 30 30 30 30 30 30 30 31 31 31 31 31 31 31 31 30 30 29
28 28 27 26 26 26 26 26 26 26 25 26 26 26 26 26 26 27 27 27 28 29 29 30 30 30 30 31 31 30 31 31 31 31 30 30 30 30 30 30 30 30 29 29
29 28 28 27 27 26 25 26 26 26 26 26 26 25 25 25 25 26 26 27 27 28 28 29 30 30 30 31 31 31 31 31 31 31 30 30 31 30 30 30 29 28 28 27
30 30 28 26 27 27 26 26 26 25 24 24 25 25 24 24 24 25 26 27 27 27 27 27 28 28 29 30 30 30 31 31 31 31 31 31 30 30 29 29 28 28 28 28
31 30 28 27 27 27 26 25 24 24 24 24 24 23 23 24 24 25 25 26 26 26 26 26 27 27 28 28 28 29 29 29 29 29 29 29 29 29 28 28 28 28 28 28
30 29 28 27 26 25 23 23 22 23 23 23 24 24 24 24 24 24 25 25 25 25 26 26 26 26 27 27 27 27 28 28 28 28 28 28 28 28 28 28 28 28 28 29
30 29 27 25 24 23 21 21 21 21 22 23 23 24 24 24 23 24 24 24 25 25 26 26 26 26 26 26 27 27 27 27 27 27 27 27 28 28 28 28 28 29 29 29
30 29 27 25 23 23 22 22 21 21 22 22 23 23 23 23 24 24 24 25 25 25 26 26 27 27 27 27 28 28 28 29 29 29 29 29 28 29 29 29 29 29 29 30
30 29 27 26 24 23 23 23 22 23 23 23 22 23 23 23 24 24 25 25 26 26 26 26 27 28 28 28 29 29 29 30 30 30 30 30 30 30 29 29 29 30 30 31
30 29 28 26 25 24 24 24 23 24 24 23 23 23 23 24 24 24 25 25 26 26 26 27 27 27 27 28 28 29 30 30 31 31 31 31 31 31 31 31 31 31 32 32
30 29 28 27 26 26 26 25 25 25 24 23 23 23 23 24 24 24 24 24 25 25 25 25 26 27 28 28 28 29 29 30 30 31 31 32 32 32 33 33 33 34 34 34
30 29 28 27 27 26 26 25 24 24 24 23 23 22 22 23 24 24 24 24 24 24 25 25 26 26 27 28 28 29 29 30 30 31 32 32 33 33 34 35 35 35 36 36
31 29 28 28 27 26 25 25 24 22 22 22 23 22 22 23 23 23 23 24 25 25 26 26 26 27 27 27 28 29 29 29 30 30 31 32 33 33 34 34 35 36 36 37
31 29 28 28 27 26 25 24 23 21 21 21 21 21 21 22 22 22 23 24 25 25 26 26 27 27 28 28 28 29 29 29 30 30 31 32 32 33 34 34 35 36 36 37
31 29 28 27 26 25 24 23 22 21 20 20 21 21 21 22 22 22 22 23 24 25 26 26 27 28 28 28 28 29 29 30 30 30 31 31 32 32 33 34 35 36 36 37
31 29 28 26 25 23 22 21 20 21 21 21 21 22 22 22 22 23 23 24 24 25 25 26 26 27 27 27 27 28 28 28 29 29 30 30 30 31 32 33 34 35 36 37
30 29 27 25 24 23 22 21 21 21 21 21 22 22 23 23 23 23 23 24 24 25 25 25 25 25 26 26 26 27 28 28 29 29 29 30 30 31 32 33 33 34 35 36
29 28 27 25 24 23 22 22 22 22 22 22 23 23 23 24 24 24 25 25 25 25 25 26 26 27 27 28 28 28 29 29 29 30 31 31 32 32 33 34 34 35 35 36
30 28 27 26 25 24 23 23 23 23 23 24 24 24 24 24 25 25 25 25 26 26 27 27 28 29 29 30 30 30 31 32 32 32 33 33 33 34 34 34 35 35 36 36

GEFSNGP_500_meanwind_096.txt.gz
Wind_Speed
11 12 13 14 17 19 21 22 23 23 24 25 27 28 30 31 32 33 34 34 35 36 36 37 38 39 39 40 41 42 42 42 42 42 42 42 43 43 43 44 44 44 44 45
12 14 15 15 17 19 21 23 24 25 25 26 27 29 30 30 31 32 33 34 35 37 37 37 38 38 39 39 40 41 42 42 41 41 41 41 41 41 42 42 43 43 43 43
15 15 16 16 17 19 21 23 24 25 26 27 27 28 29 29 30 31 32 33 34 36 37 37 38 38 38 38 39 40 41 41 41 41 41 41 41 41 41 42 42 42 41 41
19 19 18 19 20 20 21 22 24 25 25 26 26 26 27 28 29 30 31 31 32 34 35 35 36 37 37 37 38 39 39 40 40 40 40 41 41 40 40 40 40 41 41 40
21 21 20 20 20 21 22 22 23 24 24 24 25 26 25 27 28 29 29 29 30 31 32 33 34 35 36 36 37 37 38 38 38 39 39 39 39 39 39 39 39 39 39 39
23 23 21 21 21 21 22 22 23 24 24 24 24 24 24 26 27 28 28 28 29 30 31 31 32 33 34 34 35 35 36 37 37 38 37 37 37 37 37 37 37 37 37 37
24 24 22 23 22 22 22 23 24 24 25 24 23 23 24 25 25 27 27 27 27 28 30 30 31 32 33 33 33 34 34 35 36 37 36 36 36 36 36 36 36 36 36 36
25 25 24 25 24 24 24 25 24 25 25 25 24 24 25 26 26 26 26 26 27 27 28 29 29 30 31 32 32 32 33 33 34 35 35 35 36 35 35 35 35 35 35 35
25 26 27 27 26 25 26 26 26 26 26 26 25 25 25 26 26 26 26 26 26 27 27 27 28 28 29 30 31 31 31 32 32 33 33 34 34 34 34 34 34 34 34 34
26 27 28 28 28 27 26 27 26 27 27 26 26 26 26 27 27 27 26 26 26 26 25 25 26 27 28 28 29 30 30 31 31 32 32 33 33 33 33 33 33 33 33 33
27 28 29 30 30 29 27 28 28 28 28 27 27 26 26 26 26 26 26 26 25 25 25 25 25 26 27 27 28 29 29 29 30 31 32 32 32 32 32 32 33 33 33 33
28 29 30 31 31 30 28 28 28 28 27 27 27 26 25 24 25 25 26 26 25 25 25 25 26 26 26 26 27 28 29 29 29 30 31 31 32 32 32 32 32 33 33 33
29 30 31 32 32 31 28 27 28 27 26 25 24 24 23 23 24 24 25 25 25 25 26 26 26 26 26 26 27 27 28 29 29 30 30 31 31 31 31 31 32 32 31 31
30 31 31 32 31 30 28 28 28 26 24 23 23 23 23 23 24 24 24 25 25 25 26 26 26 26 26 26 27 27 28 28 29 29 29 29 30 30 30 30 30 30 30 30
31 32 32 32 31 30 28 28 27 26 24 24 23 23 23 23 23 24 24 25 25 25 25 25 26 26 26 26 27 27 27 28 28 28 28 28 29 29 29 29 29 29 29 30
31 32 32 32 32 30 30 29 27 26 25 24 24 23 23 23 23 23 24 25 25 25 24 24 24 25 26 26 27 27 27 28 28 28 28 28 28 29 29 29 29 29 30 30
31 32 32 33 32 31 30 29 28 27 26 24 23 23 23 22 22 22 23 24 24 24 24 24 24 24 25 25 26 27 27 28 28 28 28 29 29 29 30 30 30 31 31 31
32 33 33 33 33 32 31 29 28 27 25 24 23 23 23 23 23 23 23 23 23 23 24 24 24 24 25 25 25 26 27 28 28 29 29 30 30 30 31 32 32 32 32 32
33 33 33 33 33 32 31 29 27 26 25 24 23 23 23 22 22 22 22 22 22 23 24 24 24 23 24 24 25 25 27 27 28 29 30 30 31 32 32 32 33 33 33 33
33 33 33 33 33 32 30 29 27 26 24 24 23 23 23 23 23 23 22 22 22 23 23 23 24 24 24 25 25 26 27 28 29 30 30 31 31 31 32 32 32 33 33 33
33 33 33 33 32 32 31 30 28 26 25 25 24 24 23 23 23 22 21 21 21 22 23 23 24 24 25 25 26 26 27 28 28 29 29 30 31 31 31 31 31 31 32 33
33 34 33 33 32 32 31 30 29 27 26 26 25 24 24 24 24 23 22 22 22 22 23 23 24 24 25 26 26 26 27 27 28 28 29 29 30 30 30 30 31 31 32 32
34 34 34 33 32 32 32 31 29 28 27 27 26 25 25 24 24 23 23 24 24 24 24 24 25 25 25 26 26 27 27 27 28 28 29 29 29 29 30 30 30 31 32 32
35 35 34 34 33 33 32 32 30 28 27 27 26 26 25 25 25 25 25 24 25 25 25 25 26 26 27 27 27 28 28 28 28 29 29 29 29 30 30 30 31 31 31 31
36 36 35 35 34 33 33 32 30 29 28 27 26 26 25 25 25 26 26 26 26 27 27 27 27 27 27 27 27 28 28 28 29 29 29 29 30 30 31 31 31 32 32 32
36 36 35 34 34 33 32 31 30 29 28 28 27 26 26 26 26 26 27 27 28 28 28 28 28 28 28 28 28 28 28 28 29 29 29 30 31 31 31 32 32 32 32 33
36 36 35 34 33 32 32 31 30 29 29 29 29 28 28 28 28 28 29 29 29 28 28 28 28 28 28 28 28 28 28 28 29 29 30 30 30 31 31 32 33 33 34 35

GEFSNGP_500_meanwind_102.txt.gz
Wind_Speed
8 9 9 9 11 13 15 17 18 19 21 23 25 26 27 29 30 32 33 34 35 36 36 37 39 41 43 44 45 46 47 48 48 48 48 48 48 48 48 48 47 47 47 46
9 11 11 11 13 14 15 17 18 20 21 24 26 27 27 28 29 30 32 33 34 36 36 37 38 40 42 43 45 45 45 46 47 47 47 47 47 47 47 47 47 46 45 45
10 11 12 13 15 15 16 17 19 20 22 24 26 27 27 28 29 30 31 31 33 34 35 37 37 38 39 41 43 44 44 44 44 44 45 45 46 46 46 46 46 45 45 45
12 13 14 16 17 18 18 19 21 22 23 25 26 27 28 29 30 30 30 31 32 33 33 34 36 37 38 38 39 40 41 42 43 43 43 43 42 42 43 44 43 43 43 43
14 15 16 19 20 20 21 20 22 23 24 25 26 26 27 29 30 30 30 30 30 31 33 33 34 35 36 37 38 38 39 40 41 41 42 42 41 41 40 40 41 41 41 41
15 17 18 20 22 22 23 21 23 24 24 26 27 27 27 29 29 29 29 29 29 30 31 32 34 34 35 36 37 37 38 38 39 40 40 40 41 40 39 39 39 39 39 39
16 17 19 21 23 24 24 24 25 25 26 26 27 28 29 29 29 29 29 29 29 30 30 31 32 33 34 34 35 36 37 37 38 39 39 39 39 39 39 38 38 37 37 37
17 18 20 22 24 25 26 26 26 26 26 27 28 29 30 29 28 28 29 28 28 29 29 29 29 30 31 32 33 33 34 36 36 37 37 38 38 38 38 37 36 36 36 36
18 20 21 23 24 25 27 28 28 27 27 28 29 30 30 30 29 28 28 28 28 27 27 27 28 28 29 29 30 31 33 34 35 35 35 36 36 36 36 36 36 36 35 35
19 21 23 24 26 27 28 29 30 30 29 30 30 30 29 29 28 27 27 26 27 26 26 26 26 27 27 28 28 29 30 31 32 33 33 33 34 34 34 35 35 34 34 34
20 22 23 25 27 28 28 30 31 31 31 32 31 29 28 27 27 26 26 25 25 25 25 24 25 26 26 26 27 27 28 28 28 29 29 30 31 32 31 31 32 32 32 33
21 23 24 26 28 29 29 30 31 32 33 32 31 29 27 26 25 25 24 24 24 23 23 24 24 24 24 25 25 26 27 27 27 28 28 28 29 29 30 30 31 31 31 32
22 24 25 27 28 30 30 31 32 34 34 33 31 28 27 26 25 24 24 23 22 23 23 24 24 24 24 24 24 25 25 26 26 27 27 27 28 28 29 29 30 31 31 31
23 25 26 28 29 30 31 32 33 34 34 33 31 28 27 26 25 24 24 23 22 22 23 23 22 22 23 23 24 24 24 24 25 26 27 28 29 29 29 30 30 31 31 31
24 26 27 29 30 31 32 33 34 35 35 33 32 29 27 26 25 25 25 24 23 23 22 22 22 22 22 23 23 24 24 24 25 26 27 28 28 29 29 30 30 30 31 31
26 27 28 29 31 32 33 34 35 35 35 34 32 29 28 27 26 26 25 25 24 24 23 23 23 23 23 23 23 23 24 24 25 25 26 27 28 28 29 29 30 31 31 32
27 28 29 30 31 33 33 34 35 35 35 34 32 30 28 27 26 26 26 26 25 25 24 24 24 25 24 24 23 23 24 24 25 26 27 27 28 28 29 29 30 31 31 32
28 29 30 31 32 33 34 35 35 35 35 34 32 30 29 28 27 26 26 26 26 25 25 25 25 25 25 24 24 24 24 24 25 26 26 27 28 29 29 30 30 31 31 32
29 30 31 32 33 34 35 36 36 36 35 35 33 31 29 28 27 27 26 26 26 26 27 27 27 26 25 25 25 25 25 25 26 26 26 27 28 28 29 29 30 30 31 31
31 31 32 33 34 35 36 36 37 36 35 35 34 32 30 29 29 28 28 28 28 28 28 28 27 27 26 26 26 25 25 26 26 26 27 28 28 29 29 29 29 30 30 31
31 32 33 34 35 36 36 37 37 37 36 35 34 32 31 30 30 30 30 30 30 29 28 28 27 27 27 27 27 27 27 27 27 27 28 28 29 29 29 30 30 30 31 31
32 33 34 35 36 36 37 38 38 37 36 35 34 33 32 31 32 32 32 31 31 30 29 28 28 27 27 27 27 27 28 28 28 28 28 29 29 29 29 29 30 30 31 31
33 34 35 37 37 37 38 38 38 38 36 35 35 34 33 33 33 33 33 32 31 31 30 29 29 29 28 28 28 28 28 28 28 29 29 28 28 29 29 29 29 30 30 30
34 35 37 37 38 38 38 38 38 38 36 36 35 35 34 34 34 34 33 32 32 32 31 31 30 30 29 29 29 29 29 29 29 28 28 28 28 28 28 29 29 30 30 31
35 36 37 37 38 38 38 38 38 37 37 36 36 36 35 35 34 34 33 33 33 32 32 31 31 31 30 30 29 29 29 29 29 28 28 28 28 28 29 29 30 30 31 31
35 36 37 37 38 38 38 38 38 38 37 37 37 37 37 36 35 34 33 33 33 32 31 31 31 30 30 30 29 29 28 28 28 27 27 27 28 28 29 30 30 30 31 31
36 37 37 38 38 38 39 39 38 38 38 38 38 38 38 36 35 34 34 33 32 32 31 30 29 29 29 28 28 28 27 27 27 27 27 27 27 27 28 28 28 29 30 30

GEFSNGP_500_meanwind_108.txt.gz
Wind_Speed
4 4 3 3 4 4 4 4 4 6 8 10 11 13 16 18 21 23 26 28 29 30 31 33 34 35 37 39 40 42 43 43 44 45 45 44 45 45 44 44 44 44 44 44
3 3 3 4 4 6 6 6 6 8 9 12 14 15 17 18 21 23 24 26 28 29 30 31 33 34 36 38 39 40 41 42 43 44 45 44 45 45 44 44 44 44 43 44
2 2 3 4 6 7 8 9 9 9 10 11 13 15 16 18 21 23 24 25 27 28 29 30 32 34 35 37 38 39 40 41 42 43 43 43 43 43 42 43 43 44 43 44
1 1 3 5 7 8 10 11 11 11 12 12 14 16 18 19 21 22 24 25 27 29 29 29 30 31 32 33 35 37 39 40 41 42 42 42 42 42 41 41 41 41 41 42
1 2 3 6 8 10 11 12 13 13 14 15 16 17 19 21 22 24 24 25 26 27 28 29 29 29 29 30 31 34 36 38 39 39 40 40 40 40 40 40 40 40 40 39
2 3 5 7 8 10 12 13 15 15 15 16 17 18 20 22 23 24 25 26 27 27 27 28 28 28 28 28 29 30 32 34 36 37 38 39 39 38 38 38 38 38 38 38
4 4 6 7 9 11 13 14 16 17 17 17 19 20 22 23 24 24 26 27 26 26 26 26 26 27 27 27 28 29 30 31 33 34 35 36 37 37 37 37 36 36 36 36
5 6 7 9 10 12 14 15 17 18 18 19 20 22 24 25 25 25 26 25 25 24 24 25 25 26 26 26 27 28 28 29 29 30 31 32 34 34 35 35 35 34 34 35
7 7 9 10 11 13 15 17 18 19 20 21 22 24 25 25 25 24 24 24 24 23 23 24 25 25 25 25 26 26 27 27 27 28 29 31 32 33 34 34 34 33 33 34
9 10 10 11 12 14 16 18 19 20 21 22 24 25 26 26 25 24 23 23 24 24 24 24 24 25 24 25 25 25 25 26 26 27 28 29 30 31 32 32 32 32 32 33
11 11 11 12 14 15 17 19 20 21 22 23 25 26 27 26 26 25 24 24 24 25 24 24 24 24 25 25 25 24 24 24 25 25 27 28 28 28 29 30 31 32 32 32
12 13 13 14 15 16 18 20 21 22 23 24 25 26 27 27 26 25 25 25 25 25 24 24 25 25 25 25 25 24 24 24 25 25 25 26 26 27 27 28 29 30 31 31
14 15 15 16 17 18 19 21 22 22 23 24 25 26 27 28 28 27 26 26 25 25 25 25 25 26 26 26 26 25 25 25 25 25 24 24 25 25 26 27 28 29 29 30
16 17 17 18 18 20 21 22 23 23 24 25 27 28 28 29 29 29 28 27 27 26 26 26 27 27 27 27 26 25 25 26 26 26 24 24 24 25 25 26 27 28 29 29
18 18 19 20 21 21 22 23 23 24 25 26 28 29 30 30 30 29 29 28 28 27 27 27 27 28 28 28 27 26 27 27 27 26 24 24 24 25 25 26 26 27 29 29
20 20 21 22 22 23 23 24 25 26 27 28 29 30 31 31 31 31 30 29 28 27 27 27 27 28 28 27 27 26 27 28 27 26 25 24 25 26 27 28 28 29 29 29
22 22 22 23 23 24 25 26 26 27 28 30 30 31 31 32 32 31 31 30 29 29 28 28 28 29 28 28 27 27 27 27 27 26 26 26 27 27 27 28 29 30 30 30
23 23 23 24 24 25 26 27 28 28 29 31 32 32 33 33 33 32 32 31 30 30 30 30 30 29 29 28 28 28 28 27 27 27 26 27 27 27 27 28 28 29 30 30
25 25 24 25 25 26 27 28 29 30 31 32 33 33 34 34 34 33 33 32 32 31 31 31 30 30 29 29 29 29 28 28 28 27 27 27 27 26 27 28 28 29 29 30
26 26 26 26 27 27 29 30 31 32 33 34 34 35 35 35 35 34 33 33 32 32 32 32 31 30 30 29 29 29 28 28 28 27 27 26 26 26 26 26 27 28 28 29
27 27 27 27 28 29 30 31 32 33 34 35 35 35 35 35 35 35 34 34 34 33 33 33 32 31 30 30 30 29 28 28 27 27 26 26 25 25 26 26 26 26 27 28
28 28 28 29 29 30 31 32 33 34 35 35 36 36 36 36 36 36 35 35 35 35 34 33 32 31 30 30 30 30 28 27 27 26 26 26 26 26 26 27 27 27 28 28
30 30 30 30 31 31 32 33 34 35 36 37 37 37 37 37 37 37 36 36 36 35 34 33 33 32 32 32 31 30 29 28 27 27 27 27 27 27 27 27 28 28 28 29
30 30 31 31 32 33 33 34 35 36 37 37 37 37 37 37 37 38 38 37 36 35 35 34 34 33 32 32 31 30 30 29 29 28 28 28 27 27 27 27 28 28 28 28
31 31 31 32 33 34 34 35 36 37 38 38 38 38 38 38 38 38 38 37 36 36 35 35 34 33 33 32 31 31 31 30 29 28 28 28 27 27 26 26 26 26 26 26
31 31 32 33 34 35 35 36 37 38 38 38 39 39 39 39 38 38 38 37 37 36 36 35 34 34 33 32 32 31 31 30 29 28 28 27 27 27 26 25 25 25 24 24
33 33 33 34 34 35 36 37 37 38 38 39 39 39 39 39 38 38 38 38 37 37 36 36 35 34 33 32 31 31 30 29 29 28 28 27 27 26 26 26 25 25 25 25

GEFSNGP_500_meanwind_114.txt.gz
Wind_Speed
5 5 5 4 3 1 0 2 2 2 1 1 2 3 5 7 10 12 13 15 17 17 18 20 22 24 25 26 28 29 29 30 31 33 36 38 39 39 41 43 43 44 44 44
5 5 4 3 2 2 2 2 3 2 2 2 2 4 6 9 11 13 14 16 17 18 19 21 23 23 24 25 27 28 29 30 32 34 35 37 37 38 39 41 42 43 43 43
6 5 4 3 3 3 4 4 5 4 3 3 4 6 8 9 11 14 15 16 17 18 20 21 22 23 24 25 27 28 30 31 33 34 35 36 37 37 38 39 40 41 41 40
5 4 4 3 2 2 3 4 5 5 4 4 6 8 9 11 12 14 16 17 18 19 20 20 21 23 24 24 26 27 29 31 32 33 35 35 36 37 38 39 39 38 37 37
5 4 3 2 1 1 2 3 5 6 6 6 7 8 10 12 14 15 16 17 18 19 20 20 21 22 24 25 26 27 29 30 31 32 34 34 35 36 36 37 38 38 36 35
6 5 3 2 1 1 2 3 5 6 7 7 8 10 12 14 15 16 17 18 18 19 20 21 21 22 24 26 26 28 29 30 31 31 32 33 34 35 35 36 37 37 37 36
7 6 5 3 2 2 3 4 5 6 8 9 10 12 14 15 17 18 18 19 20 21 22 22 23 24 25 26 27 28 29 30 31 31 32 32 33 33 34 34 35 34 35 35
9 7 6 5 4 4 4 5 6 8 9 11 12 14 15 16 18 18 19 21 22 23 24 24 25 26 27 27 28 29 29 29 30 31 31 32 33 32 33 32 31 31 31 32
10 9 8 7 6 6 6 7 8 9 10 12 13 15 16 18 19 20 21 22 24 25 25 26 27 27 28 28 28 29 29 29 30 30 31 32 32 32 32 31 30 31 31 31
12 11 10 10 9 8 8 9 10 11 12 13 15 16 18 20 21 22 23 25 26 27 27 27 28 29 29 29 29 30 30 30 30 30 31 31 31 31 30 30 30 30 30 31
14 13 12 12 11 10 10 11 12 13 14 15 17 18 19 21 22 24 25 27 28 29 29 29 30 31 31 30 30 31 31 31 30 30 30 30 30 30 30 30 30 30 29 29
15 15 15 14 14 13 13 14 14 15 16 18 19 20 21 22 23 25 26 28 29 30 30 31 31 32 31 31 31 31 31 31 30 30 30 29 29 29 29 29 29 28 28 28
18 18 17 17 17 16 16 16 17 18 19 20 22 23 24 24 25 26 28 29 30 31 31 32 32 32 32 32 32 32 32 31 30 30 30 29 29 29 29 29 28 27 27 27
21 20 20 20 20 20 19 20 20 20 22 23 24 24 25 26 27 28 29 31 32 32 32 33 33 32 32 33 33 33 32 31 31 30 29 29 29 29 29 29 28 27 27 27
23 23 22 22 22 22 22 23 23 23 24 25 26 26 27 28 29 30 31 32 33 33 33 34 34 33 33 34 33 33 33 32 32 31 30 30 29 29 29 28 28 27 26 26
24 24 24 24 24 24 24 24 25 25 26 27 28 29 29 30 30 31 32 33 34 34 35 35 34 34 34 34 33 33 33 32 32 32 31 30 30 29 28 27 26 25 24 24
27 26 26 26 26 26 27 27 27 27 28 29 29 31 31 31 32 33 34 35 35 35 36 36 35 35 35 34 34 33 33 33 32 32 31 30 29 29 28 27 25 24 23 23
28 28 28 28 28 28 28 29 29 29 30 31 32 32 33 33 34 34 35 36 36 36 37 37 37 36 36 35 34 34 33 33 32 32 31 30 29 29 28 26 25 24 23 23
30 29 29 29 30 30 30 31 31 31 32 33 33 34 34 35 35 36 37 37 37 37 38 38 37 37 36 36 35 34 34 33 33 32 31 30 29 28 27 26 25 25 25 25
32 32 31 31 32 32 32 33 33 33 34 34 35 35 35 36 36 37 38 38 38 38 38 38 38 37 37 36 35 35 34 34 34 33 32 31 30 29 28 27 26 25 25 26
34 34 34 34 34 34 34 34 35 35 35 36 36 36 36 37 37 38 39 39 39 39 39 38 38 38 37 37 36 35 35 34 34 33 32 31 30 29 28 27 27 27 27 27
34 34 35 35 36 36 36 36 36 36 37 37 37 37 37 37 38 39 40 40 40 39 39 39 38 38 37 37 37 36 36 35 34 34 33 32 31 30 29 28 28 28 27 28
36 36 36 36 36 36 37 37 37 37 38 38 38 38 38 38 39 40 41 41 40 40 39 39 39 38 38 38 38 37 37 36 35 35 34 33 31 30 30 29 29 28 28 28
36 36 37 36 37 37 37 37 38 38 38 39 39 39 39 40 40 41 42 41 41 40 40 39 39 39 39 39 38 38 37 37 36 35 34 33 32 31 30 30 29 29 29 29
36 37 37 37 37 38 38 38 39 39 39 39 39 39 40 41 41 42 41 41 41 40 40 39 40 40 40 40 39 38 38 37 36 35 33 32 31 31 30 30 30 29 29 28
36 37 38 38 38 38 39 39 40 39 40 40 40 40 41 41 42 41 41 41 41 40 40 40 40 41 41 41 40 39 39 37 36 34 33 31 30 30 30 30 30 29 28 28
37 38 38 39 39 39 39 40 40 40 40 40 40 41 41 41 42 42 41 41 40 40 40 40 41 41 41 41 40 39 38 36 34 33 32 31 30 29 29 29 28 28 28 27

GEFSNGP_500_meanwind_120.txt.gz
Wind_Speed
8 7 7 5 5 4 5 5 6 6 6 6 5 5 4 3 2 1 0 2 4 6 6 7 8 9 11 13 15 17 19 22 24 26 27 28 29 30 32 34 36 37 39 41
8 7 5 5 5 5 5 6 6 7 6 5 5 4 3 2 0 1 3 4 5 6 6 7 8 9 11 12 15 16 19 21 23 25 26 26 28 29 32 34 36 37 38 39
7 6 6 6 5 4 5 6 6 7 6 5 4 3 2 1 2 3 4 4 5 5 6 7 8 9 11 14 16 18 20 21 21 23 23 25 26 29 31 34 36 37 37 38
7 6 6 6 5 5 6 6 6 6 6 5 4 2 1 1 3 4 5 5 6 7 8 9 10 11 13 15 17 19 21 21 22 23 24 25 28 29 31 33 35 35 36 37
7 6 6 6 5 5 5 5 5 5 4 3 2 1 1 2 3 5 6 7 8 9 10 11 12 14 15 17 19 21 21 22 23 24 26 27 29 29 30 31 32 34 35 36
8 7 7 6 6 5 5 5 4 4 3 2 1 1 2 3 4 5 6 8 10 10 11 13 14 16 18 20 21 22 22 23 25 26 27 28 29 29 30 31 32 32 34 34
10 10 9 8 7 5 5 5 5 4 3 3 3 3 3 4 5 6 8 10 11 12 14 15 17 18 20 21 22 23 24 25 27 28 28 29 28 29 30 31 31 31 32 33
12 12 11 9 8 7 6 6 6 6 5 4 4 5 5 6 7 9 11 12 13 15 16 18 19 21 22 23 24 25 26 27 28 29 29 29 29 29 30 31 31 31 31 32
14 13 13 12 10 9 8 8 7 7 6 6 6 7 7 8 9 11 12 14 16 17 18 20 22 23 25 25 25 26 27 29 29 30 30 30 30 31 31 32 32 31 31 31
17 16 16 14 13 12 11 10 10 9 8 8 8 9 10 11 12 13 15 16 17 19 20 22 23 25 26 27 27 27 28 29 30 30 30 31 32 32 32 33 32 31 31 31
19 18 18 17 16 14 14 13 13 12 12 11 11 12 13 14 15 16 17 18 20 21 22 23 25 27 28 28 28 29 30 30 30 30 31 31 31 32 33 33 32 32 32 31
22 21 20 19 18 17 16 16 15 15 15 14 14 15 16 16 17 19 20 21 22 23 25 26 28 29 30 30 30 31 31 31 31 32 32 32 33 33 34 34 34 34 33 32
25 24 23 22 21 20 19 18 18 18 18 18 18 18 18 19 20 21 22 23 25 26 28 29 30 31 32 31 32 32 32 32 33 33 33 34 34 34 34 34 34 33 33 33
27 27 25 24 23 23 22 22 21 21 21 21 21 21 22 22 23 24 25 25 27 29 30 31 32 33 33 33 33 33 34 34 34 34 34 34 34 34 35 35 34 34 33 33
29 28 28 27 25 25 25 24 24 24 24 24 24 24 25 25 26 26 27 28 29 31 32 33 34 35 35 35 35 35 35 36 36 35 35 35 35 35 35 35 34 33 32 31
30 30 30 29 29 28 28 27 27 26 27 27 27 27 28 28 28 29 30 31 32 33 34 35 36 36 36 36 36 36 37 37 37 36 36 36 36 36 36 35 34 33 31 31
30 30 30 30 30 31 31 30 30 29 29 29 29 30 30 30 31 32 32 33 35 36 37 37 37 37 38 37 37 37 38 38 38 37 37 37 37 37 37 36 34 33 32 31
30 31 31 31 31 31 32 32 32 32 32 32 32 32 32 33 33 34 35 36 36 37 38 38 38 38 39 38 38 38 38 39 39 39 39 39 38 38 37 35 34 33 32 32
33 33 33 32 32 32 32 32 33 33 33 33 34 34 35 35 35 36 37 37 38 39 39 39 40 40 40 40 40 40 39 39 40 40 40 40 39 39 37 36 35 34 33 33
34 35 35 34 34 34 34 34 34 34 34 34 35 35 35 36 36 37 38 38 39 40 41 41 41 41 41 41 41 41 40 40 41 41 41 40 40 39 38 36 35 34 34 33
36 36 36 36 36 36 36 36 36 36 36 36 37 37 37 37 37 38 39 39 40 41 42 42 43 43 43 43 42 42 41 41 41 42 41 41 40 39 38 37 36 35 34 33
37 37 37 38 38 37 37 37 38 38 38 38 38 39 39 39 39 40 41 41 42 42 43 43 44 44 43 43 43 43 42 42 42 42 41 40 39 38 38 37 36 35 35 34
37 37 38 38 38 39 38 38 39 39 40 40 40 40 40 40 41 41 42 42 43 43 44 44 44 44 44 44 43 43 43 42 42 42 41 39 39 38 37 36 35 35 34 33
37 38 39 39 39 39 39 40 40 40 40 41 41 41 42 42 42 43 43 44 44 44 45 45 45 45 45 44 43 43 43 43 42 41 40 39 38 37 36 35 35 34 33 32
37 37 38 38 39 40 40 40 40 40 40 41 41 42 42 43 44 44 44 45 45 45 45 45 45 46 45 44 43 43 43 42 42 41 39 38 37 36 35 35 34 33 32 31
37 37 37 38 38 39 39 40 40 40 41 41 42 42 43 44 44 45 45 45 45 45 46 46 46 46 45 44 43 42 41 41 40 39 38 36 35 35 34 34 33 32 31 30
36 36 37 37 37 38 39 39 40 40 41 41 42 42 43 44 45 45 45 45 45 45 45 45 45 44 43 42 41 41 40 39 38 38 36 35 35 34 33 32 31 30 29 29

GEFSNGP_500_meanwind_126.txt.gz
Wind_Speed
3 2 2 3 4 4 4 4 5 4 4 4 4 3 3 4 5 4 4 4 4 4 5 6 7 7 7 8 9 11 12 14 15 18 20 22 24 26 27 29 30 31 32 34
3 3 4 4 5 5 4 5 5 5 5 5 4 3 4 4 5 5 4 4 4 4 5 6 6 7 7 7 7 8 9 12 14 16 18 20 23 26 28 29 29 30 31 33
4 4 4 4 4 5 5 5 5 5 5 5 4 4 4 3 3 4 4 5 5 6 6 6 6 7 7 7 8 10 12 13 15 17 19 22 24 26 27 28 29 31 33 35
5 5 4 4 4 4 5 6 6 6 6 7 6 5 5 5 5 5 5 5 6 6 7 6 6 7 8 9 10 11 12 15 16 18 20 22 24 24 25 27 28 30 32 34
7 6 6 5 5 6 6 7 7 8 8 8 8 7 7 7 7 7 7 7 7 7 7 7 8 9 10 11 12 13 14 16 18 19 21 22 23 23 24 25 27 29 30 32
10 9 8 8 7 7 7 7 8 9 9 10 10 9 8 9 9 9 8 8 8 8 8 8 9 10 11 12 13 15 16 17 19 21 22 23 23 24 25 26 28 29 30 30
12 12 11 10 10 9 9 9 9 9 9 10 10 9 9 9 9 9 9 9 9 9 10 11 12 13 13 15 16 17 19 20 21 22 24 24 24 25 26 27 29 30 30 31
15 14 14 13 13 12 12 11 11 11 11 11 11 11 11 11 11 12 12 12 12 12 13 14 15 16 17 18 19 21 22 23 24 25 26 26 27 27 27 28 30 30 30 31
19 17 17 17 16 16 15 15 14 14 14 13 13 13 13 13 13 13 13 14 14 14 16 16 17 18 19 20 22 23 24 25 27 27 27 28 29 29 30 31 32 31 31 32
22 21 21 20 19 19 19 18 17 17 17 16 15 15 15 15 15 15 15 15 16 16 17 18 19 20 21 22 24 25 27 29 29 29 29 30 31 31 32 33 33 33 33 33
25 25 24 23 22 22 21 21 21 20 20 20 19 19 19 18 17 18 18 18 19 19 20 21 22 23 24 25 26 27 29 30 31 32 31 32 33 33 33 34 34 35 35 35
27 27 27 25 25 23 23 22 22 22 22 22 22 21 21 20 20 20 20 21 21 21 22 23 24 25 26 27 29 30 31 32 33 34 34 34 35 35 35 36 36 36 36 35
29 29 29 28 28 27 26 25 24 24 24 24 23 23 23 23 23 23 23 24 24 24 24 25 26 27 28 30 31 32 33 34 35 35 36 36 37 37 37 37 37 36 36 36
31 31 31 31 31 29 28 27 26 26 26 26 26 26 26 26 26 26 27 27 27 28 28 29 29 30 31 32 33 34 35 36 37 37 37 37 37 38 38 39 38 38 37 37
32 33 32 32 32 32 31 30 28 28 28 28 28 28 28 28 28 28 29 29 30 30 31 31 32 33 34 34 35 36 37 38 39 39 38 38 39 39 39 39 39 39 39 39
34 34 34 34 34 34 33 33 32 31 30 30 30 30 30 30 30 30 31 31 32 32 33 34 34 35 36 37 37 38 39 40 41 40 40 40 40 40 40 40 41 41 41 40
35 35 36 36 36 35 35 36 35 34 33 33 33 33 33 32 32 33 33 33 34 34 35 35 36 36 37 38 39 40 41 41 42 42 42 41 41 41 41 42 42 42 42 41
36 36 37 37 37 37 37 37 36 36 36 35 35 35 35 35 35 35 35 35 35 36 36 37 38 39 39 40 40 41 42 43 44 44 43 43 42 42 42 42 42 42 41 41
38 38 39 39 39 39 39 39 38 38 38 38 37 36 36 36 36 36 37 37 37 38 38 39 40 40 41 42 43 43 43 44 44 44 44 44 44 44 43 43 42 42 41 40
38 38 39 39 39 40 40 40 40 39 39 39 39 38 38 38 38 39 39 39 39 40 40 41 41 42 43 44 44 45 45 46 45 45 45 45 45 45 44 43 42 41 40 39
39 39 39 39 39 40 40 41 41 41 41 40 40 40 40 40 41 41 41 41 41 42 42 43 44 45 45 45 46 46 46 47 47 46 46 45 45 45 44 43 42 41 40 39
38 39 39 40 40 41 41 42 42 42 42 41 41 41 42 42 42 42 43 43 43 44 44 45 45 46 46 46 46 47 47 47 47 47 46 46 45 44 43 42 41 40 39 38
38 39 39 40 40 40 41 41 42 42 42 42 42 43 43 43 44 44 44 44 45 46 46 46 46 47 47 47 47 47 47 47 47 46 46 45 45 43 42 41 40 39 38 37
37 38 39 40 40 40 40 41 41 42 42 43 43 43 44 44 44 44 44 45 45 45 46 46 46 47 47 47 47 47 47 47 47 46 45 44 43 42 40 39 38 38 37 37
36 37 38 39 40 41 42 42 42 41 41 41 41 42 42 43 43 43 44 44 44 45 45 45 46 46 47 47 47 47 47 47 46 45 43 42 40 39 39 39 38 38 37 36
36 36 37 38 39 40 40 40 40 41 41 41 41 41 42 42 42 42 43 43 44 45 45 46 46 46 47 47 47 46 45 44 43 42 41 40 39 38 38 38 37 36 36 35
36 37 37 38 39 39 39 39 39 40 41 41 42 42 42 42 42 42 43 43 44 44 44 45 45 46 45 45 44 43 42 41 40 39 39 39 38 37 36 36 35 34 34 33

GEFSNGP_500_meanwind_132.txt.gz
Wind_Speed
2 3 3 3 3 3 4 4 4 4 3 3 3 2 3 4 5 5 5 5 5 5 5 6 7 7 8 8 8 8 10 11 14 15 17 18 19 20 22 23 25 26 27 29
4 4 4 4 4 4 4 4 4 5 4 4 4 4 4 4 4 5 5 5 5 6 6 6 6 6 6 7 9 9 10 11 13 15 17 19 20 21 21 23 24 26 28 30
4 5 5 5 5 5 5 5 6 6 5 4 4 5 5 5 5 5 5 5 6 7 7 7 7 7 8 8 8 9 10 11 13 14 16 18 19 21 23 24 25 27 29 31
7 7 7 7 7 6 6 6 7 7 6 6 5 5 5 5 5 5 6 6 7 7 7 7 8 8 9 9 9 10 11 12 13 14 15 16 18 20 21 23 25 27 29 31
10 10 9 9 8 8 8 8 8 7 7 7 7 6 6 5 5 5 6 6 7 7 8 8 9 9 9 9 10 11 12 14 15 16 17 17 19 20 21 22 24 25 27 29
12 12 12 11 11 10 10 9 9 9 8 9 9 9 8 7 6 6 6 7 7 8 9 9 10 11 11 11 12 13 14 15 16 17 17 19 20 22 22 24 25 25 26 27
14 15 15 14 14 13 12 12 11 11 11 11 11 11 11 10 10 9 9 9 10 10 11 11 12 13 13 14 14 15 16 16 17 19 19 20 21 22 23 25 26 27 27 27
17 17 17 18 17 16 15 14 13 13 13 13 13 13 13 13 13 13 13 13 13 13 14 14 14 15 15 16 16 17 18 18 19 20 21 22 23 24 26 27 28 29 29 29
18 18 19 18 18 18 17 16 15 15 15 15 14 14 14 14 15 16 16 16 16 16 16 16 16 17 17 18 18 19 20 20 22 23 24 25 26 27 28 29 30 31 31 31
20 20 21 20 19 19 19 18 17 17 16 17 16 17 17 17 17 17 17 18 18 18 18 18 18 19 19 20 21 21 22 23 24 25 26 27 28 29 30 31 32 32 33 33
22 22 24 23 22 22 21 21 20 19 18 18 18 18 18 19 19 20 20 20 20 20 20 21 21 21 22 22 23 24 24 25 26 28 29 30 30 31 32 33 33 34 34 34
24 25 26 25 25 24 23 23 23 22 21 21 21 20 20 20 21 21 22 22 22 23 23 23 23 23 24 24 25 26 27 28 29 30 31 32 32 32 34 35 35 35 35 35
28 28 28 27 28 28 26 25 26 25 24 24 24 24 24 24 24 24 24 24 24 24 25 25 25 26 26 26 28 29 29 30 30 31 32 32 33 34 35 36 37 37 36 36
31 31 30 29 30 30 30 29 29 28 27 27 27 27 27 27 27 27 27 26 26 26 26 26 27 27 28 29 29 31 31 32 33 33 34 35 36 37 37 37 37 37 37 37
33 33 33 32 32 32 32 32 32 32 31 30 29 29 29 29 29 29 28 28 28 28 28 29 29 30 30 31 32 32 33 33 34 35 35 36 37 38 39 39 39 38 38 37
33 34 35 34 34 34 34 34 34 35 34 33 32 31 31 30 30 30 30 30 30 30 30 31 31 32 32 33 34 34 35 35 36 36 37 37 38 39 40 41 40 40 39 38
34 34 35 35 35 35 36 37 37 37 37 36 35 34 33 33 32 32 32 32 32 32 33 33 33 34 34 34 35 36 37 37 38 38 39 39 40 41 41 41 41 40 40 39
34 35 36 36 36 36 37 38 39 39 38 38 38 37 36 36 35 35 35 35 35 35 35 35 36 36 36 36 37 37 38 39 39 40 40 41 42 42 42 42 42 41 40 40
34 34 35 35 36 36 37 37 38 39 39 39 39 39 39 38 38 38 38 37 37 37 37 38 38 38 38 38 39 39 40 40 40 41 41 42 43 43 43 43 42 41 40 40
33 34 34 34 35 36 36 37 38 39 39 39 40 40 40 40 40 40 39 39 39 39 39 39 39 39 39 40 40 40 41 41 42 42 43 43 44 43 43 43 43 42 41 40
34 34 34 34 35 36 36 37 37 38 39 39 40 41 41 41 41 40 40 40 40 40 40 40 40 40 41 41 41 41 41 42 43 43 44 44 44 44 44 44 43 43 42 41
34 34 33 34 35 35 36 36 37 38 38 39 39 40 40 41 40 40 40 41 41 41 41 41 41 41 41 41 41 41 42 43 43 44 44 45 45 45 44 44 44 43 42 41
34 34 34 34 35 36 36 37 37 38 39 39 39 40 40 41 41 41 41 41 41 42 42 42 42 42 42 41 41 42 43 43 44 44 44 44 44 43 43 43 43 42 41 40
35 35 35 35 35 36 37 37 37 38 39 39 39 40 40 40 40 41 41 41 42 42 41 41 42 42 42 42 42 42 42 42 42 43 43 43 42 42 42 41 41 40 40 40
35 35 35 35 36 36 37 37 37 37 38 38 39 40 40 40 40 40 40 40 41 40 40 41 41 41 41 42 42 41 41 42 42 42 41 42 41 41 40 40 39 39 39 39
35 35 35 35 36 36 37 37 37 37 38 38 39 39 40 41 40 40 40 39 39 39 39 40 40 40 41 41 40 40 41 41 41 41 40 40 40 39 39 39 39 38 38 38
34 34 35 35 36 36 36 36 36 36 36 36 37 38 38 39 39 39 39 39 39 38 38 39 39 39 39 39 39 40 40 40 40 40 40 39 38 38 38 38 37 37 37 36

GEFSNGP_500_meanwind_138.txt.gz
Wind_Speed
10 10 9 9 10 10 11 11 11 10 10 10 9 9 9 9 7 6 6 6 6 6 6 6 7 8 9 9 8 9 9 9 10 12 13 15 17 18 19 19 20 21 22 23
11 11 11 11 11 11 11 11 11 10 10 10 10 10 9 9 7 6 5 6 6 6 6 6 7 8 9 10 10 11 11 10 10 12 13 14 15 17 18 20 21 22 23 24
14 13 13 12 12 12 12 11 12 11 10 10 10 11 10 9 8 8 6 5 6 6 7 7 7 8 9 10 11 11 12 12 13 14 15 15 16 17 18 19 21 23 24 25
16 16 15 14 14 14 14 13 13 12 11 12 12 12 12 11 10 9 9 9 8 8 9 9 10 9 9 10 11 13 14 14 14 15 15 15 16 17 18 20 22 23 24 25
19 18 17 15 15 16 16 15 14 14 13 13 14 14 13 13 12 11 10 10 10 10 10 11 11 12 12 12 13 14 14 14 15 15 15 16 17 18 20 21 22 23 24 26
22 21 19 17 17 18 18 16 16 16 15 14 15 14 14 13 13 13 13 13 13 13 12 12 12 13 13 13 14 14 14 14 14 15 16 17 19 20 21 22 24 24 25 27
24 24 22 20 20 20 20 18 18 17 17 16 16 15 14 14 14 14 14 14 15 15 15 14 14 14 14 14 14 14 15 15 16 16 17 18 20 21 22 24 25 25 26 27
26 26 24 23 22 22 21 20 19 18 17 16 16 16 16 16 15 15 14 15 15 15 15 15 15 15 15 15 16 16 16 17 18 19 20 21 22 22 23 24 25 26 27 28
26 25 26 26 25 24 24 22 21 20 19 18 18 17 17 17 17 16 16 16 16 17 17 17 17 17 17 18 18 18 19 19 20 21 22 23 24 25 26 26 27 28 29 30
28 26 28 28 28 27 27 25 24 23 22 21 20 21 20 20 19 19 19 19 19 19 19 19 19 19 20 20 20 20 21 21 22 23 24 25 26 27 28 29 30 30 31 32
30 28 30 29 30 29 29 27 26 25 25 23 23 23 23 23 22 22 21 21 21 21 21 21 22 22 23 23 23 23 24 24 24 25 27 27 28 28 29 30 31 32 32 33
31 30 31 30 30 31 31 30 28 27 27 26 25 25 25 25 25 24 23 23 23 23 24 24 24 24 25 25 26 26 26 27 28 28 29 29 29 30 31 31 32 32 33 34
33 33 34 32 31 32 32 32 31 30 30 28 27 27 27 27 27 27 26 26 26 26 26 27 27 26 26 27 27 27 28 29 30 30 30 31 31 32 32 32 33 34 34 35
34 35 34 33 33 32 32 32 32 31 32 31 30 29 29 29 29 29 29 29 28 28 28 28 28 28 29 29 29 29 29 30 31 31 32 33 33 34 34 34 34 35 36 37
35 36 35 34 33 33 32 32 33 33 33 33 33 32 32 31 31 31 32 31 31 31 30 30 30 31 31 31 31 31 32 32 33 34 34 35 35 35 35 35 36 37 38 38
36 36 36 35 35 34 34 33 34 34 35 35 35 35 35 34 34 34 34 34 34 33 33 33 33 33 33 33 33 34 34 35 35 35 36 36 36 36 37 37 38 39 39 39
36 36 36 36 35 35 35 35 35 35 35 36 36 36 37 37 36 36 36 37 36 36 36 36 36 36 36 36 36 36 37 37 38 37 37 37 38 38 38 38 39 39 40 40
37 36 36 36 36 36 36 36 36 36 36 37 38 38 38 38 38 38 38 38 38 37 37 37 37 37 37 38 38 38 38 38 38 38 39 39 39 39 39 39 39 40 41 41
36 36 36 36 36 36 37 37 37 37 37 38 39 39 39 40 40 39 39 39 38 38 38 39 39 38 39 39 39 39 39 39 39 39 40 40 40 40 40 41 41 41 42 42
36 36 36 36 36 36 36 37 37 37 38 39 39 40 40 40 41 41 41 40 39 39 40 40 40 40 40 40 40 40 40 40 41 41 41 40 40 41 41 41 42 42 43 44
37 36 36 36 36 36 36 37 37 37 38 39 40 40 40 41 41 42 42 41 40 41 41 41 41 41 41 41 41 41 41 41 41 41 41 41 41 41 42 42 42 43 44 44
37 36 36 37 37 37 37 37 38 38 39 40 40 40 41 41 41 41 41 41 41 42 42 42 41 41 41 41 41 41 41 41 41 41 41 42 42 42 42 42 43 43 44 43
37 37 37 38 38 38 38 38 38 38 39 40 40 40 40 40 40 40 40 41 41 42 42 42 41 41 40 40 40 40 40 40 40 41 41 41 41 41 41 42 42 43 42 42
38 37 38 38 39 39 39 39 39 39 39 39 39 39 39 39 39 39 39 39 40 40 40 40 40 40 40 40 40 40 40 40 40 40 40 40 40 40 40 41 41 41 40 41
37 37 37 37 38 38 39 38 38 38 38 38 38 38 38 38 38 38 38 38 38 38 38 39 39 39 39 40 39 39 39 38 38 39 39 39 39 39 40 40 40 39 39 40
36 36 36 37 37 38 38 37 36 37 37 37 37 37 37 37 37 37 37 37 37 37 37 37 37 37 38 38 38 38 38 38 38 38 38 38 38 39 39 39 38 38 39 39
36 36 36 37 37 37 37 36 35 36 36 36 36 36 35 35 36 35 35 35 36 36 35 35 35 36 37 37 37 37 37 37 37 37 37 38 37 38 38 38 37 37 38 38

GEFSNGP_500_meanwind_144.txt.gz
Wind_Speed
14 15 14 13 13 13 13 12 12 11 12 12 13 12 12 12 12 11 10 10 9 8 9 10 11 11 12 12 12 13 14 14 14 15 16 16 17 19 19 20 21 21 23 24
16 16 16 15 14 14 14 14 13 12 12 13 13 13 13 13 12 11 10 9 9 9 9 9 10 10 11 11 11 12 13 14 15 15 15 15 16 17 18 18 18 19 21 21
17 18 19 17 16 15 15 15 14 13 12 13 13 13 13 13 12 11 10 10 9 9 10 9 10 10 11 11 11 12 13 14 15 15 15 15 15 16 17 17 17 18 18 17
21 20 21 19 18 17 16 16 15 14 14 14 14 13 13 13 12 12 11 11 10 10 10 10 11 11 12 13 13 13 14 15 16 17 16 16 16 16 17 17 18 19 19 19
24 23 21 20 19 19 18 17 16 16 16 15 15 14 14 14 13 12 12 11 11 11 11 11 11 12 13 14 15 16 15 16 16 17 17 16 16 17 17 18 18 19 19 20
26 25 23 20 19 20 21 20 19 18 17 17 16 16 15 15 15 14 13 13 13 13 14 13 14 14 14 14 15 16 16 16 17 17 18 18 18 18 19 19 19 19 20 21
28 28 25 23 21 21 22 22 22 21 20 19 19 18 17 17 17 16 16 15 15 15 15 15 15 15 16 16 17 17 18 18 18 18 19 19 20 20 20 20 20 21 22 23
30 30 28 26 25 25 24 24 24 23 23 22 21 20 20 20 19 19 19 18 17 17 17 17 17 17 18 18 19 19 20 20 20 20 21 21 21 22 22 21 22 23 23 24
34 32 30 29 29 28 28 27 27 26 24 24 23 22 21 21 21 21 21 21 20 19 19 19 19 19 20 21 21 21 21 21 20 20 21 22 22 23 23 23 24 24 24 25
36 32 31 32 31 31 31 30 29 27 26 26 25 24 23 23 22 22 22 23 23 22 22 21 21 21 21 22 22 22 22 23 23 22 23 24 25 25 25 25 25 26 27 28
36 34 34 34 34 33 32 32 31 29 28 28 27 27 26 25 24 24 24 24 24 24 24 24 23 23 22 23 23 23 24 24 25 25 25 25 25 25 26 26 27 27 28 29
37 35 36 35 35 35 34 33 32 32 30 29 29 28 27 27 26 26 25 25 25 26 26 26 26 25 24 24 24 25 25 26 27 27 27 27 28 28 29 29 29 30 30 30
39 38 39 38 36 36 36 35 34 34 33 33 31 31 30 29 28 28 27 26 26 27 27 27 27 27 27 27 27 27 28 28 29 29 30 30 30 31 31 32 32 32 32 33
40 41 41 39 38 37 37 36 36 36 36 35 34 33 32 31 30 30 30 29 28 29 29 29 29 29 29 29 29 30 30 31 31 31 32 32 32 33 33 34 34 34 35 35
40 42 42 41 39 38 38 38 37 37 36 37 36 35 34 33 32 32 32 31 31 31 31 31 31 31 32 32 32 32 32 33 33 33 34 34 34 34 35 35 35 35 36 36
42 42 42 41 40 39 39 38 37 37 37 37 37 37 36 35 35 34 34 33 32 32 33 33 33 34 34 34 34 34 34 34 35 35 36 36 36 36 36 36 36 37 37 38
44 43 42 41 40 39 39 38 38 37 37 37 37 37 37 36 36 35 35 36 35 35 35 35 35 36 36 35 35 35 36 36 36 37 37 37 37 38 38 38 38 38 38 38
43 43 43 41 40 39 39 38 38 38 38 38 38 37 37 37 37 36 37 37 37 37 36 36 36 37 37 37 37 37 37 37 38 38 39 39 38 39 39 39 39 39 39 39
41 41 42 42 41 40 39 38 38 39 38 38 38 37 37 37 37 37 38 38 38 38 38 38 38 38 39 39 39 38 38 38 39 39 39 39 39 39 39 39 38 39 39 39
39 39 39 40 40 39 39 39 39 38 38 38 37 37 37 37 38 38 38 38 38 39 39 40 40 39 39 39 39 39 39 39 39 39 39 39 39 39 38 38 38 38 38 38
36 37 37 37 38 38 38 38 39 38 38 38 37 37 37 37 38 38 38 38 39 39 40 40 40 39 39 39 39 39 39 39 38 38 38 38 38 37 37 37 36 36 36 37
34 34 35 35 36 36 36 36 36 36 37 37 37 37 37 37 37 37 37 38 38 39 39 39 39 39 39 39 39 39 39 39 38 37 37 37 36 36 36 36 35 36 36 36
33 34 34 33 33 34 34 34 34 35 35 35 36 36 36 37 37 37 37 37 37 37 37 37 38 38 38 37 37 37 37 37 36 36 35 35 35 35 35 35 35 35 36 36
35 35 34 34 33 33 33 34 34 34 34 35 35 36 36 36 36 36 37 37 37 37 36 36 36 35 35 35 35 35 35 35 35 35 35 35 35 35 34 34 34 35 35 36
36 35 35 35 35 34 34 33 33 34 34 34 35 35 35 34 35 36 36 36 36 36 36 35 34 34 34 34 34 34 34 34 34 34 34 34 34 34 34 34 34 35 35 35
37 36 35 36 35 34 34 33 34 34 34 33 33 33 33 33 33 34 34 34 34 34 34 33 32 32 32 33 33 33 34 34 35 35 35 35 35 34 34 35 35 35 35 35
36 36 35 35 35 34 33 33 33 34 33 33 32 32 32 32 32 32 32 31 31 31 31 32 31 31 31 31 32 32 33 34 34 34 34 34 34 34 34 34 34 34 34 35

GEFSNGP_500_meanwind_150.txt.gz
Wind_Speed
21 21 21 21 21 22 22 21 20 18 18 18 19 20 20 20 20 20 20 20 20 20 19 19 18 18 19 19 19 20 20 21 22 23 24 24 25 25 26 27 27 26 27 28
24 23 24 23 23 23 22 21 21 20 19 19 20 21 21 21 21 20 20 20 20 20 19 19 18 19 19 19 19 19 20 20 20 21 22 22 23 24 24 25 26 26 26 26
28 26 26 26 24 23 23 23 22 21 20 21 21 21 22 21 21 21 20 21 21 20 20 20 20 20 19 19 19 19 19 19 19 19 20 21 21 22 23 24 25 25 25 25
30 29 29 27 25 25 25 25 24 23 22 22 22 23 23 23 22 21 21 21 21 21 21 20 20 20 19 19 18 18 18 18 18 18 19 19 21 22 22 23 23 23 24 24
33 33 32 29 27 26 27 27 26 26 25 25 24 24 24 24 23 22 22 22 22 22 22 21 21 21 20 19 19 19 19 19 19 19 20 21 21 22 23 23 23 23 23 22
36 36 35 32 29 28 29 29 28 28 28 27 26 26 25 26 25 24 23 23 22 22 22 22 22 22 22 22 21 21 21 22 22 22 23 23 23 23 23 23 23 23 23 23
38 39 37 35 33 32 32 31 30 30 30 30 29 28 28 28 28 27 27 26 25 24 24 24 23 23 23 23 23 23 23 23 24 25 25 25 25 25 25 25 25 25 25 26
41 41 38 35 35 34 34 34 34 33 33 32 31 30 30 30 30 29 29 28 27 27 26 25 25 24 23 24 25 24 24 24 25 25 25 25 26 26 25 26 26 27 27 27
43 41 40 38 38 36 37 37 37 37 36 35 34 32 31 31 31 31 30 29 29 28 27 27 27 26 24 24 25 25 25 25 26 26 26 26 27 27 27 27 28 29 29 29
45 42 41 40 39 38 38 39 39 39 39 38 37 35 34 34 33 32 32 31 30 30 28 28 28 27 27 27 27 27 27 27 28 28 28 28 28 29 29 30 30 31 30 31
46 44 43 42 41 40 41 41 42 41 41 40 38 37 37 36 35 34 33 33 32 31 30 30 30 28 28 28 28 28 28 28 29 30 30 29 29 30 31 31 31 31 32 33
46 44 46 45 43 43 44 44 44 44 42 41 40 38 37 37 36 35 34 33 33 33 32 32 32 31 30 30 30 30 30 30 30 31 32 32 31 31 32 33 33 34 34 34
46 46 47 47 46 46 46 45 45 45 44 42 41 40 39 38 37 37 35 35 34 34 34 33 34 33 33 32 32 32 32 32 32 32 32 33 33 33 33 34 34 34 34 34
46 48 48 48 48 47 47 46 46 46 44 43 42 41 40 39 38 38 37 37 36 36 36 35 35 34 34 34 34 33 33 33 33 33 33 33 33 33 33 34 34 34 35 35
47 49 49 48 48 48 47 47 46 46 45 44 43 43 42 40 40 40 40 39 39 38 38 38 38 37 37 37 35 35 34 34 34 34 34 34 34 35 35 35 35 35 36 36
47 48 49 49 49 48 47 47 46 45 44 44 44 44 43 43 42 42 41 41 41 40 40 40 40 39 39 39 37 36 35 35 35 35 35 35 35 36 36 36 36 37 37 37
48 47 48 48 48 48 47 47 45 44 43 43 44 44 43 43 43 43 42 42 42 41 41 42 41 41 41 40 39 38 37 37 37 37 36 36 36 37 37 37 37 37 38 38
47 47 47 47 47 46 46 45 44 43 42 42 42 42 42 41 42 42 42 42 42 41 40 41 41 41 41 40 40 39 39 38 38 37 38 38 38 38 38 38 38 38 38 38
45 45 45 45 45 44 43 43 42 41 40 40 40 41 41 41 41 41 40 40 40 39 39 40 39 39 39 39 39 39 39 38 38 38 38 39 39 39 38 38 38 38 38 38
44 44 44 44 43 42 41 41 41 40 39 38 38 38 38 38 38 38 37 37 37 38 38 38 38 37 37 38 38 38 38 38 39 39 39 39 39 39 39 38 38 38 38 38
43 43 42 42 42 41 40 40 40 39 38 37 36 36 36 36 36 36 36 35 36 36 36 36 36 36 36 36 37 38 37 37 38 38 38 38 38 38 38 38 38 38 38 37
42 42 41 41 40 40 39 38 38 37 36 35 35 35 35 35 35 35 34 34 34 34 34 35 35 35 35 35 35 36 36 37 37 38 38 38 37 37 37 37 36 36 36 36
41 41 40 39 39 38 38 38 37 36 35 34 34 34 34 34 33 34 33 33 33 33 34 33 34 34 34 34 35 35 35 36 36 36 36 36 36 36 36 35 35 35 34 35
41 41 40 39 38 37 37 37 36 35 35 34 33 33 33 33 32 32 33 32 32 32 32 32 32 32 32 33 33 34 34 35 35 36 36 36 35 34 34 34 34 34 34 34
40 40 41 40 39 38 37 36 36 35 34 33 33 32 32 32 31 31 31 31 31 31 31 31 31 31 31 31 32 32 33 33 34 35 35 35 34 34 33 33 33 33 33 33
40 40 39 39 39 38 37 36 35 34 33 33 32 32 31 31 31 30 30 30 31 31 31 30 30 30 31 31 31 31 31 32 33 33 33 33 33 32 32 33 32 32 32 32
40 39 38 37 37 37 37 35 34 33 33 33 32 31 31 31 31 31 31 31 31 30 30 31 31 31 31 31 31 31 31 31 31 31 31 32 32 32 32 32 32 32 32 32

GEFSNGP_500_meanwind_156.txt.gz
Wind_Speed
25 24 24 23 22 22 22 22 23 22 22 21 23 23 23 23 23 23 24 23 23 23 23 23 23 24 23 23 24 24 25 25 26 27 27 27 28 28 29 29 30 31 32 33
27 26 25 25 24 25 25 25 25 25 24 23 24 25 25 25 25 24 23 24 25 25 24 24 24 24 24 24 24 24 24 25 25 26 26 27 27 27 27 28 29 29 30 31
29 28 28 27 26 26 26 26 27 27 26 26 26 27 27 27 26 26 25 25 26 26 26 25 26 25 25 25 24 25 25 25 26 26 26 26 27 27 27 27 28 28 29 30
32 32 32 29 28 28 28 28 29 29 29 30 29 28 28 28 27 27 27 28 27 27 27 27 27 27 27 27 27 27 26 26 26 26 26 25 25 26 26 26 27 28 29 29
34 34 34 31 30 30 31 30 30 31 31 32 31 31 30 29 29 28 28 28 29 29 29 29 29 28 28 28 28 28 27 27 27 27 27 26 26 26 26 26 26 27 28 29
36 36 35 33 33 33 34 33 31 32 33 33 32 32 31 30 30 30 30 30 30 30 30 30 30 29 28 28 28 28 27 27 27 26 26 27 26 26 27 27 27 27 28 28
38 38 37 35 35 35 35 35 35 35 34 34 34 34 33 32 32 31 31 31 31 31 31 31 31 31 30 29 29 30 29 28 28 27 27 27 27 27 27 28 28 28 29 29
40 40 39 37 38 38 39 39 39 38 38 37 37 36 35 35 34 33 32 32 32 32 32 32 32 32 31 31 31 31 30 30 29 28 28 29 29 28 28 29 29 29 29 30
43 42 41 41 41 42 42 42 41 40 40 40 40 39 38 37 36 35 34 33 34 34 33 33 34 33 32 31 31 31 31 30 30 29 29 29 30 29 29 30 31 31 30 30
45 44 43 44 45 45 45 44 43 42 41 41 41 41 40 39 38 37 36 35 36 36 35 34 34 34 34 33 32 32 31 31 31 30 30 30 31 31 32 32 32 32 32 32
46 45 46 46 47 47 47 47 45 44 43 43 42 41 41 41 40 39 38 37 37 38 37 36 36 36 36 35 34 33 33 33 33 33 33 32 32 32 33 33 33 33 33 33
47 46 49 48 47 48 48 46 46 46 45 44 44 43 42 42 41 40 40 39 39 39 39 38 37 37 37 37 36 35 34 35 35 34 34 34 33 33 34 35 35 34 34 34
49 49 50 49 47 48 48 47 46 47 46 46 45 45 44 43 42 42 41 41 41 40 40 39 38 38 38 38 38 37 36 35 36 35 35 35 35 35 35 35 35 35 35 35
49 50 50 49 48 48 48 48 48 47 47 47 47 46 45 44 43 43 42 41 41 41 40 39 39 39 38 38 38 37 37 36 36 36 35 35 35 35 35 36 36 35 35 35
50 50 50 49 48 48 48 48 48 47 47 46 46 45 45 45 44 43 42 42 41 40 40 39 38 39 38 38 38 38 38 37 37 36 36 36 35 35 34 35 35 35 36 35
48 49 49 48 48 48 48 48 47 46 46 45 45 44 44 44 44 43 42 41 41 40 39 39 39 39 40 39 38 38 37 37 37 36 36 35 35 34 34 34 34 34 35 35
47 47 47 47 47 47 47 47 46 46 45 45 44 43 42 42 42 42 41 41 41 41 40 39 39 40 40 39 38 37 37 37 37 37 36 36 35 35 34 34 34 35 35 35
46 46 45 45 45 45 45 45 45 44 44 42 41 41 40 40 40 40 40 40 40 39 39 39 39 39 39 38 37 37 37 37 37 37 37 37 36 36 35 35 35 35 35 36
45 45 45 45 45 45 44 44 43 43 42 42 41 40 39 39 39 38 38 38 38 37 37 37 37 38 38 38 37 37 37 37 37 37 37 37 37 36 35 35 35 35 35 35
44 44 44 44 44 44 43 43 42 42 41 41 40 39 39 38 37 37 37 36 36 36 37 36 37 37 36 36 36 36 36 36 36 37 37 37 37 36 35 35 35 35 35 35
44 44 44 43 43 42 41 41 41 41 40 40 39 38 38 37 36 36 35 34 34 35 35 35 35 35 35 35 35 35 35 35 35 35 35 36 36 36 35 35 34 34 33 34
43 43 42 42 41 41 40 40 39 39 39 38 37 36 35 35 35 35 34 33 33 33 33 33 34 34 34 33 33 34 34 34 34 35 35 35 35 35 35 35 34 34 34 33
41 41 40 39 39 38 38 38 38 38 37 36 36 35 34 33 33 33 33 32 32 32 32 31 31 32 32 32 32 32 33 33 33 33 33 33 33 33 33 33 34 33 33 33
40 40 39 39 39 39 38 37 37 36 35 35 35 34 34 33 32 31 30 30 30 30 30 30 30 30 30 30 30 30 31 31 32 32 32 32 31 31 31 32 32 32 32 32
40 40 39 39 38 37 36 36 35 35 34 33 32 32 32 31 30 30 29 29 29 28 29 29 29 29 28 28 28 28 28 29 30 30 30 30 30 30 30 30 31 31 31 31
38 39 38 37 36 35 34 34 34 33 32 32 30 30 30 30 30 29 28 27 27 27 27 27 27 27 26 26 26 27 27 27 28 29 29 29 29 30 30 30 30 30 30 29
36 36 35 34 33 33 32 32 31 30 30 30 29 29 28 28 28 27 26 26 26 25 25 25 25 25 25 25 25 25 26 27 27 28 28 29 29 29 29 29 29 28 28 27

GEFSNGP_500_meanwind_162.txt.gz
Wind_Speed
30 30 30 28 27 28 28 28 29 27 27 26 28 29 29 29 29 29 29 29 29 29 29 30 30 30 30 31 31 31 31 31 31 32 33 33 34 34 34 34 34 34 34 33
33 33 34 32 30 29 29 30 30 30 28 29 30 31 31 31 31 31 31 31 31 31 32 32 32 31 31 31 31 31 31 31 31 32 32 33 33 34 33 33 33 33 33 33
36 35 36 35 33 33 33 32 32 31 31 32 32 32 32 33 33 33 33 33 34 33 33 32 32 32 32 32 32 32 32 32 32 32 33 33 33 33 33 33 33 33 33 33
39 39 39 37 35 35 35 34 34 34 34 35 35 34 34 34 35 35 35 34 35 35 35 35 34 34 34 33 33 33 33 33 33 33 33 33 33 33 33 33 33 34 34 34
42 42 41 39 37 37 37 37 37 37 36 36 36 36 36 36 36 37 37 37 37 37 36 36 35 35 35 35 35 35 35 35 35 34 34 34 34 34 34 34 34 34 34 34
44 45 44 41 40 39 40 41 39 39 38 38 38 38 38 38 38 38 39 38 38 37 37 37 37 36 36 36 35 35 35 35 35 35 35 34 34 34 34 34 34 34 34 34
45 46 45 43 42 42 42 42 41 41 41 40 40 40 40 40 40 40 39 39 39 39 38 38 38 37 37 37 36 36 36 36 36 36 36 35 35 35 35 35 35 35 34 34
46 47 45 43 44 43 43 44 44 44 44 43 43 43 43 42 41 40 40 40 40 40 39 39 39 39 38 38 38 38 38 37 37 37 37 36 37 36 36 37 37 36 36 36
48 47 45 45 45 45 45 46 46 47 46 46 46 46 45 44 42 42 41 41 41 41 41 40 40 41 40 39 39 39 39 39 39 39 38 38 38 38 38 38 38 37 37 37
50 47 47 47 47 47 48 48 49 49 49 48 48 48 47 46 44 43 43 43 43 43 42 42 42 42 42 42 41 41 40 40 40 40 39 39 39 39 38 37 37 37 37 36
51 49 49 49 50 50 51 51 51 51 51 50 50 49 48 47 46 46 45 45 45 44 44 43 44 44 44 44 43 43 42 42 41 41 40 40 39 39 38 38 38 37 37 36
51 50 51 50 50 51 52 52 52 52 52 51 51 49 49 48 48 47 47 46 45 44 44 44 44 44 44 45 44 44 44 43 43 42 41 40 40 39 39 39 38 38 38 37
52 51 51 51 51 51 52 52 51 52 52 52 51 50 49 48 47 47 46 46 45 44 44 44 44 43 44 45 45 45 44 44 43 43 42 41 40 39 39 39 38 38 38 38
52 52 52 51 51 51 52 51 51 51 51 50 50 49 48 48 47 46 46 46 45 45 44 44 44 44 44 45 45 44 44 43 43 42 42 41 40 39 39 39 38 38 37 37
52 52 53 52 51 51 51 51 50 50 50 49 49 49 49 48 47 46 46 46 45 45 44 44 44 43 44 45 45 44 43 42 42 42 41 40 40 39 39 38 38 37 37 37
51 52 52 51 50 50 50 50 50 49 49 49 48 48 47 47 47 46 45 45 45 44 43 44 44 44 44 45 44 44 42 42 41 40 40 39 39 39 39 38 38 37 37 38
50 50 50 50 50 49 49 49 49 49 48 48 48 47 48 47 47 46 46 46 45 44 44 45 45 45 44 44 43 42 41 40 40 39 39 39 39 39 38 38 37 37 37 38
48 48 48 49 49 48 48 48 48 48 48 48 48 47 47 46 46 45 45 46 45 45 45 45 45 44 43 42 41 41 40 40 39 39 38 38 38 38 38 37 37 36 36 36
45 46 46 46 47 47 46 46 46 46 46 46 46 45 45 45 44 44 44 44 44 43 43 43 43 42 41 40 39 39 39 39 38 38 38 37 37 36 36 36 36 35 35 34
45 45 46 46 46 46 45 45 45 44 44 44 44 44 43 43 44 44 44 43 42 42 41 40 40 39 39 38 37 37 37 37 37 37 36 36 35 34 34 34 34 34 33 32
44 45 45 45 45 44 44 44 43 43 42 42 43 43 43 43 43 43 43 42 40 40 39 38 37 36 36 36 35 35 35 35 35 35 35 34 33 32 32 32 32 32 31 30
42 43 43 43 42 42 42 42 42 42 42 42 41 41 41 41 41 41 40 39 37 36 36 35 34 33 33 34 34 33 33 33 33 33 33 33 32 31 30 30 30 30 30 30
40 41 41 41 41 41 41 40 41 42 41 41 39 39 39 38 38 38 36 35 34 33 32 32 31 31 31 31 31 30 30 30 30 30 30 30 30 29 29 29 28 29 29 29
40 40 40 40 41 41 41 40 41 41 40 39 38 37 36 35 35 34 33 32 31 30 29 29 28 29 29 28 28 28 28 28 27 28 27 27 27 27 28 28 28 28 28 28
37 37 37 37 38 39 39 38 38 38 37 36 34 33 33 33 32 31 30 30 29 28 27 26 26 26 25 25 25 25 25 25 25 26 26 26 26 26 26 26 26 27 27 27
37 37 37 37 36 36 35 35 34 33 33 32 31 31 31 30 29 28 28 27 26 26 26 25 24 23 23 23 23 23 23 23 24 25 25 25 25 25 25 25 25 25 25 25
36 36 36 35 34 34 33 32 31 30 29 29 28 28 28 28 27 26 26 25 25 25 24 23 22 22 22 22 22 22 22 23 23 24 24 24 24 24 25 25 24 24 24 24

GEFSNGP_500_meanwind_168.txt.gz
Wind_Speed
32 32 32 31 30 31 31 31 31 29 29 28 29 29 29 30 30 30 31 31 31 31 32 33 33 34 35 35 35 36 36 37 37 37 38 38 37 37 37 37 37 36 36 36
35 34 35 35 33 33 34 34 34 33 31 31 32 32 32 32 33 33 33 33 33 34 35 35 35 36 36 37 37 38 38 38 38 38 38 39 39 38 38 38 37 36 36 36
37 37 37 37 35 35 35 35 35 35 34 35 34 34 35 35 35 35 35 35 36 36 36 37 37 38 38 39 39 39 39 39 40 40 40 39 39 39 39 39 38 38 37 37
40 40 40 38 37 37 37 37 38 38 37 38 38 38 38 38 37 37 37 37 37 38 38 39 39 40 40 40 40 40 40 40 40 41 40 40 40 40 40 39 38 38 38 38
43 43 42 39 39 39 40 40 39 40 40 40 40 40 40 39 39 39 38 38 39 40 40 41 41 41 41 41 41 41 41 41 41 42 41 41 41 41 41 40 40 39 39 39
44 45 44 41 41 41 42 42 40 41 41 42 42 42 41 41 41 41 41 41 42 42 42 42 42 43 43 43 43 43 43 43 42 42 42 42 42 41 41 41 40 40 40 40
45 46 46 43 42 42 42 42 42 42 42 43 43 44 43 43 43 43 43 44 44 44 44 44 44 44 44 44 44 44 44 44 44 43 43 43 43 42 42 42 42 41 41 41
45 46 45 43 44 44 44 44 44 43 43 44 44 44 44 45 45 45 45 45 45 45 45 45 46 46 46 45 45 45 45 45 45 45 45 45 45 44 44 43 42 42 42 42
47 47 45 45 45 46 46 46 45 45 45 45 45 45 46 47 47 47 47 47 48 48 48 48 48 47 47 46 46 46 46 46 46 46 46 46 46 45 44 44 44 43 44 43
49 47 46 46 47 47 48 49 49 49 48 48 48 48 48 48 49 49 49 49 49 50 50 49 48 48 47 47 47 46 46 47 46 46 46 46 46 46 46 45 45 45 45 44
51 48 48 49 49 50 51 52 52 52 51 51 51 51 51 50 50 49 49 49 49 49 49 49 48 48 47 47 47 47 47 46 46 45 45 45 45 45 45 46 46 46 45 45
49 48 50 50 50 51 52 52 52 52 52 51 52 52 51 51 51 50 50 49 49 49 49 48 48 47 47 48 47 47 46 46 46 46 45 45 45 45 45 45 45 45 45 44
49 49 50 50 49 50 51 51 51 51 51 51 51 51 51 50 50 50 50 50 50 49 48 48 47 47 47 47 47 47 46 46 46 45 45 44 45 44 44 44 44 44 43 43
48 49 50 49 49 48 48 49 49 50 50 50 50 50 50 50 49 49 50 50 50 49 48 48 47 47 46 46 46 46 46 45 45 45 45 45 45 45 45 45 44 42 42 42
46 47 48 47 47 46 46 47 47 48 49 49 49 50 49 49 49 49 49 49 49 48 47 47 46 46 46 46 45 45 45 45 45 45 45 45 45 45 45 44 43 42 42 41
44 44 45 45 45 45 45 46 47 48 48 49 49 49 49 49 48 47 47 47 47 47 46 46 46 45 45 46 45 45 45 45 45 45 45 45 44 44 43 43 42 41 41 40
42 42 43 44 44 44 44 45 46 46 47 47 46 45 46 46 46 45 45 45 46 46 45 45 45 45 45 45 45 45 44 44 44 44 43 43 42 42 42 41 40 40 39 38
40 41 42 42 43 43 43 43 44 44 44 44 44 44 44 44 44 44 44 44 45 44 43 44 44 44 44 44 44 44 44 43 42 42 41 41 40 40 40 39 39 39 38 37
38 40 41 42 43 43 43 43 43 42 42 42 42 42 42 42 42 43 43 43 43 43 42 43 43 43 43 42 42 41 40 40 39 39 39 38 38 37 37 37 37 37 36 35
37 38 39 40 41 41 41 41 40 40 40 40 41 41 41 41 41 41 41 41 40 40 41 41 42 41 41 41 40 39 39 38 37 37 36 34 34 33 33 32 33 33 33 33
36 38 39 39 39 39 39 39 39 39 39 39 40 40 40 39 39 39 38 37 36 37 38 38 38 38 38 38 37 36 35 34 33 32 32 31 30 30 29 29 29 30 30 30
36 37 37 37 38 38 38 38 38 38 38 38 39 39 39 38 37 37 36 35 35 35 35 34 33 33 33 33 33 32 31 30 29 29 28 28 27 27 27 27 27 28 28 29
38 38 38 37 37 37 36 36 36 36 36 37 36 36 36 36 35 34 33 33 33 32 31 30 30 30 30 30 29 28 28 28 27 27 26 26 26 26 26 26 26 27 27 27
37 37 37 37 37 36 35 34 34 35 35 35 34 34 34 33 32 32 31 30 30 29 28 28 27 27 27 27 27 27 26 26 25 25 25 25 25 25 25 25 25 25 25 26
35 35 35 35 35 35 34 34 34 33 32 32 32 31 31 32 31 30 30 29 28 27 27 27 26 26 25 25 25 25 25 24 24 24 24 24 24 24 24 24 24 24 24 24
34 34 34 33 33 32 32 32 31 30 30 29 29 29 29 29 29 28 27 27 26 26 26 25 25 25 24 23 23 23 23 23 23 23 23 23 23 23 23 23 22 22 22 23
32 32 32 32 31 31 30 30 30 29 29 29 28 28 27 27 27 26 26 26 25 25 24 24 23 22 22 21 21 20 20 21 21 22 22 22 22 22 22 22 22 22 22 23

GEFSNGP_500_meanwind_174.txt.gz
Wind_Speed
37 37 37 37 37 38 38 38 39 37 36 34 35 35 35 35 35 35 35 35 36 36 37 37 38 38 39 40 41 41 42 42 42 42 42 43 43 43 43 42 42 43 43 43
41 40 41 41 41 41 40 40 41 41 39 38 39 38 38 38 38 38 38 38 38 39 39 39 40 40 41 42 42 43 43 43 44 44 44 44 44 45 45 45 44 44 44 44
44 43 44 44 41 41 41 41 41 42 40 40 41 41 40 40 40 41 41 40 40 40 40 41 42 42 43 44 44 44 44 44 45 45 45 46 46 46 46 46 46 46 46 45
46 46 47 44 42 42 42 41 42 42 42 42 41 40 41 41 42 42 42 42 41 42 42 43 44 44 45 45 45 46 46 46 46 47 47 47 47 47 47 47 47 47 47 47
47 49 50 47 44 43 44 43 42 42 42 42 43 42 41 41 41 42 42 43 43 43 43 44 44 45 46 46 47 47 47 47 47 48 49 48 48 48 48 48 48 48 48 48
48 49 50 47 46 45 46 46 43 43 43 43 44 44 42 42 42 43 44 45 45 45 45 45 45 46 47 47 48 49 49 50 50 50 50 50 50 49 49 49 49 49 49 49
47 49 49 47 46 45 46 45 45 45 45 45 45 46 45 44 45 46 46 46 47 47 46 46 47 48 48 49 50 50 51 51 51 51 51 51 51 51 51 50 50 50 50 50
47 48 47 45 45 45 45 46 46 46 46 46 47 47 47 47 48 48 48 47 47 47 47 47 48 49 49 50 51 51 51 51 52 52 52 52 52 52 51 51 51 51 51 50
48 49 47 46 46 46 47 48 48 48 48 49 49 49 49 49 49 49 49 49 49 49 49 49 50 50 50 50 51 51 51 51 51 52 52 52 52 51 51 51 51 51 51 50
49 48 46 46 47 47 48 49 49 49 49 49 49 49 49 50 50 51 51 51 51 52 51 51 51 52 52 51 51 52 52 51 51 51 52 52 52 51 51 51 51 51 50 50
49 48 48 48 47 48 48 48 49 49 49 50 50 50 50 51 51 52 53 54 54 54 54 53 53 53 52 52 53 53 53 52 52 51 52 51 51 51 51 51 50 50 49 49
48 47 48 48 48 48 48 48 49 50 50 51 52 52 52 52 53 54 54 55 56 55 55 55 54 54 53 53 54 54 53 53 52 51 51 51 50 50 50 50 50 49 49 49
48 48 48 46 46 46 47 48 49 50 50 50 51 52 52 52 53 53 54 54 54 55 55 55 55 54 54 54 53 53 53 52 52 51 50 49 49 49 48 48 48 48 48 48
46 46 46 45 45 45 46 47 48 48 48 48 49 50 51 51 52 52 52 52 53 54 54 54 54 54 53 53 53 53 52 51 51 50 49 48 48 48 48 47 46 46 46 46
44 44 44 43 43 44 44 45 45 45 46 46 47 48 49 50 50 50 51 51 51 51 52 52 52 51 51 51 51 51 50 50 49 49 48 49 48 48 47 47 46 45 44 44
42 42 42 42 42 42 42 43 44 44 45 46 46 47 48 49 49 49 49 49 49 49 49 49 49 49 49 49 49 49 48 48 48 49 49 48 48 47 46 45 44 43 42 42
41 40 41 42 42 42 42 43 44 44 45 45 45 46 47 47 47 47 47 47 47 47 47 47 47 47 47 47 47 46 46 46 47 47 47 47 46 45 44 43 43 42 41 41
38 39 40 40 41 42 42 43 44 45 45 45 46 46 46 46 46 45 45 45 45 45 45 45 46 46 46 46 46 45 45 45 45 45 45 44 44 43 42 42 41 41 40 39
37 38 38 39 39 40 40 41 42 43 44 45 45 45 45 44 44 44 43 44 44 44 43 44 45 45 44 44 44 43 43 43 43 42 42 41 41 40 39 39 39 38 37 36
35 37 37 38 38 39 39 39 40 40 40 41 42 41 41 41 42 42 42 41 41 42 42 42 43 43 43 43 42 41 41 41 41 40 39 38 38 37 37 36 35 34 33 32
35 36 36 37 37 38 38 38 38 38 38 38 39 39 39 39 39 40 40 39 39 40 41 40 40 40 40 40 39 38 38 37 36 35 35 34 34 34 33 32 31 30 29 28
36 37 37 36 36 36 37 37 37 38 38 38 37 38 38 37 37 37 37 37 37 38 38 37 36 35 35 35 35 34 34 33 32 31 31 30 30 29 28 28 27 27 26 26
37 37 37 37 37 36 35 35 36 36 36 36 37 37 36 35 35 35 35 34 35 34 34 33 32 31 30 30 30 30 30 30 30 29 28 27 27 26 25 24 24 24 23 23
38 37 37 37 37 36 35 34 34 35 35 35 35 35 34 34 34 34 34 33 32 32 31 30 29 28 27 27 26 26 26 26 26 25 25 25 24 23 23 23 23 23 22 22
37 36 36 36 36 36 35 34 34 34 34 34 33 33 33 34 34 33 32 32 31 30 29 28 27 26 25 24 23 23 23 22 22 22 22 22 22 22 22 22 22 22 21 21
35 34 34 34 34 34 34 34 33 33 33 32 31 30 30 30 31 30 30 29 29 28 28 26 25 24 23 22 21 20 20 19 19 19 19 20 20 20 20 19 20 20 20 20
34 33 33 32 32 32 32 31 31 30 30 29 28 27 28 28 28 28 28 27 27 26 25 24 23 22 21 20 19 19 18 17 17 17 18 18 19 19 19 19 19 20 20 20

GEFSNGP_500_meanwind_180.txt.gz
Wind_Speed
36 36 36 36 37 37 37 37 38 36 36 34 36 37 37 36 36 36 37 37 37 37 38 38 38 39 39 40 40 40 40 41 41 42 42 43 43 43 43 44 44 44 43 43
39 39 40 40 39 39 39 39 40 40 39 37 39 40 40 39 39 38 38 38 38 39 40 39 39 40 40 41 41 41 42 42 43 43 44 44 44 44 44 45 45 45 45 45
42 42 43 43 40 40 41 41 41 42 41 41 41 42 42 42 41 40 40 40 40 41 42 42 42 42 43 43 44 44 44 44 44 45 45 46 46 46 46 46 47 47 47 47
44 44 46 44 43 42 42 41 41 42 41 41 42 42 43 43 43 42 42 42 42 43 43 43 43 44 44 45 45 45 45 45 45 45 46 46 47 48 48 49 49 49 49 49
45 46 47 44 43 42 43 42 41 41 41 42 42 43 42 42 43 43 43 43 42 43 43 43 43 44 45 45 46 46 46 47 46 46 47 47 48 49 49 50 51 51 52 52
45 46 47 44 42 42 43 43 42 42 42 42 43 43 41 42 42 42 42 42 42 43 43 44 44 44 45 46 46 47 47 48 48 48 49 49 50 51 52 52 53 53 53 54
45 46 46 44 43 43 43 43 43 43 43 43 43 43 42 41 42 42 42 43 43 43 43 44 45 45 46 46 47 48 49 49 50 50 51 51 51 52 53 54 54 55 55 55
45 46 46 43 44 45 45 44 44 45 44 44 43 42 42 42 42 42 43 43 44 45 45 45 46 47 47 47 48 50 50 51 51 52 52 53 53 54 54 55 55 56 56 56
45 46 45 44 45 45 46 46 45 45 45 45 44 44 43 43 43 43 44 44 45 46 46 47 48 49 49 49 50 51 52 53 53 54 54 55 55 55 55 55 56 56 56 56
45 45 44 44 45 46 46 45 45 45 46 46 46 46 46 46 45 44 44 45 46 47 47 47 48 50 51 52 53 54 54 54 54 54 54 54 54 54 55 55 55 55 55 54
45 44 44 44 45 45 45 45 45 45 46 46 47 46 46 46 46 46 47 47 47 47 47 48 49 50 51 52 53 53 53 53 53 53 53 53 53 53 54 54 54 54 53 53
44 43 44 43 43 43 44 44 44 45 45 45 45 46 46 46 46 46 47 47 47 48 48 48 49 49 50 51 51 51 52 52 53 53 53 54 54 54 54 54 53 53 52 51
44 43 43 42 42 42 43 43 42 42 43 43 43 44 45 45 46 46 46 46 46 46 47 48 49 49 49 50 50 51 52 52 52 52 53 53 53 53 52 51 50 50 49 48
42 42 41 41 41 41 41 41 41 41 41 42 42 42 42 43 43 44 44 45 45 45 46 47 47 48 48 49 49 49 50 50 51 51 51 50 49 49 48 47 46 46 45 45
40 40 41 40 40 40 40 40 40 40 40 40 40 40 40 41 41 42 42 43 44 44 44 45 45 46 46 47 48 48 48 47 48 48 47 47 46 46 46 45 45 44 43 43
39 39 39 39 39 39 38 39 38 38 38 38 38 39 40 40 40 40 40 41 42 42 43 44 45 45 46 46 47 46 45 45 45 45 45 45 45 44 44 43 43 43 42 42
36 36 36 37 37 37 38 38 38 38 38 38 37 38 38 38 38 39 40 41 42 43 43 44 45 45 45 45 45 45 44 43 43 43 43 43 43 43 42 42 42 42 42 41
33 33 34 34 35 35 36 36 36 36 36 36 36 37 37 37 38 39 39 40 41 42 42 43 43 43 43 44 44 44 43 43 43 43 42 42 41 41 41 41 41 41 40 40
31 31 31 32 32 33 33 34 34 34 34 34 35 35 36 37 38 39 39 40 40 40 40 41 42 42 42 42 42 42 42 42 41 41 41 40 40 40 39 39 39 39 38 38
31 31 31 31 31 32 33 33 33 33 33 34 34 34 34 35 36 38 38 38 38 39 39 39 39 39 39 39 39 39 39 39 39 39 39 38 38 37 37 37 37 37 36 36
30 30 30 31 32 32 33 33 33 32 32 33 34 34 34 35 36 36 36 36 35 37 36 36 35 35 35 36 36 36 36 36 36 35 35 35 35 35 35 35 35 34 34 34
31 31 31 31 31 32 32 33 33 33 33 34 34 35 35 34 34 34 34 34 32 33 33 32 31 32 32 32 32 33 33 33 33 32 32 31 31 32 32 32 31 31 31 31
31 31 31 31 31 31 31 32 32 32 33 33 34 34 34 34 34 33 32 31 30 30 29 28 29 29 30 30 30 29 29 29 28 28 28 28 28 28 28 28 28 28 28 28
30 30 31 31 31 31 31 31 31 31 31 32 32 32 33 33 32 31 30 29 29 28 28 28 28 29 28 28 27 27 26 25 25 25 25 25 25 25 25 24 24 24 24 24
31 31 31 31 30 30 30 29 29 29 29 30 30 30 30 30 28 28 28 28 27 28 27 27 27 27 26 26 25 24 24 23 22 22 22 22 22 21 21 20 20 20 20 21
31 31 31 30 30 29 29 29 28 28 29 29 28 28 28 27 27 26 26 26 26 26 25 25 25 24 24 24 23 22 21 20 20 20 19 19 18 18 18 18 18 18 18 18
30 30 30 29 29 29 28 28 28 28 28 28 27 26 26 25 25 25 25 25 24 24 23 23 22 22 21 21 21 20 19 18 18 17 17 16 16 16 17 17 17 17 17 16

GEFSNGP_500_meanwind_186.txt.gz
Wind_Speed
38 38 39 39 38 38 40 40 41 39 39 39 39 40 40 40 40 40 40 40 39 39 39 40 40 40 41 41 40 41 41 42 42 42 43 43 44 44 44 44 45 46 45 46
41 40 42 43 42 41 41 41 42 42 41 40 41 41 41 41 41 41 41 41 42 42 42 42 42 42 43 43 43 43 43 44 44 44 44 45 44 45 45 44 45 46 45 45
43 42 44 45 42 43 43 42 43 43 42 42 43 42 42 42 42 43 43 44 44 44 44 45 45 45 45 45 46 45 45 45 46 46 46 46 46 46 45 45 46 46 47 47
46 45 46 44 44 44 44 44 44 44 43 43 43 43 44 44 44 44 45 46 46 45 46 46 47 47 47 47 47 47 47 47 47 47 47 47 48 48 47 47 47 48 48 49
46 47 47 45 45 45 45 45 44 44 45 44 43 44 44 44 44 45 45 46 46 46 47 47 47 47 48 48 48 48 48 48 48 48 49 49 49 50 50 50 50 50 51 51
46 47 48 46 45 44 46 47 45 46 46 46 45 45 44 45 45 46 46 46 46 46 47 47 47 47 48 48 48 48 49 49 49 50 50 51 51 51 52 52 52 52 52 53
45 46 48 46 45 45 46 47 46 46 46 47 47 46 46 45 46 46 47 47 47 47 47 47 47 48 48 48 48 49 50 50 50 50 51 51 52 53 54 54 54 54 54 54
44 45 45 44 44 45 46 47 46 46 47 47 47 47 46 46 46 46 47 47 47 48 48 47 48 48 48 47 48 49 49 50 50 51 51 52 53 54 55 56 56 56 56 56
45 44 43 43 44 45 45 46 46 47 47 48 48 48 48 47 46 46 47 47 47 48 48 48 48 48 48 48 49 49 50 51 51 52 52 53 54 55 56 56 57 57 57 57
44 43 43 44 44 45 45 46 46 47 47 48 49 49 49 48 47 47 47 48 48 49 49 49 48 48 49 49 49 50 50 50 51 52 53 54 55 56 57 57 57 57 57 57
44 44 45 45 45 45 45 46 46 47 47 48 49 49 49 48 47 47 48 48 48 49 49 48 48 48 48 48 49 49 49 50 50 51 53 53 54 54 55 55 55 55 55 55
43 43 44 43 44 44 44 45 45 46 46 46 47 48 48 47 46 47 48 48 48 48 47 47 46 46 46 47 47 48 48 49 50 50 51 52 52 51 52 52 52 53 53 54
43 42 42 42 42 43 44 44 45 45 45 45 46 47 47 46 46 46 46 46 46 46 45 45 45 45 45 46 46 46 47 47 48 48 49 50 50 50 50 50 50 51 52 52
42 41 41 41 42 42 44 44 45 44 45 45 45 46 46 45 45 45 45 44 44 43 42 42 43 43 44 45 45 45 46 46 47 47 48 48 49 49 50 50 49 49 49 49
40 39 39 40 40 40 40 41 41 41 42 42 43 43 43 43 43 43 43 43 42 41 40 40 41 41 42 42 43 44 45 45 46 46 46 47 47 47 48 47 47 47 46 47
37 38 38 38 39 38 39 39 39 38 38 39 39 39 40 40 40 40 41 40 40 39 39 39 39 39 40 41 42 43 44 44 45 45 45 45 45 45 45 45 45 45 45 45
36 37 37 37 37 37 37 37 38 37 37 37 37 37 38 38 38 38 38 39 39 39 39 39 39 40 41 42 43 43 43 44 44 44 43 43 43 42 42 42 42 42 42 42
35 35 35 35 35 35 36 36 36 36 35 35 36 35 34 35 36 36 37 38 38 38 39 40 41 41 42 42 43 42 42 42 42 42 41 40 40 40 40 40 39 39 39 39
31 32 32 32 32 33 33 33 34 34 34 34 34 34 34 35 35 36 37 37 38 38 38 39 40 40 41 41 42 41 41 40 39 39 39 38 38 38 38 38 38 38 37 37
31 31 32 31 31 31 31 32 32 33 33 34 34 34 34 35 36 36 36 37 37 38 38 38 39 39 39 39 39 39 38 38 38 37 37 37 36 36 36 36 37 37 37 36
32 32 32 32 32 32 32 32 32 32 32 33 33 34 34 34 35 35 36 36 35 36 37 37 37 37 37 36 36 35 35 35 35 35 35 35 35 35 35 35 35 36 35 35
32 32 31 31 31 31 31 31 31 31 31 31 32 33 33 33 33 34 34 34 34 35 35 35 35 35 35 34 33 32 32 32 33 33 34 34 34 35 35 35 35 34 33 33
31 31 31 31 30 30 30 30 30 30 31 31 31 32 32 32 33 34 33 33 33 33 32 32 32 31 31 30 30 30 30 31 31 31 32 32 33 33 33 33 32 31 30 29
31 31 31 30 31 31 30 30 30 30 30 30 30 31 32 32 32 32 32 31 30 30 29 28 28 28 28 28 29 29 28 28 29 29 29 29 29 29 29 29 28 27 27 26
30 30 29 29 30 29 29 29 28 28 29 29 29 30 31 31 30 30 29 29 28 27 27 26 26 27 27 27 27 27 27 27 27 27 26 26 26 26 25 25 24 24 23 23
29 28 28 29 29 29 29 29 28 28 28 28 28 28 28 28 28 27 26 26 25 25 25 25 25 25 25 25 25 25 25 24 24 23 22 22 21 21 20 20 20 20 20 20
28 28 28 28 28 28 28 27 27 26 27 26 26 25 25 25 25 24 23 23 23 23 23 23 24 24 23 23 22 22 22 21 21 20 20 19 18 18 17 17 17 17 17 17

GEFSNGP_500_meanwind_192.txt.gz
Wind_Speed
37 37 37 37 36 37 38 37 38 37 37 36 37 37 38 38 38 38 39 39 40 39 39 39 39 40 40 41 42 42 43 43 43 43 44 44 44 43 44 45 46 45 44 45
39 39 40 40 39 39 39 39 40 40 39 38 40 41 41 41 40 40 41 41 41 41 41 41 41 41 42 43 44 44 44 44 45 45 45 45 45 45 45 45 46 46 46 46
42 40 41 41 39 39 40 40 41 41 39 39 41 42 43 43 43 43 43 43 43 43 43 43 43 43 43 44 45 46 46 46 46 47 46 46 46 46 46 46 46 47 47 48
43 42 43 40 39 39 40 40 40 41 40 40 42 43 44 45 45 45 45 45 44 44 44 45 45 44 44 45 46 47 47 48 48 48 47 47 47 47 46 47 47 47 47 48
43 43 43 41 39 39 40 40 40 41 41 42 43 44 45 45 45 45 45 44 45 45 45 46 46 46 46 46 47 47 48 48 49 49 49 49 49 49 48 48 48 48 48 49
42 42 43 41 41 42 42 42 42 42 42 42 43 44 44 45 45 45 44 45 45 45 46 46 46 47 47 47 47 47 48 48 49 50 50 50 50 50 50 50 49 50 49 49
41 42 43 42 43 42 42 42 41 42 42 42 43 44 44 45 45 45 45 45 45 46 46 46 46 47 47 47 47 48 48 48 49 50 51 51 51 50 51 51 51 51 51 51
41 42 42 41 42 41 41 41 41 41 41 42 43 43 44 44 45 45 45 45 46 46 46 46 46 47 47 47 47 47 48 48 49 49 50 50 50 51 51 51 52 52 53 53
41 41 41 40 40 40 40 41 41 42 42 43 43 44 44 45 45 45 45 46 46 46 46 46 46 46 46 47 47 48 48 48 48 48 49 49 50 51 52 52 52 53 53 54
39 39 40 40 39 39 40 42 42 42 42 42 43 43 43 44 44 44 44 45 45 46 46 46 46 47 47 47 48 48 48 48 48 47 47 48 49 50 51 52 52 53 53 53
38 37 38 38 39 40 40 41 41 41 41 41 42 42 42 42 43 43 43 43 44 44 44 44 45 46 47 47 48 48 47 47 47 47 47 47 48 49 49 50 51 51 51 52
36 35 36 36 37 38 39 40 40 40 40 40 41 41 41 42 42 42 43 43 43 43 43 44 44 45 45 46 46 46 46 46 46 46 47 47 47 47 48 48 48 49 51 51
36 36 37 37 37 37 38 38 38 39 40 40 41 41 42 42 43 42 43 43 42 42 43 43 43 43 43 43 43 44 44 43 44 44 45 46 47 47 47 47 47 47 48 50
36 36 37 37 37 37 37 37 38 38 39 40 41 41 42 42 42 42 42 42 42 42 42 42 41 41 41 41 41 41 42 42 43 44 44 45 46 46 46 46 46 46 47 47
34 35 36 36 37 37 38 39 39 39 39 40 40 41 41 41 41 41 41 41 41 40 40 40 40 39 39 39 39 40 41 41 42 42 43 43 44 44 45 45 45 44 44 45
32 33 34 35 36 36 37 38 39 40 40 40 40 40 40 40 40 40 40 40 40 39 39 39 38 38 38 38 38 39 39 39 39 40 41 41 41 42 42 43 43 43 43 43
30 31 32 33 34 35 36 37 38 38 38 38 38 39 38 38 38 39 39 39 39 38 38 38 38 38 38 38 38 38 38 38 38 39 39 39 39 40 40 40 41 41 41 41
30 30 31 31 32 33 34 34 35 36 36 36 37 37 37 37 37 38 38 38 38 37 37 37 37 37 38 37 38 37 37 37 38 38 38 38 38 38 38 38 38 38 38 39
30 30 31 31 31 31 31 31 32 33 33 33 33 34 34 34 35 35 36 36 36 35 35 36 37 37 38 38 39 38 38 37 36 36 36 36 36 37 37 37 37 37 37 37
30 30 30 30 29 29 29 29 30 30 30 31 31 31 31 31 32 32 33 33 34 35 35 36 36 37 37 37 37 37 37 36 35 35 35 34 34 34 35 35 35 35 35 35
28 28 28 28 28 28 28 28 28 29 28 29 29 28 29 29 30 31 32 32 32 34 34 35 36 36 36 36 36 35 35 35 35 34 34 33 33 33 34 34 33 33 33 33
26 27 27 28 27 27 27 28 29 29 29 29 29 29 29 29 29 30 30 30 30 31 32 32 33 33 33 33 33 33 33 33 33 33 33 32 32 32 32 32 31 31 31 31
26 27 27 27 27 26 27 28 28 29 29 28 28 28 28 28 28 28 28 27 28 28 29 29 30 30 30 30 30 30 30 30 31 31 31 31 31 30 30 29 29 29 29 29
26 26 26 26 26 26 26 26 27 27 27 27 26 26 27 27 26 26 26 26 26 27 27 27 26 27 27 27 27 27 27 28 28 28 29 29 28 28 28 28 28 27 27 27
25 25 25 25 25 26 26 26 26 25 25 24 24 24 25 25 25 25 25 25 25 26 25 25 25 25 25 25 24 25 25 25 25 25 25 26 26 26 25 25 25 25 25 24
24 24 24 24 25 25 24 24 23 23 23 22 22 23 23 23 23 23 22 23 23 23 23 23 23 23 22 22 22 22 22 22 22 22 22 22 22 22 22 23 22 22 22 21
22 23 23 23 23 23 22 22 21 21 21 21 20 21 21 21 20 20 20 20 21 21 21 21 20 20 20 20 21 20 20 19 19 18 19 19 19 19 19 19 19 19 18 18

GEFSNGP_500_meanwind_198.txt.gz
Wind_Speed
43 42 43 43 42 42 42 41 41 38 37 35 36 37 37 38 38 38 38 39 39 39 40 41 42 42 43 44 43 43 43 44 44 44 45 45 45 46 46 46 46 46 46 46
46 45 45 46 44 43 44 43 42 41 39 37 38 39 39 39 40 40 40 40 41 41 41 43 43 44 45 45 45 46 46 45 45 45 46 46 46 46 47 47 48 49 49 48
47 46 47 47 43 43 43 43 42 41 40 40 40 41 41 41 42 42 41 41 41 42 43 44 44 45 46 46 46 47 47 47 47 47 47 47 48 48 48 49 49 50 50 50
48 47 48 45 42 42 42 42 43 42 41 42 42 42 42 42 43 43 43 42 42 43 44 45 46 47 48 48 48 49 49 49 49 49 50 50 50 50 50 51 51 51 51 51
47 48 47 45 42 41 42 42 41 42 42 43 43 43 43 43 43 44 44 43 43 44 45 46 47 48 49 49 49 50 50 51 51 51 51 51 52 52 52 52 52 52 52 52
46 47 46 44 43 42 42 43 41 41 42 42 42 43 42 43 44 44 45 44 44 45 45 46 47 48 49 49 50 50 50 51 51 51 51 52 52 53 52 52 53 53 52 52
44 45 45 43 42 41 41 41 40 40 40 41 41 42 43 43 44 45 46 46 46 46 46 47 47 48 48 48 48 48 49 50 50 50 50 51 51 52 52 52 52 52 52 52
43 44 43 41 41 41 40 40 40 40 40 41 41 42 43 44 44 45 46 47 47 47 46 46 47 47 47 48 47 48 49 49 49 49 49 49 50 50 51 51 51 51 52 52
41 41 41 41 41 41 40 40 40 39 39 40 41 41 42 43 44 44 45 46 47 47 46 46 46 46 47 47 48 48 48 49 49 49 49 48 49 49 50 50 50 50 51 51
38 38 39 40 40 40 41 41 41 40 40 39 40 40 41 42 43 43 44 44 45 45 45 45 45 46 46 47 48 48 48 48 48 48 48 47 47 48 49 49 49 49 49 49
35 35 36 37 38 39 39 39 39 39 39 40 41 41 41 41 41 42 42 43 43 44 44 44 44 45 45 46 47 47 47 47 47 48 48 48 47 47 48 48 48 48 48 49
31 32 34 35 36 36 36 37 37 37 38 38 38 39 40 40 41 41 42 42 43 43 44 44 44 44 45 45 45 45 45 46 46 47 47 47 47 47 47 47 47 47 47 47
32 32 33 34 35 35 36 36 36 36 36 36 36 37 38 38 39 40 41 42 42 43 43 44 43 44 44 44 44 44 44 44 45 45 45 45 45 46 46 45 45 45 46 46
33 34 34 34 34 35 35 35 35 35 36 36 37 37 38 38 39 40 41 42 42 42 43 43 43 43 43 44 44 44 44 44 44 44 44 44 44 45 45 45 45 44 45 46
32 33 33 33 32 33 34 35 36 36 36 37 37 37 38 39 39 40 40 40 41 41 41 42 42 42 42 43 43 43 42 42 42 42 42 42 42 43 44 44 44 44 44 45
31 32 32 32 32 33 34 35 36 36 37 37 37 38 39 39 39 39 39 40 40 39 39 40 40 41 41 41 41 41 41 41 41 41 41 41 41 41 42 43 44 44 44 43
29 30 31 31 32 32 33 34 34 35 36 37 38 38 38 38 39 39 39 39 39 39 39 39 39 40 40 40 40 39 39 39 39 39 39 40 40 40 41 42 42 42 41 41
28 28 29 30 31 32 33 33 34 35 36 36 37 37 37 38 39 39 39 39 39 38 38 38 39 39 39 39 39 39 39 38 38 38 39 39 39 39 40 40 40 40 39 39
28 29 29 29 30 30 30 31 32 33 34 34 35 35 37 38 38 38 38 38 38 38 37 38 38 38 38 38 39 39 39 38 38 38 39 39 39 39 38 38 38 38 38 38
26 28 28 28 29 29 29 30 31 31 31 32 33 33 34 35 35 35 35 36 36 37 37 37 37 37 37 37 37 37 37 37 37 38 38 38 38 37 37 36 36 36 35 35
25 26 27 27 27 28 29 29 30 30 30 30 31 31 31 31 31 32 33 33 33 34 34 35 35 35 35 35 35 35 35 35 36 36 36 35 35 35 35 34 34 33 33 32
24 24 25 26 26 27 28 28 29 29 29 30 30 30 30 30 30 30 30 30 30 31 32 32 33 33 33 33 33 33 33 33 33 33 33 33 33 32 32 32 31 31 31 31
22 23 24 25 26 26 27 28 28 29 29 28 28 28 28 28 28 28 27 27 28 28 29 30 30 30 30 30 30 30 30 30 31 31 31 31 30 30 29 29 29 29 29 30
22 23 24 24 25 25 25 26 27 27 27 28 27 27 27 26 26 26 25 25 26 26 26 27 27 27 28 28 28 29 29 29 29 29 29 28 28 27 27 27 27 27 28 28
22 23 23 23 23 23 24 25 25 25 25 25 25 25 25 25 24 24 24 24 25 25 25 25 25 25 25 26 26 27 27 27 27 27 26 25 25 25 25 25 25 25 25 26
20 21 21 21 21 21 21 22 22 22 23 23 23 23 23 23 23 23 23 23 23 23 23 23 23 23 23 24 24 24 24 24 24 23 23 23 23 23 23 23 23 23 23 23
19 19 19 19 19 19 19 19 19 20 20 21 21 21 21 21 22 22 22 21 21 21 20 20 21 21 21 21 21 22 22 22 22 21 21 21 21 21 20 20 20 20 20 19

GEFSNGP_500_meanwind_204.txt.gz
Wind_Speed
45 45 45 44 44 44 44 44 44 40 37 35 36 36 36 36 36 37 38 39 40 41 41 41 42 42 42 42 44 44 44 43 43 42 42 43 43 43 44 45 46 47 47 47
47 46 46 46 45 45 45 44 43 42 39 36 37 37 36 36 37 37 39 39 40 41 41 41 41 41 42 42 43 44 44 44 44 44 44 44 44 45 45 46 47 48 48 49
48 47 48 48 44 44 44 42 42 41 39 37 37 36 36 37 37 38 39 39 40 40 40 40 41 41 42 43 43 44 45 46 46 46 46 46 46 46 46 47 48 49 50 51
46 46 49 46 43 42 41 41 41 41 39 38 37 36 36 36 37 38 39 40 41 41 41 41 42 43 43 44 45 46 47 47 47 48 48 49 49 49 49 49 50 50 51 52
45 45 46 44 42 41 41 40 40 40 38 38 37 37 36 36 37 38 39 40 41 42 43 42 43 43 43 45 46 47 47 48 48 48 49 50 51 51 51 51 51 51 52 52
42 43 44 42 40 39 40 40 38 37 37 38 37 37 35 35 37 38 38 39 40 41 42 42 42 43 43 44 45 46 47 48 49 49 50 50 51 51 51 52 52 51 52 53
38 40 41 40 39 38 39 37 36 35 36 37 37 37 36 36 37 37 38 39 39 40 40 41 41 43 43 44 45 46 48 49 49 50 50 50 50 50 50 51 51 51 51 52
34 35 36 37 37 37 36 35 35 35 35 36 36 36 37 37 37 37 37 38 39 40 41 41 41 43 44 44 44 46 47 48 48 49 48 48 48 49 49 49 49 50 50 50
32 33 33 33 34 34 34 34 34 34 34 35 35 35 36 37 37 38 38 38 39 40 40 40 40 40 41 41 43 44 45 46 46 47 47 47 47 48 48 48 48 49 49 49
30 31 32 32 32 33 32 32 32 32 32 32 33 33 34 35 36 37 38 39 40 40 40 40 40 41 40 41 41 42 43 44 44 45 46 46 46 46 47 47 47 47 48 48
26 27 29 31 32 32 32 32 32 32 32 32 33 33 34 34 34 35 36 37 38 40 40 40 40 40 40 41 41 42 42 43 44 44 45 45 45 45 46 46 46 46 46 47
23 24 25 26 28 30 32 33 33 33 32 33 33 34 34 34 34 34 34 35 36 37 39 39 40 40 40 40 40 41 42 42 43 43 44 44 44 44 45 45 45 45 46 46
25 24 24 25 26 28 30 31 32 32 32 33 33 34 34 34 34 33 34 34 35 36 37 38 39 39 39 39 39 39 39 40 40 40 41 42 43 44 44 44 45 45 45 46
25 26 25 25 26 26 27 28 29 30 31 32 32 32 33 33 32 33 34 34 35 35 36 37 37 37 38 38 39 39 39 39 39 39 40 41 42 43 43 43 43 43 43 44
23 24 24 24 25 25 25 26 26 27 28 29 30 31 31 32 32 33 33 34 34 34 35 36 36 36 37 38 38 39 39 39 39 40 40 40 41 41 42 42 42 42 42 42
21 23 23 24 24 25 25 25 26 26 27 28 29 30 30 31 32 32 33 33 34 34 35 35 35 36 37 38 38 38 38 38 39 39 40 40 40 40 40 40 40 40 40 40
20 21 22 23 24 25 25 25 26 27 28 29 30 31 31 32 32 33 33 34 34 34 34 35 35 36 36 37 38 38 38 38 39 39 39 39 39 39 39 39 39 39 39 39
19 20 21 22 23 24 25 26 26 27 27 28 30 31 32 32 33 33 34 35 35 35 35 35 36 36 37 37 37 37 37 38 38 38 38 38 38 38 38 38 38 38 37 37
20 20 21 22 22 23 24 25 26 26 27 28 28 29 31 32 33 34 34 35 35 35 35 36 36 37 36 36 37 37 37 37 37 37 36 36 37 37 37 37 38 38 38 37
19 20 20 21 21 22 24 25 25 26 26 27 28 28 29 30 31 32 33 34 34 34 34 35 35 35 36 35 36 36 36 36 36 36 36 36 36 36 36 37 37 37 37 37
19 19 19 20 21 22 23 24 24 25 25 25 26 26 27 28 29 29 30 31 31 32 32 33 33 33 33 33 34 34 34 35 35 35 35 34 34 35 35 36 36 36 36 35
18 19 19 20 21 21 22 23 23 24 24 24 25 26 26 27 27 28 28 29 29 30 30 30 30 30 30 30 31 31 32 32 32 33 33 33 34 34 34 34 34 34 33 33
16 17 18 19 20 20 21 22 23 23 24 24 25 25 26 26 26 27 27 28 28 29 29 29 29 28 28 28 29 29 29 29 30 30 31 31 32 32 32 32 32 31 31 31
16 16 17 17 18 18 19 20 21 22 23 23 23 24 24 25 25 26 26 26 26 26 26 27 27 28 28 28 27 27 27 27 28 28 28 28 28 28 28 28 28 28 28 28
15 16 16 16 16 17 17 17 18 19 20 21 21 21 22 22 23 23 24 24 24 24 25 25 25 25 26 26 26 26 26 26 26 26 26 26 26 26 26 26 26 26 26 25
16 16 16 16 16 15 15 16 16 17 17 18 19 19 20 20 20 21 22 22 23 23 23 23 23 23 24 24 24 24 24 24 24 24 24 24 24 24 24 24 24 24 24 23
16 15 15 15 14 14 14 14 14 15 15 16 17 17 17 18 18 18 19 19 19 20 20 20 21 21 22 22 22 22 22 22 22 22 22 22 22 22 21 21 21 21 21 21

GEFSNGP_500_meanwind_210.txt.gz
Wind_Speed
47 46 46 46 44 44 45 46 47 45 43 42 41 41 40 39 39 39 38 38 38 39 39 40 42 43 43 42 42 43 43 43 44 45 45 45 45 45 45 45 45 45 45 45
48 47 48 49 48 47 46 46 46 45 44 43 42 41 41 40 40 40 39 38 38 39 39 39 40 42 43 43 42 43 43 43 43 44 44 44 45 45 45 45 45 45 45 46
47 47 48 50 48 48 47 46 46 46 44 43 43 42 41 41 41 41 40 39 39 38 39 39 40 41 43 44 44 43 44 44 45 45 45 45 46 46 47 47 47 47 46 47
45 46 48 46 45 46 46 46 46 45 43 42 43 42 42 42 42 41 41 41 41 40 40 41 41 42 42 44 44 44 45 46 46 46 46 46 46 47 48 48 48 48 48 48
42 43 44 43 42 42 43 44 43 42 41 41 41 41 41 41 40 40 40 40 40 40 40 41 42 42 43 44 44 44 45 45 46 47 47 47 48 48 48 49 49 49 50 50
39 41 42 40 39 40 41 43 40 40 40 39 39 40 39 39 39 39 39 39 39 39 40 40 40 41 41 42 43 44 44 45 46 48 49 49 49 49 50 50 50 50 51 51
34 36 38 38 38 38 40 40 39 39 39 39 38 38 38 38 38 38 37 38 38 38 39 39 39 39 39 39 41 43 44 45 45 47 49 49 50 50 51 51 51 51 52 52
29 31 33 33 36 36 37 36 36 37 37 37 37 37 37 37 37 37 36 37 37 38 38 38 38 38 38 38 39 40 41 42 44 45 46 47 49 50 51 51 51 51 52 52
26 28 29 30 33 35 36 35 35 35 35 35 35 35 35 35 35 35 35 36 36 36 37 37 38 38 38 38 39 39 40 40 42 43 45 46 47 48 49 49 50 50 51 51
24 25 27 28 30 31 33 33 33 33 33 33 33 33 34 34 34 34 33 34 35 35 36 36 37 37 38 39 39 40 40 40 41 42 43 44 45 45 46 46 47 48 50 50
24 24 23 24 26 28 30 31 31 31 32 32 32 32 32 32 33 33 32 32 34 35 36 36 37 37 37 37 37 38 39 39 40 41 42 42 42 43 44 45 45 46 46 46
21 23 23 23 24 25 27 29 30 30 30 30 31 31 32 32 32 32 32 32 32 33 34 34 35 35 35 35 35 36 38 38 39 39 39 40 40 41 42 43 43 43 43 44
18 20 21 22 23 24 25 26 27 28 29 29 29 29 30 30 30 30 31 31 31 32 32 32 33 33 34 34 35 35 36 36 36 36 37 38 39 40 40 40 41 41 42 43
17 18 19 20 21 22 23 23 24 25 26 27 28 28 28 29 29 30 31 32 32 32 32 32 32 32 33 34 34 34 35 36 36 36 37 37 37 38 38 38 39 40 41 42
18 18 18 19 19 20 20 21 22 23 23 24 26 27 28 28 29 30 30 31 32 32 32 32 32 32 33 34 34 34 35 35 36 36 36 36 36 37 37 37 38 38 39 40
18 18 18 19 19 20 20 21 21 22 22 23 24 25 27 28 28 29 29 30 31 31 32 32 32 32 32 33 34 35 36 36 36 36 36 36 36 37 37 37 38 38 39 39
18 18 19 20 20 21 21 22 22 23 23 23 24 25 26 27 28 28 29 30 30 31 32 32 33 33 33 34 35 35 35 35 35 35 35 36 36 36 37 38 38 38 39 39
19 19 20 21 21 22 22 22 23 23 24 24 25 25 26 27 28 29 30 30 30 31 32 33 33 34 35 35 35 35 35 34 35 35 35 35 36 36 37 37 38 38 38 39
19 20 20 21 21 22 22 22 22 23 23 24 24 25 26 27 28 29 30 31 32 32 33 33 34 35 35 35 35 34 34 35 35 35 35 36 36 37 37 37 37 37 37 37
20 20 20 21 21 22 22 22 22 23 24 24 25 25 26 27 28 29 29 30 31 33 34 34 34 34 34 34 35 35 35 35 36 36 36 36 36 36 36 36 36 36 36 36
19 20 20 20 20 21 21 22 22 23 24 24 24 25 25 26 27 28 28 28 30 31 32 32 33 33 34 34 34 34 35 35 36 36 36 36 35 35 35 35 34 35 34 34
19 20 19 20 20 20 20 21 22 23 23 24 24 24 25 25 26 27 27 27 28 29 29 29 30 31 31 32 32 32 33 34 34 34 34 34 34 33 33 33 33 33 33 33
18 18 18 18 19 19 20 21 21 22 23 23 24 24 24 25 25 26 26 26 27 27 27 27 27 28 28 29 29 30 30 31 31 31 32 32 32 32 32 32 32 32 32 32
16 16 16 17 17 18 19 19 19 20 20 21 21 22 22 23 23 24 24 25 25 25 25 26 26 26 27 27 27 28 28 29 29 29 30 30 30 30 31 30 30 30 30 30
16 16 16 16 16 17 17 17 17 18 18 19 19 20 20 21 21 22 23 24 24 24 25 25 25 26 26 26 26 27 27 28 28 29 29 29 29 29 30 29 29 29 29 29
16 16 16 16 15 15 15 16 16 16 17 17 17 18 18 19 19 20 21 21 22 22 22 22 23 23 23 24 24 25 25 26 27 28 28 28 28 28 27 27 27 27 27 27
16 16 15 15 15 15 15 15 15 16 16 16 17 17 17 17 17 17 17 17 18 18 19 19 20 20 21 21 21 21 22 22 23 23 23 24 24 24 24 24 24 25 25 24

GEFSNGP_500_meanwind_216.txt.gz
Wind_Speed
41 40 41 42 42 42 43 43 43 43 42 40 39 39 39 40 40 39 38 38 37 37 36 36 37 38 38 39 40 40 41 42 42 44 45 46 46 47 47 45 45 46 48 48
38 38 39 40 41 41 42 42 42 43 43 42 42 42 41 41 40 40 39 39 38 37 37 37 37 38 38 38 39 40 40 41 41 43 44 45 46 47 48 47 46 46 47 47
38 38 39 40 39 40 41 41 41 42 40 41 42 42 42 42 41 41 40 40 39 39 39 38 38 38 38 38 39 39 39 39 40 41 42 43 45 46 46 45 46 45 45 46
36 37 39 38 38 39 40 40 39 39 38 39 40 40 41 42 42 42 41 40 39 39 39 38 38 39 40 39 39 39 39 39 40 42 42 43 43 44 44 44 44 45 45 45
33 35 37 36 36 37 37 37 37 37 37 37 37 37 38 39 39 40 40 40 39 39 39 39 39 39 39 39 39 39 40 40 41 42 43 42 43 43 43 44 45 45 46 46
27 30 33 34 34 34 35 36 35 35 35 36 36 36 35 36 36 37 37 38 38 37 37 37 38 38 39 39 39 39 40 40 41 42 43 43 42 43 44 45 45 46 46 47
23 25 26 28 30 31 32 33 33 34 34 34 34 34 34 34 35 35 35 36 36 35 35 35 36 36 37 37 37 38 40 40 40 42 42 42 43 44 45 46 46 47 47 48
21 22 22 23 25 28 29 29 31 32 32 33 33 33 32 31 32 32 33 34 34 34 33 33 34 34 35 35 36 38 39 40 40 41 41 41 42 44 44 45 46 47 47 48
17 19 20 22 23 24 26 27 29 30 30 31 32 32 31 31 31 31 32 32 33 34 34 33 33 33 33 34 35 36 37 38 38 39 40 40 41 42 43 44 46 46 47 48
15 16 17 19 22 23 24 25 26 27 28 29 29 29 29 29 30 31 31 31 32 33 33 34 33 33 32 33 34 35 35 36 37 38 38 38 39 40 42 44 45 46 46 47
15 15 16 17 19 21 22 22 23 25 26 26 27 27 27 27 28 29 29 29 30 32 33 33 33 33 33 33 33 33 34 34 36 36 36 37 38 39 40 42 43 44 45 46
15 15 15 15 16 18 20 21 23 24 24 24 25 26 26 26 27 28 29 29 30 30 31 33 34 33 33 33 33 33 33 33 33 35 35 35 36 37 38 39 40 42 43 44
14 14 14 14 14 15 17 19 20 21 22 22 24 25 26 26 26 27 28 29 29 29 30 31 32 32 33 33 33 33 33 32 33 35 36 35 35 35 36 36 37 38 39 40
13 13 14 14 14 15 16 17 18 19 19 21 22 24 25 25 26 26 27 28 28 29 29 29 30 30 31 32 33 33 33 33 34 35 35 35 35 35 35 36 36 36 37 37
13 14 14 14 14 15 16 17 18 19 19 20 21 22 23 24 24 25 26 27 28 28 29 29 29 30 31 31 32 33 33 33 33 33 34 34 35 35 35 35 36 36 36 36
12 14 14 14 14 14 15 16 17 18 19 19 20 21 22 23 24 24 24 25 26 27 27 28 29 29 30 31 32 32 32 33 33 33 33 33 34 34 34 34 34 34 35 36
13 14 14 15 15 15 15 15 16 17 17 18 19 20 21 22 23 23 23 24 25 25 26 27 28 29 29 30 31 32 32 32 33 33 33 33 33 33 33 33 34 34 34 36
15 14 15 15 15 16 17 17 17 17 18 18 19 20 20 21 21 22 22 23 24 24 25 26 27 28 28 29 30 31 31 31 32 33 32 32 33 33 33 33 34 34 35 36
15 16 16 17 17 17 18 18 18 19 19 19 20 20 20 21 21 21 22 23 24 24 25 26 26 27 28 28 29 30 31 31 32 32 32 32 32 33 33 34 35 35 35 35
16 17 17 17 18 18 18 19 19 20 20 20 20 21 21 21 21 21 22 23 24 24 25 25 26 27 27 28 29 29 30 30 30 31 31 32 32 33 33 34 35 36 36 36
15 16 16 16 17 18 19 19 19 19 20 20 21 21 21 22 22 22 22 22 23 24 24 25 25 27 27 28 29 29 29 29 30 31 31 32 32 32 33 33 34 35 35 35
15 15 15 15 16 17 18 18 19 20 20 21 21 21 21 21 21 21 21 22 22 23 23 23 24 25 26 26 27 28 28 29 30 31 31 32 32 32 32 32 33 33 33 33
15 15 15 15 15 16 16 17 18 18 19 19 20 20 20 20 20 20 20 21 22 22 22 22 23 23 24 25 25 26 27 28 29 30 30 31 31 31 31 31 31 31 31 31
15 15 15 15 15 15 15 15 15 16 16 17 17 17 18 18 19 20 21 21 21 22 22 22 22 22 23 23 24 24 25 26 26 27 28 28 29 29 29 29 29 30 30 30
16 15 15 15 15 15 15 14 14 14 14 15 15 16 17 18 19 19 20 20 20 20 21 21 21 21 22 22 23 23 24 24 24 25 25 26 26 27 27 27 28 28 29 28
16 16 16 15 15 15 15 15 14 14 15 15 15 16 16 17 17 18 19 19 19 20 20 20 20 20 20 21 21 22 22 23 23 24 24 25 25 26 26 27 27 27 27 26
16 16 16 16 16 15 15 15 15 15 15 15 15 15 15 15 16 17 17 18 18 18 18 18 18 18 18 19 19 20 20 21 22 22 23 23 24 24 24 24 25 25 25 25

GEFSNGP_500_meanwind_222.txt.gz
Wind_Speed
36 36 38 39 40 41 43 44 45 44 44 43 41 42 43 42 42 42 43 43 43 43 43 43 42 42 42 42 42 43 43 43 44 44 44 45 45 45 46 47 48 49 50 50
35 35 36 38 38 39 40 41 43 42 42 42 42 42 42 43 41 41 42 42 43 43 42 42 42 42 43 43 43 43 44 43 44 44 44 44 44 45 45 46 48 49 50 51
33 33 34 36 35 36 37 39 40 39 38 38 40 40 40 40 40 41 41 42 42 42 42 42 42 42 42 43 43 44 44 44 43 43 43 43 44 43 44 45 46 47 49 51
30 31 32 33 33 34 36 36 37 38 36 36 37 37 37 37 38 39 41 41 42 42 43 43 43 43 43 42 42 43 44 44 44 43 42 42 43 43 43 44 45 46 46 48
25 27 29 30 31 31 33 34 35 36 36 36 36 37 37 37 38 38 38 39 40 41 41 42 42 42 42 42 42 42 43 43 44 44 43 43 43 43 43 43 44 45 46 46
20 23 25 25 27 28 30 31 32 33 34 35 36 37 37 38 38 38 37 37 37 37 39 40 41 41 41 40 41 41 41 42 42 43 43 43 42 41 42 42 42 43 43 44
19 20 21 21 22 25 27 29 29 30 32 34 36 36 36 36 36 36 35 35 36 36 36 37 38 39 39 39 38 39 40 41 41 41 42 42 41 42 42 42 42 42 42 43
17 18 18 18 19 22 24 26 27 28 29 31 33 34 35 35 34 34 33 34 34 34 34 35 35 36 37 37 38 38 39 40 40 40 40 41 41 41 42 42 43 43 43 44
15 17 17 17 18 20 21 22 23 25 26 27 28 29 31 32 32 32 32 32 33 33 33 34 35 35 36 37 37 38 39 40 40 40 40 41 41 42 42 43 43 42 43 44
13 14 16 16 17 18 19 20 21 21 23 24 25 26 28 28 28 29 29 30 31 32 32 33 33 34 35 36 36 37 38 38 39 40 39 40 41 41 42 41 42 42 43 44
12 13 15 16 17 18 19 19 21 21 22 23 25 26 27 27 27 28 28 29 30 31 32 32 33 34 35 35 35 36 37 37 38 39 39 39 39 39 40 41 41 42 42 42
11 13 14 15 17 17 18 19 19 20 21 23 24 25 26 27 27 27 28 29 30 30 31 32 33 33 34 34 34 35 35 36 36 36 37 37 38 39 39 39 39 39 40 40
12 13 15 15 16 16 16 17 19 19 20 21 23 24 25 26 26 27 27 28 29 30 30 31 31 31 32 32 32 33 34 34 34 34 35 35 36 36 36 36 37 37 38 39
13 14 15 16 17 16 16 16 16 17 19 20 21 22 23 24 25 26 26 26 27 28 29 28 28 29 30 31 31 32 33 33 34 34 33 33 33 34 34 34 35 36 37 38
14 14 14 15 16 16 15 15 15 16 17 18 19 21 22 23 24 24 24 25 26 26 27 27 27 28 29 30 31 31 32 33 33 32 32 32 32 32 33 33 34 35 36 36
14 14 14 14 14 15 15 15 15 15 16 17 18 19 20 21 22 22 23 24 25 26 26 26 27 27 28 29 29 30 30 31 32 32 32 32 32 32 32 33 33 34 34 35
14 14 14 14 14 15 15 15 16 16 16 17 18 18 18 18 19 21 21 22 24 24 26 26 26 27 27 28 28 29 29 30 31 32 32 32 33 33 32 32 32 33 33 34
15 15 15 15 15 15 16 16 16 16 17 17 17 17 17 17 18 19 21 22 22 23 23 24 24 25 26 27 28 29 30 30 31 31 32 32 32 32 31 32 32 32 32 32
16 16 16 16 16 16 17 17 17 18 18 18 18 18 18 18 18 19 20 21 21 22 23 24 24 25 27 27 27 28 30 30 31 31 31 32 32 31 32 32 31 31 31 32
16 17 17 17 17 17 18 18 19 19 19 19 19 19 20 20 20 21 21 21 21 22 23 24 24 25 26 27 27 28 29 30 30 30 31 32 32 32 32 31 31 31 32 32
16 17 17 17 18 18 18 19 19 20 20 20 20 20 21 21 21 21 21 22 22 23 23 24 24 25 26 27 27 28 29 29 29 29 30 31 31 31 31 30 31 31 32 32
17 17 17 17 18 18 18 19 19 19 20 20 20 21 22 22 22 21 21 21 22 22 23 23 24 24 25 25 26 26 27 27 27 28 28 29 29 29 29 29 29 30 31 32
17 17 17 17 18 18 18 18 18 19 19 19 20 20 21 21 21 21 21 21 21 21 22 22 22 22 23 23 24 25 25 25 26 26 26 27 27 28 28 28 29 29 30 30
18 18 17 17 17 17 18 18 18 18 18 18 18 18 18 19 19 20 19 20 20 20 21 21 21 22 22 22 23 23 24 24 25 25 25 26 26 27 28 28 29 29 29 30
18 18 18 18 18 17 17 18 18 18 17 17 17 17 17 17 17 18 18 18 19 19 19 19 19 19 20 20 20 21 21 22 22 23 23 23 24 25 26 27 28 28 28 29
19 19 19 19 18 17 17 17 16 16 16 16 16 17 17 18 18 17 17 18 18 18 18 18 18 18 19 19 19 19 20 20 20 20 21 22 23 23 24 25 25 26 27 27
19 19 19 18 18 17 17 17 16 16 16 16 16 17 17 17 17 17 17 18 18 18 18 18 18 19 19 19 19 19 20 20 20 20 20 21 21 22 22 22 23 23 24 24

GEFSNGP_500_meanwind_228.txt.gz
Wind_Speed
24 26 29 31 32 33 36 38 39 39 39 39 39 39 39 40 40 41 42 43 43 44 45 45 45 46 45 45 45 45 46 46 46 46 47 47 47 47 48 48 48 48 48 48
23 24 26 29 31 32 34 36 37 38 39 39 39 39 39 39 40 40 42 43 43 43 44 44 45 46 46 46 46 46 46 46 46 46 46 47 46 46 47 47 48 49 49 48
20 23 26 28 28 30 32 34 37 39 38 38 39 39 39 39 39 40 40 41 42 43 43 44 44 45 45 45 45 46 46 46 46 47 47 47 47 47 47 47 47 47 47 48
19 21 24 26 28 29 31 32 34 36 37 37 37 38 37 37 37 38 39 39 41 42 42 43 43 44 44 45 45 45 45 46 46 47 47 47 47 47 48 48 48 47 47 47
17 18 21 23 25 28 30 30 32 34 36 36 36 37 37 37 37 36 36 38 39 40 41 41 41 42 42 43 44 44 44 45 46 46 46 46 46 46 46 46 47 47 47 47
15 15 17 20 22 24 27 29 31 32 33 35 36 37 36 36 37 36 36 37 38 38 39 40 40 41 41 41 42 43 43 43 44 45 45 45 44 45 45 45 45 45 46 46
13 14 15 17 19 21 23 25 28 30 31 32 34 34 34 34 34 35 36 36 37 37 37 38 39 39 40 40 41 42 43 43 44 44 44 44 44 44 44 44 43 43 44 44
11 12 13 15 17 20 21 23 25 27 28 30 31 32 32 32 32 33 34 35 36 36 36 37 37 38 38 38 39 41 42 42 43 43 44 44 44 44 44 43 43 43 43 43
10 11 11 12 15 17 19 21 23 24 25 27 27 29 30 30 31 32 32 33 34 35 35 35 36 36 37 37 38 38 39 41 42 42 43 43 44 43 43 43 43 43 42 42
8 10 11 12 14 14 16 18 20 22 22 23 25 26 27 28 29 29 30 31 33 34 33 34 34 35 35 35 36 36 37 39 40 41 42 42 43 43 42 42 42 42 42 42
8 9 10 10 12 13 14 16 17 19 21 21 22 23 24 25 27 28 29 29 30 31 31 31 32 33 34 34 35 36 36 36 37 38 39 40 41 41 41 42 42 42 42 42
8 9 10 10 11 12 13 15 16 18 19 20 20 21 22 24 26 27 28 28 28 28 29 30 31 32 33 33 34 34 35 35 35 36 37 37 38 38 39 40 40 41 41 41
9 10 11 11 11 11 11 13 15 16 17 18 19 19 21 23 24 26 26 26 26 27 27 29 30 31 32 33 33 33 34 34 35 35 35 36 36 36 36 37 38 38 39 39
11 11 12 12 12 12 12 12 13 14 15 16 17 18 19 21 22 22 24 24 25 26 26 27 28 29 30 31 31 31 32 32 33 34 35 35 35 36 36 36 37 37 37 37
11 12 12 13 12 12 12 12 13 14 15 15 16 17 18 20 20 21 21 22 23 24 24 25 26 27 28 29 29 29 30 31 32 33 34 34 35 35 35 36 36 36 37 38
12 12 12 12 12 12 13 13 13 14 15 16 16 17 18 19 19 19 20 21 22 22 23 23 24 26 27 27 28 28 29 30 31 32 33 33 33 33 34 35 35 36 37 37
12 12 12 12 12 13 13 14 14 14 15 16 16 17 18 19 19 20 20 21 21 22 22 23 23 24 25 26 27 27 28 29 29 30 31 31 32 32 33 33 34 35 35 35
13 12 13 13 13 13 14 14 15 15 15 16 17 17 18 18 19 20 21 21 22 22 22 23 23 23 24 24 25 26 26 27 28 29 30 30 31 31 31 32 32 33 34 34
13 13 13 13 13 14 14 14 15 15 16 16 17 17 18 18 19 20 21 22 23 23 23 23 24 24 24 24 25 26 26 27 28 29 29 30 30 30 31 31 32 32 33 34
13 13 14 14 14 14 15 15 15 16 17 17 18 18 18 19 19 20 21 22 22 23 23 23 23 23 24 25 26 26 27 28 28 29 29 29 30 31 31 31 32 32 33 34
15 15 15 15 16 16 16 16 16 16 17 18 19 19 19 20 20 20 20 21 22 23 23 23 24 23 23 24 25 26 27 28 29 29 29 30 30 31 31 32 32 33 33 33
16 17 17 17 17 17 17 16 16 17 17 18 18 19 20 20 21 21 21 21 22 23 23 24 24 24 24 24 24 25 26 27 27 28 29 29 30 30 30 30 30 30 31 31
18 18 17 17 17 17 17 17 16 16 17 17 17 18 18 19 19 20 20 20 21 22 23 23 24 24 24 24 24 24 24 25 26 26 26 26 27 27 27 27 28 28 29 29
17 17 17 17 17 18 18 17 17 17 17 18 17 17 17 17 17 18 19 19 19 20 21 21 22 22 22 22 23 23 24 24 24 24 24 24 25 25 25 26 26 26 26 27
18 17 18 18 18 18 18 18 18 17 17 17 17 17 17 17 18 18 19 19 19 19 19 19 20 20 20 20 21 21 21 21 21 21 21 22 22 23 24 24 24 24 24 25
18 18 19 19 18 18 18 18 18 18 18 17 17 17 17 17 17 17 18 19 19 19 19 19 18 18 19 19 19 19 19 19 20 20 20 20 21 22 22 22 23 23 24 24
18 19 19 19 19 18 18 18 18 17 17 17 16 16 16 17 17 16 16 16 17 17 17 16 16 16 17 17 17 17 18 18 19 19 19 20 20 21 21 22 22 23 23 22

GEFSNGP_500_meanwind_234.txt.gz
Wind_Speed
21 21 23 27 30 33 34 33 33 32 33 36 36 36 38 39 39 40 42 43 45 46 47 48 48 49 49 49 50 50 51 50 50 50 50 49 49 49 49 49 48 48 48 48
21 22 23 25 29 31 33 33 34 34 33 35 37 36 37 37 38 39 41 43 44 45 46 47 48 49 49 49 49 49 50 51 51 51 51 50 50 50 50 50 49 48 48 49
19 21 22 24 26 29 30 31 33 34 33 34 36 36 36 37 36 38 40 41 43 45 46 47 47 48 48 48 48 49 49 49 50 50 51 51 51 50 50 50 50 49 49 49
16 19 21 22 24 26 29 31 32 33 33 34 35 35 35 36 36 36 37 39 40 43 44 45 46 47 47 47 47 48 48 48 48 48 49 49 50 50 50 50 50 50 49 49
13 16 19 21 22 25 29 31 32 33 33 34 34 35 34 35 36 36 36 38 39 40 42 43 44 45 45 46 46 46 47 47 47 47 47 48 48 49 49 49 49 49 48 48
12 14 16 18 20 22 26 29 31 33 33 33 34 34 34 35 35 35 36 38 39 39 40 41 42 42 43 43 43 44 45 45 45 46 46 46 47 47 48 48 48 47 47 47
12 13 15 17 18 20 24 27 29 30 32 33 34 34 33 35 34 34 35 36 37 38 38 39 40 40 41 41 42 42 43 44 44 44 45 46 46 46 46 46 47 47 46 46
12 13 13 15 17 19 22 24 26 28 30 31 32 33 34 34 35 35 35 35 36 37 38 39 39 39 39 40 41 41 42 42 43 43 44 44 44 44 44 45 45 45 45 45
11 13 13 14 16 18 19 21 23 25 26 28 29 31 32 33 34 34 34 35 35 36 37 37 38 38 39 39 40 40 40 41 41 42 42 42 42 43 43 43 44 44 45 44
10 11 12 13 14 16 18 19 20 22 23 24 26 27 29 30 32 32 32 33 33 34 35 36 36 37 37 38 38 39 39 39 39 40 40 41 42 42 42 42 43 43 44 44
10 11 12 13 14 15 16 17 19 20 20 21 22 23 25 27 29 30 30 31 32 33 34 34 34 35 36 37 37 37 37 37 37 38 37 38 39 40 41 42 42 43 44 44
11 11 12 13 13 14 15 16 17 18 19 20 21 22 23 24 26 28 29 29 29 30 31 32 33 33 34 35 36 36 36 36 36 36 37 37 37 38 39 40 41 42 42 43
11 11 11 11 11 11 12 13 14 15 17 18 18 19 20 21 23 25 26 27 27 28 29 30 31 31 32 32 34 35 35 36 36 36 36 36 36 37 38 39 40 40 41 41
13 13 12 12 12 12 12 13 14 15 16 17 17 18 18 19 20 22 23 25 26 26 27 28 29 30 30 30 32 33 34 34 34 35 36 36 36 37 37 37 38 39 39 40
14 14 14 14 14 13 13 13 14 15 16 17 17 17 17 17 19 20 22 23 24 25 26 27 27 27 28 28 29 31 32 32 33 34 35 36 36 36 36 36 37 37 38 38
15 15 15 15 15 15 15 15 14 15 16 16 17 17 16 16 16 18 19 20 22 24 24 25 25 25 25 26 27 28 29 30 32 33 34 35 36 36 36 35 35 36 36 37
15 15 15 15 15 15 16 16 15 15 15 15 16 17 17 17 17 18 18 19 20 22 23 24 24 25 25 25 26 26 27 28 30 31 32 33 34 34 34 34 34 34 35 36
15 15 15 15 15 16 16 16 16 16 15 15 16 16 17 18 18 19 19 20 20 22 22 23 24 24 25 25 25 26 27 27 28 28 29 30 31 32 33 34 34 34 35 36
16 15 15 15 15 16 16 16 17 17 17 17 17 17 18 19 19 20 20 21 21 22 22 23 23 24 24 25 25 26 26 26 26 27 27 28 29 30 31 32 33 34 35 36
17 16 16 16 16 16 17 17 17 18 18 19 19 19 19 19 19 19 20 21 22 22 23 23 23 23 24 24 24 24 24 25 25 26 27 28 28 29 29 30 31 32 33 34
18 18 18 18 17 18 18 18 18 18 19 19 20 20 20 20 19 19 19 20 21 22 23 23 24 24 23 23 24 24 24 24 25 26 26 27 27 28 29 30 31 32 32 32
19 19 19 19 19 19 19 19 19 19 19 19 19 20 20 20 20 20 20 20 21 22 22 23 23 23 23 23 24 24 24 25 25 26 26 26 27 27 28 29 30 31 32 33
20 20 20 20 20 20 20 20 20 20 20 19 19 19 20 20 21 21 21 21 21 21 21 22 22 23 23 23 23 24 25 25 26 26 27 27 28 28 28 29 30 30 31 32
21 21 21 21 21 21 21 21 20 20 20 20 20 19 19 19 20 21 21 21 21 20 20 21 21 22 23 23 23 23 24 24 25 25 25 26 26 27 27 27 28 29 29 29
21 21 21 21 21 21 21 20 20 19 20 20 20 20 19 19 19 20 20 20 20 20 20 20 21 21 22 22 22 22 22 23 23 23 23 24 24 24 24 25 25 26 27 27
21 21 21 21 21 21 20 20 20 20 20 20 20 20 20 19 19 19 19 20 20 21 21 21 21 21 21 21 21 21 21 21 21 21 21 22 22 22 22 23 23 23 24 24
21 21 21 21 21 20 20 20 20 20 20 20 20 20 20 19 19 19 19 19 20 20 20 20 20 20 20 20 21 21 21 20 20 20 20 20 20 20 20 21 21 21 21 22